GFSNGP_sfc_thetae_000.txt.gz
Theta_e
294 295 294 293 293 294 293 294 288 292 293 297 298 299 301 301 301 301 301 301 300 300 299 300 302 304 304 304 303 301 301 302 302 303 303 302 302 302 303 304 304 304 304 305
289 293 291 290 292 292 293 294 294 294 293 300 301 299 300 298 301 301 300 300 300 300 299 301 301 302 301 300 299 300 298 299 301 300 300 300 300 300 301 301 302 302 302 303
284 290 290 286 291 292 293 294 293 289 295 299 297 300 300 300 300 301 299 298 298 299 301 300 299 299 296 296 296 297 296 297 297 296 295 296 297 297 297 297 297 298 300 301
285 287 279 292 297 297 294 296 296 296 297 298 299 300 300 300 298 300 298 298 299 298 298 297 297 296 294 293 293 293 293 292 293 293 292 293 293 293 293 294 294 295 296 298
284 285 289 293 296 294 292 292 297 296 297 298 299 296 296 300 299 298 298 298 297 296 295 294 293 291 291 290 290 290 289 289 290 290 290 290 290 290 290 291 292 292 294 295
282 280 281 291 296 299 296 286 298 298 298 298 296 289 292 297 300 298 299 299 295 293 293 291 289 289 287 287 286 285 286 286 287 288 288 287 288 288 288 290 290 291 291 293
285 283 288 297 297 298 286 289 298 299 299 299 294 294 296 298 298 297 295 294 294 293 289 287 287 286 284 283 282 284 285 285 285 286 286 286 286 287 287 287 288 288 289 290
287 283 280 298 297 291 296 298 299 300 298 295 296 298 298 297 295 294 293 292 290 288 286 285 285 283 281 280 283 284 284 284 284 284 285 285 284 285 285 285 285 286 287 287
291 289 298 298 297 300 299 299 298 298 298 298 298 297 296 294 293 293 291 288 286 285 284 283 284 282 280 281 283 283 283 282 283 283 283 284 283 283 283 284 284 284 285 285
292 293 295 298 301 297 297 296 297 297 297 297 296 295 295 293 292 291 288 285 284 283 282 281 282 282 281 282 282 282 281 281 282 282 283 283 283 283 283 282 283 283 283 283
292 296 298 299 298 296 295 294 294 294 295 295 294 292 291 291 290 286 285 283 283 281 281 280 280 280 281 282 282 281 281 281 281 282 281 281 282 282 282 284 286 285 284 285
290 295 295 296 297 294 294 294 294 292 289 291 292 291 291 289 286 284 282 282 281 280 279 279 279 280 281 282 282 280 280 280 281 281 281 281 281 281 286 288 289 290 290 289
295 296 296 297 297 295 292 292 292 292 292 290 290 288 287 284 282 283 281 280 280 279 279 279 279 280 281 282 282 281 280 280 280 281 280 280 280 280 280 283 287 287 289 290
297 296 294 295 289 290 290 291 291 289 289 288 287 285 283 280 280 280 280 280 280 279 279 279 280 280 281 282 281 280 280 283 280 280 280 280 280 280 281 280 280 281 286 287
294 293 291 290 288 287 288 287 285 285 284 284 283 280 280 279 279 279 280 280 280 279 279 279 279 280 281 282 281 280 280 279 280 280 280 281 281 280 280 281 281 280 282 284
288 286 286 285 287 286 284 285 285 283 282 280 279 280 279 279 278 279 279 279 277 277 278 279 279 280 281 281 280 279 279 282 282 280 280 280 280 280 280 280 280 281 280 280
285 283 286 286 286 285 285 284 283 280 280 279 278 278 278 277 277 277 277 278 278 278 279 278 279 281 281 280 279 279 279 279 282 280 279 279 279 279 279 279 279 279 279 281
287 286 287 287 285 286 285 282 280 280 278 278 278 278 277 276 276 276 276 277 277 277 278 279 280 280 281 280 280 279 279 279 279 279 279 279 279 279 280 279 279 279 280 281
287 286 285 286 288 286 282 280 279 278 278 278 277 276 276 276 276 276 277 276 276 276 278 279 282 282 279 280 282 280 279 278 278 278 278 280 279 279 279 279 279 279 279 280
282 281 282 284 283 280 278 278 278 277 278 277 276 276 275 275 276 276 276 275 276 277 279 279 280 279 279 279 282 279 278 278 278 278 278 279 278 277 278 279 279 279 279 280
280 279 278 278 277 278 278 278 277 276 277 276 276 275 275 275 276 276 275 275 277 279 280 282 279 279 279 280 280 279 279 278 278 278 277 277 277 277 277 278 278 278 279 279
279 278 277 277 277 277 278 278 277 276 276 276 276 275 275 274 275 275 276 275 278 282 280 278 278 280 280 282 280 279 279 278 278 278 277 277 277 276 275 275 275 277 278 278
279 278 278 277 277 277 278 277 276 276 275 275 275 274 275 275 275 274 273 276 278 279 279 278 280 282 282 280 279 278 278 278 277 277 276 275 275 274 274 275 275 276 276 276
279 278 278 278 277 275 274 276 276 276 275 276 276 276 275 275 275 276 277 279 280 279 278 279 279 281 282 279 278 277 276 276 275 275 275 278 275 275 275 275 275 276 276 276
276 274 273 272 273 275 274 274 273 272 274 274 274 275 276 276 275 276 276 276 279 278 277 279 280 280 277 276 276 275 275 275 275 276 276 276 276 275 276 276 275 275 275 275
276 276 276 276 275 274 274 274 273 273 273 273 274 274 274 275 275 276 276 277 276 277 276 276 275 276 276 275 275 276 276 276 276 276 276 276 276 276 276 275 275 274 275 274
274 277 273 274 274 274 274 273 273 272 273 273 273 274 275 275 275 276 276 274 274 274 274 275 275 275 275 276 276 276 276 276 277 276 276 276 276 276 276 276 275 274 273 275

GFSNGP_sfc_thetae_003.txt.gz
Theta_e
292 293 292 292 292 292 292 291 288 289 290 294 294 294 296 299 298 299 298 297 297 296 297 298 298 297 296 296 296 297 296 296 296 296 295 295 295 297 297 298 299 299 298 298
287 291 290 288 290 290 291 292 291 292 292 298 298 296 298 297 298 298 296 296 297 300 297 295 294 294 294 293 292 293 292 292 293 292 292 292 293 293 294 294 295 295 295 298
282 288 289 287 290 290 289 290 290 287 292 295 295 298 298 298 298 297 295 297 298 296 295 295 293 292 289 289 290 289 289 290 289 289 289 290 290 290 290 290 291 291 293 293
282 285 279 290 294 295 292 294 294 293 294 296 297 297 298 298 297 294 297 296 295 293 292 292 290 289 288 289 287 287 287 285 286 286 286 287 287 287 287 288 288 289 290 290
282 282 287 291 293 292 291 291 294 293 295 297 296 294 292 297 297 296 295 295 293 292 291 289 288 287 286 285 284 284 283 283 284 284 284 285 284 284 285 286 286 286 287 289
277 278 279 289 293 296 294 286 296 296 296 296 295 291 291 296 297 297 297 295 293 291 291 288 286 284 283 282 280 280 282 283 283 284 283 283 283 283 284 284 285 286 285 286
283 281 285 293 295 296 284 286 297 298 298 298 294 294 294 296 295 294 293 292 291 289 286 284 283 281 280 280 279 281 283 283 283 283 282 283 283 283 283 283 283 283 283 285
284 280 279 295 295 290 293 295 296 296 299 297 297 297 296 294 292 292 291 289 288 286 283 283 282 280 279 278 280 281 282 282 282 282 283 283 282 282 282 282 281 281 282 284
288 286 294 295 295 295 296 295 293 293 295 296 296 296 295 293 292 291 289 287 285 282 281 282 281 280 278 279 280 281 280 280 281 281 282 282 281 281 281 281 281 281 282 282
290 292 292 295 293 295 295 294 295 294 295 296 296 295 294 294 291 291 288 285 283 282 281 281 281 280 279 279 281 280 279 280 280 280 281 281 282 282 281 280 280 281 282 282
290 293 293 294 294 294 293 294 293 292 292 292 292 290 289 290 291 288 285 283 283 280 279 280 279 279 280 281 280 280 279 280 280 280 280 280 281 280 280 282 283 282 283 283
287 293 292 292 295 294 293 293 293 291 289 289 289 290 290 290 286 284 282 282 281 280 280 279 278 278 279 280 280 279 279 280 280 280 280 280 279 279 284 286 287 287 287 286
292 293 294 294 293 292 291 291 291 290 288 289 291 290 288 285 282 282 281 280 279 279 279 279 278 278 280 280 280 279 278 279 279 280 279 278 278 279 278 282 286 286 286 287
293 293 291 290 290 288 289 289 291 290 290 291 288 286 284 280 280 280 279 279 278 278 278 278 278 279 280 280 280 279 279 283 280 279 279 279 279 279 280 279 279 280 284 285
290 291 291 289 287 287 289 289 287 287 286 284 284 282 280 279 278 278 278 278 278 278 277 278 278 279 280 280 280 279 279 279 279 279 280 281 280 280 279 279 279 279 280 282
286 284 282 285 287 289 287 286 285 284 284 283 280 278 278 278 277 277 277 277 276 276 277 277 278 279 280 280 279 278 278 282 282 280 279 279 279 279 279 278 278 278 279 279
284 282 284 286 285 288 286 287 287 286 283 279 277 277 277 277 276 276 276 277 277 277 278 278 278 279 279 279 278 279 279 279 282 279 278 279 279 278 278 278 278 279 279 280
285 284 285 286 286 288 287 287 284 281 278 278 277 277 276 275 274 275 276 276 276 276 277 278 278 279 279 279 279 279 279 279 279 278 279 278 278 279 278 278 278 278 278 280
286 285 283 286 286 285 284 279 279 278 277 277 276 276 275 275 275 275 275 275 274 274 276 278 281 281 279 279 281 279 279 278 278 278 278 280 278 278 278 278 277 278 278 278
282 281 281 283 284 282 279 278 277 276 276 276 276 275 274 274 275 275 275 274 276 276 278 278 279 278 278 278 281 279 278 278 278 279 278 278 278 277 277 278 278 278 277 277
281 279 277 277 277 277 277 276 276 275 276 276 275 275 274 275 275 275 274 274 276 278 279 281 278 278 278 279 280 279 279 278 278 278 277 277 277 277 277 277 277 276 276 277
280 278 277 277 276 276 276 276 276 276 276 275 275 275 274 273 273 273 275 274 277 280 279 278 278 279 279 282 280 279 278 278 278 278 277 277 277 276 275 274 274 275 276 275
280 278 277 276 275 275 276 276 276 276 275 275 274 274 274 274 275 273 273 276 277 278 278 277 279 281 282 279 279 278 277 276 276 276 275 275 275 274 274 274 274 275 274 275
280 279 277 277 276 275 274 275 275 276 275 275 275 275 275 274 275 275 275 278 279 278 277 278 278 281 281 277 276 275 275 275 275 274 275 277 275 274 274 275 275 275 275 275
277 273 271 272 274 275 273 272 271 271 273 273 274 274 275 275 274 275 275 275 278 277 276 278 279 279 276 275 275 275 274 274 274 275 276 276 276 275 276 275 275 275 275 275
276 277 276 275 276 275 274 274 272 272 273 272 273 273 273 274 274 275 274 276 275 276 274 274 274 275 275 275 274 275 275 275 275 275 276 275 275 275 275 275 275 275 274 272
274 277 273 274 274 274 273 273 272 272 273 272 272 273 273 274 274 275 275 273 273 273 273 274 274 275 275 275 275 275 274 274 275 275 275 275 275 275 275 275 275 274 273 272

GFSNGP_sfc_thetae_006.txt.gz
Theta_e
290 291 291 291 292 292 290 289 287 287 289 291 293 294 296 296 296 298 296 295 295 296 295 294 293 292 291 291 291 292 290 290 290 290 289 289 289 289 289 290 290 290 290 290
287 290 290 288 289 289 290 291 291 290 291 295 296 294 296 293 296 296 295 295 298 297 293 292 290 289 289 289 289 289 288 288 287 286 286 286 286 286 287 287 287 288 287 288
283 288 289 286 288 288 287 288 289 285 290 294 294 296 295 295 296 295 293 297 296 294 293 292 289 288 287 287 287 286 286 284 284 284 284 284 285 285 284 284 285 285 285 286
283 284 279 287 292 293 290 291 291 292 293 294 295 294 294 295 296 293 296 295 293 292 290 289 288 287 286 285 283 283 283 282 283 283 283 283 283 283 283 283 283 283 284 284
282 281 286 289 292 291 290 289 293 293 294 295 295 293 292 295 295 294 294 293 292 290 289 287 286 284 283 281 280 281 281 281 282 282 282 282 281 281 282 282 282 282 283 283
278 278 280 287 293 295 292 284 294 295 294 295 294 289 291 294 295 294 293 292 290 290 289 286 283 281 280 279 279 279 280 281 282 282 281 281 281 281 282 282 282 283 282 283
282 280 284 291 294 294 284 284 294 295 294 294 293 293 294 295 293 292 291 292 290 288 286 283 281 280 279 278 278 279 281 281 281 281 281 281 281 281 281 281 281 281 281 282
282 279 278 293 293 289 291 293 293 293 293 293 293 294 293 293 292 292 290 288 287 284 284 283 282 280 278 277 279 279 280 280 280 280 281 282 280 280 280 280 280 280 280 281
286 285 292 293 293 294 295 294 292 293 293 294 294 294 294 293 293 293 289 287 285 284 283 283 280 278 277 278 279 279 279 279 279 280 280 280 279 279 279 280 279 279 280 281
289 290 291 293 293 293 294 294 295 294 293 293 292 294 293 291 290 290 287 284 284 283 281 279 279 279 278 278 279 278 278 278 279 279 280 280 280 280 279 278 279 279 280 280
288 291 292 292 293 293 293 293 292 292 292 292 291 290 288 289 290 288 285 284 283 281 279 278 278 278 278 279 278 277 277 278 278 279 279 279 280 279 279 280 282 281 281 282
286 291 291 291 292 293 292 292 293 291 290 288 288 288 288 288 286 283 283 282 280 278 277 277 277 277 278 279 278 277 278 278 278 279 279 279 278 278 283 284 286 286 286 284
291 292 292 292 291 291 290 291 291 288 287 287 291 289 289 284 283 284 279 278 277 277 277 277 277 277 278 279 279 278 277 278 278 279 278 278 278 277 277 281 284 284 285 285
291 292 289 290 289 289 289 289 290 290 291 291 291 288 285 282 279 278 277 277 277 277 277 277 277 277 279 279 278 278 277 282 279 278 278 278 278 279 279 278 277 278 282 283
290 291 290 288 287 286 289 289 287 287 287 287 285 283 280 278 277 277 277 277 277 277 277 277 277 277 279 279 278 278 278 278 278 278 279 280 279 279 278 278 278 277 278 281
287 284 281 285 286 286 287 287 286 286 285 283 281 278 277 277 277 276 277 277 275 275 276 276 277 278 279 278 278 278 277 281 281 279 278 278 278 278 278 277 277 277 278 278
283 280 276 277 285 284 285 286 285 287 286 282 278 277 277 276 276 275 276 275 276 276 276 277 277 278 278 277 277 278 278 278 281 278 277 278 278 278 277 277 277 277 277 279
285 283 284 285 285 285 285 285 286 284 280 278 277 276 276 274 274 274 275 275 275 275 276 277 277 278 278 278 278 278 278 278 278 277 278 278 278 279 278 277 277 277 277 278
286 285 284 285 285 285 285 284 282 279 277 276 276 275 275 274 275 274 274 274 273 273 275 276 280 280 277 278 280 278 278 277 277 277 278 279 278 278 278 277 277 277 278 277
282 282 282 284 284 283 281 279 278 276 276 276 275 275 274 274 274 274 274 273 274 275 276 277 278 277 277 277 280 278 278 278 278 278 278 278 278 277 277 278 278 277 276 276
282 281 279 279 280 279 279 277 275 275 276 276 275 275 274 274 274 274 273 273 275 277 278 280 277 277 277 279 279 279 278 277 277 277 277 277 276 276 276 277 276 276 276 276
281 280 279 277 276 275 276 275 275 275 275 275 275 274 274 273 273 272 274 274 276 280 278 277 277 278 279 282 279 278 277 277 276 275 275 275 275 274 274 274 274 274 275 275
281 281 280 277 276 275 275 275 275 275 275 275 274 274 273 273 274 272 272 275 276 278 277 276 278 281 281 279 277 276 275 274 274 274 274 274 274 273 273 274 275 275 275 275
280 280 280 278 275 274 274 275 275 275 275 275 275 275 274 273 274 274 275 278 279 277 277 277 278 280 281 276 274 274 274 274 273 273 273 276 274 274 274 275 274 275 275 275
277 274 271 270 273 275 273 272 271 270 273 273 273 273 274 274 273 274 274 274 277 276 275 277 279 279 275 274 274 274 273 273 273 275 275 274 273 273 274 275 275 275 275 276
276 277 276 275 275 275 275 274 273 272 272 272 272 273 273 273 273 274 273 275 274 275 273 273 273 274 274 274 274 274 274 274 274 274 274 274 274 274 274 275 275 275 275 274
271 276 271 274 274 274 273 273 272 271 272 271 271 273 273 273 273 274 274 272 272 272 272 273 273 274 274 274 274 274 274 274 275 274 274 274 274 273 274 274 274 275 275 274

GFSNGP_sfc_thetae_009.txt.gz
Theta_e
288 290 291 291 291 290 288 287 286 286 287 289 290 292 294 296 296 297 297 294 296 296 294 293 291 289 288 288 288 288 287 286 285 285 285 284 284 284 285 285 285 285 285 285
284 288 288 286 288 291 290 290 289 289 289 293 294 293 296 295 294 295 295 294 296 295 292 290 289 288 287 286 286 285 285 283 284 283 283 283 283 283 283 283 283 283 283 283
281 286 286 283 287 287 287 288 289 286 289 293 294 295 294 295 294 296 294 295 296 293 292 290 287 287 285 285 283 282 282 282 282 282 282 282 282 282 281 281 282 281 282 282
282 284 280 287 292 292 290 291 291 294 294 295 295 294 294 294 295 294 294 295 293 291 289 287 286 285 284 284 282 281 281 281 281 281 281 281 281 280 280 281 281 281 281 282
284 282 285 288 291 290 290 290 294 294 295 295 294 292 292 294 294 293 293 293 291 290 288 285 284 285 283 280 279 279 280 280 280 280 280 280 280 279 280 280 280 280 281 281
281 280 281 288 293 295 293 286 293 294 294 293 293 287 290 292 293 293 292 291 289 288 287 286 284 281 280 280 279 278 279 279 280 280 280 279 279 279 280 280 280 281 281 281
284 282 285 291 293 294 284 284 292 293 293 291 290 293 294 294 292 292 291 290 288 288 286 283 282 281 280 280 277 278 279 279 280 280 279 279 279 279 280 279 280 279 279 280
283 281 281 292 292 289 290 292 293 292 292 292 293 293 293 293 291 291 288 288 287 284 284 282 283 282 280 277 278 278 279 279 279 278 279 281 278 278 279 278 278 278 278 279
286 285 291 291 292 293 294 293 292 292 293 293 293 293 293 292 291 290 288 285 284 283 282 282 282 280 277 277 278 278 277 277 277 278 278 278 277 278 278 278 278 277 278 279
288 289 290 291 292 293 294 293 294 293 292 292 291 292 292 291 290 288 285 283 283 283 281 281 280 278 277 277 278 277 276 276 277 277 279 279 278 278 278 277 277 278 279 280
288 289 290 291 291 292 293 292 291 291 291 290 289 288 288 288 289 287 285 284 283 281 280 277 277 277 277 277 277 277 276 277 277 277 277 277 278 278 278 279 280 280 280 280
286 290 290 290 292 292 291 291 291 290 289 288 287 287 287 288 289 286 284 283 281 278 276 276 276 276 277 278 277 276 277 277 277 278 277 278 278 277 282 283 285 285 285 283
291 291 291 292 291 290 290 289 289 288 287 286 287 288 289 286 284 284 281 278 277 276 276 276 276 276 277 278 278 277 276 277 277 278 277 277 277 277 276 280 283 284 284 284
290 292 290 289 288 287 288 289 290 289 288 288 290 289 287 283 282 279 277 277 277 277 276 276 276 276 277 277 277 277 276 281 278 277 277 277 277 278 278 277 277 277 281 282
290 290 289 288 287 286 286 288 288 287 288 288 288 286 282 280 277 277 277 277 277 276 276 276 276 277 278 277 278 277 277 277 277 278 278 279 278 278 278 277 277 277 278 280
284 282 283 284 285 284 283 284 286 286 287 286 282 280 278 277 276 276 276 276 275 275 275 276 276 277 277 277 276 277 277 280 280 278 278 278 277 277 277 277 277 277 277 277
283 283 280 275 278 282 283 284 288 287 284 283 280 278 276 276 276 275 275 275 275 275 275 276 276 277 277 277 276 277 277 277 280 278 277 277 277 277 277 277 277 277 276 278
285 282 282 283 284 284 284 285 284 284 283 282 277 276 275 274 274 274 274 275 274 274 275 276 276 277 277 277 277 277 277 277 277 277 277 277 277 278 278 277 277 276 276 278
285 286 283 283 283 284 284 284 284 283 278 277 275 275 275 274 274 274 274 273 273 272 274 275 279 279 276 277 279 277 277 276 276 277 278 279 278 278 277 277 277 277 277 277
284 282 283 283 283 283 283 282 280 277 276 275 275 274 274 274 274 274 273 273 274 274 275 276 276 276 276 276 280 277 277 277 277 277 277 277 276 276 276 276 276 276 276 276
282 282 281 280 280 281 281 280 277 276 276 275 275 274 274 274 274 274 272 272 274 276 277 279 276 276 276 278 279 278 277 276 276 276 275 274 274 274 274 275 275 275 275 275
280 280 280 279 277 276 276 276 275 275 275 275 275 274 273 273 273 272 273 273 275 279 277 276 276 278 278 281 278 277 276 275 274 274 273 273 273 273 273 273 273 274 275 275
279 280 280 279 278 276 275 274 274 274 274 274 274 274 273 273 273 272 272 274 275 277 277 276 278 280 281 278 276 275 274 273 273 273 273 273 272 272 273 273 274 275 274 274
279 280 280 280 277 274 274 274 274 275 274 275 275 275 274 273 273 274 274 277 278 277 276 276 277 280 280 276 274 273 273 273 273 272 272 275 273 273 273 273 273 274 274 274
276 273 271 270 272 275 273 271 270 270 273 273 273 273 274 274 272 273 273 273 276 276 274 277 278 278 274 273 273 273 273 272 272 273 274 273 272 272 273 273 273 273 274 275
276 277 277 276 275 275 274 274 273 272 272 272 272 272 272 273 272 273 272 274 273 274 272 272 272 273 273 273 273 273 273 273 273 273 274 273 272 273 273 273 273 273 274 274
270 275 271 274 274 274 273 273 272 272 271 271 271 272 272 272 272 273 273 271 271 271 271 272 272 273 273 273 273 273 273 273 274 274 274 273 273 273 273 273 273 273 274 274

GFSNGP_sfc_thetae_015.txt.gz
Theta_e
287 290 291 290 290 288 288 290 289 289 288 292 294 295 297 298 298 297 297 296 297 296 295 292 290 289 288 287 286 286 285 284 284 285 285 284 284 284 284 284 284 284 283 283
285 288 290 289 290 290 290 288 289 289 289 293 295 296 296 297 296 296 297 296 298 296 293 291 289 288 287 285 284 285 284 283 284 284 284 284 284 283 283 283 283 283 282 282
284 286 286 284 287 289 290 289 292 288 294 293 294 295 296 296 297 297 297 296 297 295 293 290 289 288 285 283 283 283 283 282 283 283 283 283 283 282 282 282 282 282 282 282
282 284 278 288 290 292 291 289 291 291 291 294 295 295 295 296 296 296 296 295 295 293 290 288 287 285 283 283 283 282 282 282 282 282 282 282 281 281 281 282 281 281 281 282
282 281 285 288 289 289 289 289 291 292 293 294 294 295 295 296 295 295 295 295 294 292 288 286 285 284 283 282 281 281 281 281 281 281 281 281 280 280 281 281 281 281 281 281
283 282 280 288 292 294 294 287 295 295 294 293 294 290 292 295 294 293 293 292 290 287 286 284 282 282 282 281 280 280 280 280 281 281 280 280 280 280 281 281 281 281 280 281
284 282 285 291 293 294 286 288 295 295 294 293 292 293 294 294 292 291 290 289 287 286 285 282 282 283 281 280 280 280 280 280 280 280 280 280 280 280 280 280 280 280 279 280
283 282 281 292 293 289 291 292 294 293 293 293 293 294 294 293 291 289 288 287 285 283 282 283 283 282 280 279 279 279 279 279 279 280 280 280 279 280 280 279 279 278 279 279
286 286 291 292 292 293 294 293 293 293 293 294 293 293 293 292 291 289 288 286 285 284 282 281 281 281 279 279 279 279 278 278 278 279 279 280 279 279 279 279 278 278 279 279
287 289 289 291 292 293 294 293 294 294 293 293 293 292 292 291 290 288 286 283 283 282 281 281 281 280 278 278 279 278 277 278 279 278 280 280 279 279 278 278 278 279 279 280
286 288 290 291 291 292 292 292 292 292 292 291 291 290 289 289 289 287 285 284 283 281 281 280 279 278 278 279 278 278 278 278 278 279 278 278 279 279 279 280 281 280 280 280
286 290 290 290 292 293 292 290 291 291 289 289 289 289 289 288 288 285 283 282 281 281 279 278 277 277 278 278 278 277 277 278 278 279 278 278 278 278 281 282 283 283 284 283
290 290 290 290 290 290 289 288 288 288 288 287 288 289 288 286 285 286 282 280 280 279 278 277 277 277 278 278 278 278 277 277 278 279 277 277 277 277 277 280 282 282 282 283
290 291 289 288 288 288 288 290 291 288 288 288 288 289 288 284 285 280 278 278 278 278 277 277 277 277 278 278 278 277 277 280 278 277 278 278 278 278 278 277 276 277 281 282
287 288 290 287 286 286 286 285 284 284 286 287 290 290 286 281 279 278 277 277 278 277 277 277 276 277 278 278 277 277 277 277 278 278 278 279 279 278 278 277 277 277 278 280
283 284 285 285 285 284 282 282 284 284 285 285 287 288 282 280 278 277 276 276 276 276 276 276 276 277 278 277 277 277 277 279 280 278 278 278 277 277 277 277 277 277 277 277
285 281 280 277 281 282 283 284 285 284 285 286 284 283 279 277 276 276 276 275 276 276 276 276 276 277 277 277 277 277 277 277 279 277 277 277 277 277 277 277 276 276 276 277
288 286 286 284 282 282 283 283 284 284 285 284 282 280 277 275 275 275 275 275 275 275 275 276 276 277 278 278 277 277 277 277 277 277 277 277 277 278 277 276 276 275 276 276
284 284 284 284 283 283 283 283 283 283 283 282 279 278 276 275 275 275 274 274 273 273 275 276 278 279 277 277 279 278 277 276 277 277 277 278 276 277 276 275 275 275 275 275
283 282 283 283 283 282 282 282 281 281 280 278 277 275 274 274 274 274 274 274 274 275 275 276 277 276 276 276 279 278 277 277 276 276 276 276 275 274 275 275 275 274 274 274
282 282 282 281 281 281 282 281 280 279 279 276 276 275 274 274 274 274 273 273 275 276 277 279 276 276 276 278 279 278 277 276 276 275 275 274 273 273 274 274 273 273 274 274
280 280 280 279 279 278 278 278 278 278 277 275 275 274 273 273 272 272 274 273 275 278 277 276 276 277 278 281 278 277 276 275 274 274 273 273 273 272 272 273 273 273 274 274
279 279 280 279 279 278 276 276 275 275 275 274 274 273 273 273 274 273 272 274 275 276 277 275 277 279 280 278 276 275 274 273 273 273 273 273 272 272 272 273 273 273 272 273
279 279 279 279 277 276 276 276 274 274 273 274 274 274 274 273 273 274 274 276 277 277 276 275 277 279 279 274 273 272 272 272 272 272 272 274 273 273 273 272 272 273 273 273
274 271 269 271 274 276 272 270 270 270 272 272 272 273 273 273 272 272 272 272 275 275 273 275 277 277 273 272 272 272 272 272 271 271 273 273 272 272 273 273 273 273 273 273
275 276 275 275 275 274 273 273 272 272 272 271 272 272 272 272 271 271 271 273 272 273 271 271 271 272 272 272 271 272 272 272 272 272 273 273 272 272 272 272 272 272 272 272
272 275 271 273 273 273 272 272 271 271 272 271 271 271 270 270 270 271 272 269 269 270 270 270 271 271 272 272 272 272 272 272 273 273 273 273 272 272 272 271 271 271 271 271

GFSNGP_sfc_thetae_018.txt.gz
Theta_e
295 296 297 296 295 295 295 297 294 297 295 300 302 303 305 305 304 304 304 304 304 304 303 301 298 296 295 293 291 290 289 289 288 288 288 288 288 288 288 288 287 287 287 287
292 294 296 293 296 297 298 299 298 298 297 303 303 303 302 304 304 303 304 303 304 304 303 300 297 295 293 291 289 289 288 287 287 287 287 287 287 287 287 287 287 287 286 286
291 292 292 290 295 295 296 298 298 294 300 301 299 300 302 303 303 303 304 303 303 303 301 298 296 295 292 290 288 287 287 286 286 286 286 286 286 286 286 286 286 286 286 285
291 290 284 296 296 300 298 299 300 300 299 301 302 303 302 304 303 303 302 302 303 302 299 296 294 292 290 288 287 286 286 285 285 285 285 285 285 285 286 286 285 285 285 285
288 288 292 292 293 294 295 296 299 299 298 300 300 301 299 300 301 301 302 302 302 301 297 294 292 290 289 287 285 285 285 285 285 285 284 284 284 285 285 285 285 284 284 284
290 285 285 293 296 298 299 292 299 300 299 298 300 296 298 299 299 299 299 300 298 295 293 293 290 289 287 284 284 284 284 284 285 285 284 284 284 284 285 285 284 284 283 284
290 288 291 295 297 299 290 293 299 300 300 299 298 299 299 298 297 297 297 295 294 292 292 290 288 286 284 283 284 284 284 284 284 284 284 284 284 284 284 284 283 283 283 283
290 288 286 298 296 294 298 300 301 301 301 299 298 298 298 297 295 294 293 292 292 291 289 288 287 285 283 283 284 284 284 284 284 284 284 284 284 284 283 283 282 282 282 282
293 293 295 297 297 298 302 299 298 299 299 299 298 297 298 296 295 294 293 291 291 290 288 285 284 285 284 284 284 283 283 283 283 284 284 284 283 282 282 282 281 281 281 281
292 293 294 296 297 299 300 298 299 299 299 299 298 298 297 297 296 294 292 291 290 289 286 284 285 283 284 283 283 283 282 283 283 283 283 283 283 282 281 281 281 281 281 281
291 293 295 296 298 298 297 298 297 298 298 298 298 296 296 296 295 294 292 290 289 289 287 285 283 283 283 283 283 282 282 283 282 282 282 282 282 282 281 282 282 281 281 282
295 298 299 298 298 299 297 297 298 296 295 295 296 295 295 295 295 293 290 289 288 287 285 283 282 282 282 283 282 282 281 282 282 282 282 281 281 281 283 283 284 284 284 283
298 299 297 299 298 298 297 296 296 296 296 294 293 294 294 293 293 291 289 287 286 284 283 282 282 281 282 282 282 281 281 281 281 281 280 280 280 280 279 282 283 283 283 283
297 296 293 296 295 296 295 295 294 294 294 293 293 294 293 291 291 288 286 285 284 283 282 282 281 281 282 282 281 281 281 281 281 280 281 280 280 280 280 279 278 279 282 283
296 294 298 295 294 292 293 292 290 290 291 291 293 292 291 288 287 286 284 283 282 282 281 281 281 281 282 281 281 281 281 280 280 281 281 281 280 280 279 279 279 279 280 281
290 291 292 291 290 289 289 289 289 289 290 290 290 290 290 288 286 284 282 282 281 280 281 280 280 281 281 281 281 281 281 280 280 280 280 280 279 279 279 279 278 278 278 278
288 286 286 285 286 289 289 290 290 290 290 289 289 289 286 284 283 281 281 281 281 281 281 280 280 281 281 281 281 280 280 280 280 280 279 279 279 278 279 279 278 278 277 278
296 295 294 292 290 288 288 289 289 289 289 289 289 288 285 282 283 281 280 280 280 280 280 281 281 281 282 281 280 280 280 279 279 279 279 279 279 279 278 278 277 277 277 278
293 292 290 289 289 289 289 288 289 289 289 288 287 286 285 283 282 281 280 279 279 279 281 280 279 281 280 280 280 280 280 279 279 279 279 279 278 278 277 277 277 277 277 276
288 288 288 287 288 288 288 288 288 288 287 287 286 284 282 281 280 279 279 279 280 281 280 280 281 280 280 279 280 280 280 279 279 278 278 278 277 277 277 276 276 276 275 275
286 287 287 287 287 287 287 287 287 286 285 283 282 282 281 280 279 279 278 278 280 279 280 280 280 280 279 280 281 281 279 278 277 277 276 276 276 276 276 275 275 275 274 275
285 285 285 284 284 283 284 284 285 283 282 281 280 280 278 278 278 278 278 279 280 279 279 280 279 279 280 281 280 279 278 277 276 276 276 276 275 275 275 275 274 275 275 275
285 284 284 284 284 284 282 281 281 281 280 279 278 278 278 279 279 278 277 278 279 278 279 279 279 279 280 279 278 277 276 275 275 275 275 275 275 275 275 274 275 275 274 274
283 283 283 283 282 282 282 279 279 278 278 277 277 278 278 277 277 278 278 277 277 277 278 277 278 278 279 277 276 275 275 275 275 275 275 276 275 275 275 274 274 274 274 275
282 280 279 280 281 281 278 276 276 276 277 276 276 276 276 276 276 276 276 275 275 276 275 276 277 277 275 275 275 275 275 275 275 275 275 275 274 274 274 274 274 274 274 274
280 280 280 280 280 279 278 278 277 277 276 275 275 276 275 275 275 275 274 274 274 274 274 274 274 275 275 274 274 274 275 275 274 274 274 274 274 274 274 273 273 273 273 273
278 278 277 277 277 277 277 277 276 275 276 275 274 274 273 273 273 273 273 272 273 272 273 273 274 274 274 274 274 274 274 274 274 274 274 274 273 273 273 273 272 272 273 272

GFSNGP_sfc_thetae_021.txt.gz
Theta_e
297 298 299 298 298 299 298 300 295 298 297 301 303 305 306 307 307 307 307 307 307 307 306 305 302 300 299 297 294 293 291 290 290 290 289 289 289 289 289 288 288 289 288 288
294 297 298 295 298 299 299 300 299 299 299 307 307 307 306 306 306 306 306 306 307 307 307 304 301 299 297 294 292 292 290 289 289 288 288 288 288 288 288 288 288 288 288 287
291 295 295 291 296 297 298 300 300 296 302 307 302 303 304 306 306 306 306 306 306 307 306 304 301 298 295 293 291 290 289 288 287 287 287 287 287 287 287 287 287 287 287 287
292 293 285 297 299 301 299 300 302 303 304 304 304 305 306 307 306 306 306 306 306 307 305 302 300 297 294 291 290 288 287 287 287 286 286 286 286 286 287 287 286 286 286 286
290 290 295 297 295 296 297 298 303 302 303 303 304 302 300 303 305 305 305 306 306 306 302 299 296 293 291 289 287 287 286 286 286 286 285 285 285 285 286 286 285 285 285 285
292 287 286 294 298 300 302 293 304 304 303 302 301 297 299 301 302 302 303 304 303 301 297 295 293 292 290 288 286 286 286 285 286 286 285 285 285 285 286 285 285 285 284 285
291 290 295 297 299 301 291 294 300 303 303 302 300 302 301 301 300 301 300 298 297 296 295 292 291 291 288 286 285 285 285 285 285 286 285 285 285 285 285 285 284 284 283 284
292 290 287 300 298 294 299 302 302 303 303 302 300 299 299 298 297 297 295 294 295 294 291 291 290 289 286 285 285 285 285 285 285 285 285 285 285 285 284 284 283 282 282 282
297 296 298 300 300 301 304 303 303 302 302 301 299 298 298 297 296 295 294 293 294 292 290 289 287 287 285 285 285 285 284 284 284 285 285 285 284 283 283 283 282 281 281 281
294 296 297 298 299 301 304 302 302 302 301 300 298 299 298 297 296 295 294 293 293 291 289 286 286 285 285 285 284 284 284 284 284 284 284 284 284 284 282 281 281 281 281 281
294 295 296 298 300 301 301 301 300 301 301 300 299 298 298 298 297 296 294 293 292 291 289 287 286 284 284 284 284 283 283 283 284 284 283 283 283 282 282 282 283 281 281 281
295 300 300 299 300 301 299 298 299 298 298 299 299 298 298 298 298 296 293 292 291 291 289 285 284 284 284 284 283 283 282 283 283 283 283 282 282 281 285 285 285 285 285 283
300 302 301 301 301 302 300 300 300 299 298 296 297 297 298 296 296 295 293 291 289 287 286 284 284 283 284 284 283 282 281 282 282 282 281 281 281 280 279 282 284 284 284 284
300 300 298 299 297 300 299 298 298 297 297 296 296 296 295 295 293 291 289 289 288 285 284 284 283 283 284 283 283 282 282 283 282 281 281 281 281 280 280 279 278 279 283 283
299 298 300 301 299 297 297 295 294 293 294 294 295 294 292 291 290 289 288 286 284 284 283 282 282 282 283 283 282 281 281 281 281 281 281 281 281 280 280 279 279 279 280 281
295 296 297 295 293 293 293 293 292 291 292 292 292 292 291 291 290 287 285 284 282 281 282 282 282 283 283 282 281 282 282 282 282 281 280 280 280 279 279 279 279 278 278 278
290 288 287 287 289 291 292 292 292 291 291 291 291 291 289 288 286 284 283 283 283 282 282 282 282 282 282 282 281 281 281 281 282 280 280 280 279 279 279 279 278 278 277 279
299 296 296 294 293 292 291 291 291 291 291 291 290 290 288 286 285 284 283 282 281 281 281 282 282 282 282 282 281 280 280 280 280 280 280 279 279 279 278 278 278 277 277 278
297 296 296 294 292 291 290 290 291 291 290 290 289 288 288 287 286 285 282 281 280 280 282 282 280 281 281 281 281 280 280 280 280 280 279 279 278 278 278 277 277 277 277 276
291 291 291 290 291 290 289 290 291 290 290 289 289 288 286 285 284 281 281 280 281 282 281 281 281 281 280 280 281 280 280 280 279 278 278 278 277 277 277 277 277 276 276 276
289 289 288 288 288 289 290 290 289 288 287 287 286 285 284 283 281 281 279 279 281 280 281 280 280 280 280 280 281 280 280 279 278 277 276 276 276 276 276 276 276 275 275 275
289 288 287 287 287 286 287 287 287 286 284 283 282 283 281 280 280 279 280 280 280 279 280 280 280 280 280 281 280 279 278 277 276 276 276 276 276 275 275 275 275 275 275 275
287 287 286 286 286 284 284 284 283 283 282 282 281 280 280 280 280 279 278 279 280 279 279 279 280 280 280 279 278 278 276 276 276 276 276 276 276 275 275 275 275 275 274 274
285 286 285 285 285 285 283 281 280 280 279 279 279 279 279 278 278 279 278 278 278 278 278 278 278 279 279 277 276 276 276 276 276 276 276 277 276 276 275 274 274 274 274 274
284 283 283 283 284 282 280 279 278 278 278 278 278 278 278 278 278 277 277 276 276 276 276 277 277 277 276 276 276 275 275 275 276 276 275 275 274 274 274 274 274 274 274 274
284 283 283 283 282 281 279 280 279 279 278 277 277 277 276 276 276 276 275 275 275 275 274 275 275 275 275 275 275 275 275 275 275 275 275 274 274 274 274 273 273 273 273 273
281 281 279 279 279 279 280 279 278 277 278 277 275 275 274 274 274 274 274 274 274 274 274 274 274 275 275 275 274 274 274 274 275 274 274 274 273 273 273 272 272 273 272 272

GFSNGP_sfc_thetae_024.txt.gz
Theta_e
295 297 297 296 296 296 295 295 289 292 292 295 298 298 299 300 302 303 303 303 303 302 300 298 297 295 293 291 290 289 288 287 286 286 286 285 285 285 285 285 285 285 285 284
292 297 297 295 297 297 297 297 296 296 294 301 298 301 300 299 301 302 303 303 303 303 300 297 295 293 292 290 288 288 287 286 286 286 285 285 285 284 284 284 283 284 283 283
288 293 292 288 293 297 298 299 298 294 298 301 298 300 300 300 301 302 302 302 303 302 300 298 295 293 289 288 288 286 286 285 286 285 285 284 284 283 282 282 282 282 282 282
290 288 280 293 295 298 296 297 299 299 299 299 299 299 299 301 301 301 302 303 302 302 299 296 294 292 288 287 286 286 285 286 286 284 283 283 282 281 281 281 281 280 281 281
287 286 291 292 293 293 294 294 299 298 300 298 298 297 295 299 300 300 301 301 301 300 296 293 290 288 287 285 285 285 285 284 284 283 282 282 281 280 280 280 280 280 281 281
284 282 282 290 294 297 297 288 297 299 298 297 297 290 292 297 299 299 300 299 297 295 293 291 288 287 285 284 283 283 283 283 282 282 281 280 280 280 280 280 281 282 281 280
288 286 289 294 294 297 287 289 297 298 299 298 294 295 297 298 297 297 296 294 294 292 290 287 288 287 284 283 282 282 283 283 282 282 281 280 280 280 280 279 280 279 279 279
290 287 284 296 294 291 295 296 297 298 298 296 296 296 296 296 295 293 292 292 292 288 287 287 287 285 283 281 282 282 282 282 281 280 282 283 279 279 279 278 278 277 277 279
293 293 297 297 297 297 300 298 298 297 297 297 296 294 294 293 292 292 291 291 290 288 286 284 284 283 281 280 282 282 280 280 280 281 281 280 279 278 278 278 277 277 278 278
292 292 294 296 296 296 299 298 298 298 298 297 295 295 294 293 291 291 290 289 289 286 284 282 282 282 281 282 282 280 279 279 280 279 280 279 280 279 277 276 277 278 278 278
290 292 294 295 296 298 298 298 298 298 297 296 296 294 294 292 292 291 290 290 288 286 284 282 281 281 281 281 280 278 278 278 279 279 278 278 278 277 277 278 280 280 279 279
291 296 295 294 297 298 297 296 297 296 295 296 295 294 294 293 292 291 289 288 288 286 283 281 281 280 281 281 280 279 277 278 278 278 278 278 277 278 283 284 285 285 285 283
296 297 298 298 298 298 296 296 296 295 295 294 294 294 294 292 291 293 288 288 286 283 281 281 280 279 280 281 280 279 277 277 277 278 277 276 277 277 276 280 284 284 284 284
298 298 294 295 294 296 296 296 297 294 293 293 293 293 292 290 290 287 286 285 283 281 281 280 279 279 280 280 279 278 277 282 278 277 277 277 277 277 277 276 276 277 281 283
295 295 296 296 295 293 292 292 290 290 291 291 291 290 290 288 286 285 283 282 281 280 279 279 278 279 280 280 278 277 277 277 277 277 277 279 278 277 277 277 276 276 277 279
291 292 293 292 290 289 289 289 289 288 289 289 288 287 287 286 284 282 280 280 278 277 278 278 278 279 280 279 277 277 277 282 281 277 277 276 276 277 277 276 276 276 276 276
289 287 288 287 288 289 288 288 289 288 288 287 287 286 285 283 281 280 279 279 278 278 278 277 277 278 279 278 277 277 276 276 281 277 276 276 277 276 276 276 276 276 275 277
293 291 291 291 290 288 287 288 288 288 287 287 287 285 283 281 280 278 278 277 277 277 277 277 278 278 278 278 277 276 276 276 276 276 276 276 276 277 276 276 275 275 275 276
294 293 292 290 289 288 288 287 287 287 287 287 285 284 284 282 281 279 277 276 276 276 276 277 281 279 277 278 279 276 276 276 276 276 276 278 275 275 275 275 275 275 275 275
292 291 289 288 288 288 287 287 287 286 286 285 284 283 281 280 278 277 277 276 276 276 277 278 277 277 277 277 280 277 276 276 275 274 274 275 274 274 275 276 275 275 274 274
288 288 287 287 286 287 287 287 286 284 283 283 283 281 280 278 277 277 276 275 275 278 278 280 277 276 276 278 278 276 276 275 274 273 273 273 273 273 274 274 274 274 274 274
287 286 285 285 284 283 283 283 283 281 280 279 279 278 277 275 275 275 276 275 276 281 277 276 276 279 277 281 276 275 274 274 273 272 272 272 273 272 272 273 273 274 274 274
286 285 284 282 281 280 280 280 280 280 279 278 277 276 276 276 276 275 274 276 276 278 276 275 279 280 280 275 274 274 273 273 273 272 271 270 272 272 273 274 273 273 273 273
284 282 281 281 281 279 277 277 277 276 276 277 277 277 276 275 275 275 276 277 278 277 275 275 277 279 280 273 272 272 272 272 271 270 272 276 271 272 273 273 272 273 273 273
281 279 279 280 279 278 276 275 275 275 275 274 274 275 275 275 274 273 273 273 276 275 273 276 278 278 273 272 272 272 271 270 267 270 271 269 272 272 272 273 273 272 273 271
280 280 279 279 278 277 276 276 275 275 275 274 273 273 273 273 273 272 272 274 272 274 271 272 272 273 272 272 272 272 272 271 272 271 274 273 272 272 271 271 271 271 271 271
278 279 276 276 277 277 276 276 275 274 275 274 272 272 272 272 272 272 273 271 271 271 271 271 271 272 272 272 272 271 271 271 273 273 272 270 270 270 270 270 270 271 270 270

GFSNGP_sfc_thetae_027.txt.gz
Theta_e
292 292 295 295 295 295 293 294 291 289 291 293 294 295 297 300 301 301 301 301 301 299 298 297 294 292 290 288 288 287 286 285 285 285 284 284 284 284 284 284 284 284 283 283
292 297 295 294 296 296 296 296 295 294 292 295 296 296 296 299 301 301 301 301 301 300 298 295 293 291 289 287 287 287 285 285 285 285 284 284 283 283 283 283 282 282 281 281
286 294 294 289 294 295 295 295 296 292 295 295 296 298 297 297 301 301 301 300 301 300 298 295 292 290 287 286 286 285 284 284 285 286 284 283 283 282 281 281 280 280 280 280
288 287 281 292 294 298 298 298 298 298 299 296 296 295 296 296 300 301 301 301 301 299 297 294 291 289 286 286 284 284 284 285 285 284 283 282 281 280 279 279 279 279 279 279
284 283 288 291 292 291 292 292 297 299 298 296 296 295 294 297 298 299 301 301 299 297 293 291 288 287 285 284 284 284 283 283 283 282 281 281 279 278 279 279 278 278 279 279
282 281 281 288 293 294 294 287 294 294 296 296 295 290 291 295 297 296 297 296 293 291 289 287 286 286 284 282 282 283 282 282 282 282 280 279 278 278 279 278 279 280 279 278
286 284 287 294 294 295 285 287 295 295 296 296 293 293 294 295 293 293 292 291 291 289 287 286 285 284 283 282 281 282 282 282 282 281 279 279 279 278 278 278 278 277 276 276
287 286 282 294 292 288 292 294 295 294 294 293 294 295 294 293 291 292 290 289 288 287 286 285 284 283 281 279 281 281 282 281 280 279 280 281 278 278 277 277 276 275 275 276
292 291 296 295 294 296 298 296 294 294 294 294 293 292 292 290 290 290 289 287 287 285 283 282 282 281 280 280 281 280 280 279 279 280 279 279 277 277 276 276 275 276 276 277
292 294 293 295 294 296 297 296 295 296 295 294 292 292 290 290 290 289 288 286 285 283 282 280 280 281 280 280 281 279 278 278 278 278 280 278 278 277 275 275 275 278 278 278
290 290 292 293 294 296 296 296 296 296 296 294 293 291 291 290 289 288 288 286 285 283 281 279 279 279 279 280 279 278 277 277 277 278 277 277 277 276 276 277 279 279 279 279
291 295 294 294 296 297 296 296 296 295 293 294 294 292 291 290 289 288 287 286 284 282 280 279 279 279 279 280 279 278 277 277 277 277 276 276 275 276 282 283 284 284 284 282
295 296 295 296 296 296 295 294 295 295 295 293 293 293 292 290 288 291 287 286 283 281 279 279 279 279 279 279 278 278 276 276 276 277 275 274 275 276 275 278 283 283 283 283
296 297 294 294 293 295 295 295 295 293 293 293 292 292 291 289 288 285 285 283 281 280 279 278 278 278 279 279 278 277 276 281 277 276 276 275 275 276 276 276 275 276 280 281
294 295 296 294 293 292 292 292 290 290 290 289 290 289 288 285 284 283 281 280 280 279 278 278 278 277 279 278 278 277 277 276 276 276 276 278 277 276 276 276 276 275 276 278
291 292 293 291 290 289 289 289 289 288 288 287 287 286 285 283 281 280 279 279 278 277 277 277 277 278 278 277 277 277 276 280 280 277 276 276 276 276 276 276 275 275 275 275
290 287 288 288 288 288 288 288 289 289 288 287 285 284 282 280 279 278 278 278 278 277 277 277 277 278 278 278 277 276 275 276 281 275 275 276 276 276 275 275 274 274 274 276
292 291 292 291 289 287 286 287 288 288 287 285 284 282 280 279 278 277 277 276 276 276 276 276 277 277 277 277 277 276 276 275 276 275 276 276 275 276 275 274 274 274 274 276
292 291 291 288 288 287 287 286 287 287 286 285 282 281 281 280 278 277 276 275 275 275 275 277 281 278 276 278 278 276 276 275 275 275 275 277 274 274 274 274 274 274 274 274
292 291 289 288 288 288 287 287 286 285 284 283 282 281 279 277 277 276 276 274 275 276 277 277 276 275 275 277 281 276 275 274 274 273 273 274 273 273 273 275 274 274 274 274
288 288 287 287 286 287 286 285 285 284 282 283 282 280 278 276 277 276 275 274 275 278 278 279 276 275 276 278 277 275 274 273 273 272 272 272 272 272 273 273 273 274 274 274
287 287 286 286 285 283 283 283 282 281 280 279 278 277 276 275 275 275 275 275 276 280 276 275 275 279 277 280 275 274 273 272 272 271 271 271 272 271 271 272 273 273 273 272
286 285 284 283 282 280 280 279 279 278 277 277 277 276 276 276 276 275 274 276 275 278 274 274 278 280 280 274 273 273 272 272 272 271 271 270 271 270 272 272 272 272 271 272
284 282 280 280 279 278 276 275 276 276 276 276 276 277 276 274 274 274 276 278 279 276 274 275 277 279 277 272 271 271 271 271 270 268 270 274 269 270 269 271 271 272 271 272
281 280 279 278 277 275 275 275 274 274 274 274 274 274 274 274 274 272 272 273 276 274 272 275 277 277 272 271 271 271 270 268 266 270 271 270 270 271 271 271 270 270 271 270
281 280 278 278 277 276 276 276 274 274 274 273 272 272 272 272 273 271 271 273 272 273 270 271 271 272 271 271 271 271 270 270 270 270 272 271 270 269 269 269 269 269 269 270
278 279 276 276 276 276 276 276 275 274 274 273 271 271 271 271 272 271 272 270 270 270 270 270 270 271 272 271 271 270 269 269 271 271 270 268 268 268 268 268 269 269 270 270

GFSNGP_sfc_thetae_030.txt.gz
Theta_e
287 288 290 292 291 292 288 289 284 287 289 294 293 293 296 298 299 299 299 300 299 298 296 293 292 290 288 287 286 286 285 285 284 283 283 283 283 283 283 283 282 282 282 281
288 295 292 291 293 293 292 291 288 295 294 297 294 294 295 297 299 299 299 300 299 298 295 293 291 289 288 286 286 286 285 284 284 284 284 284 283 282 282 281 281 281 280 280
287 293 292 287 289 294 291 296 298 293 295 296 294 295 296 297 299 299 300 300 299 298 296 294 290 288 286 286 285 284 284 284 284 285 284 282 282 281 280 279 279 279 279 278
288 287 281 291 293 298 297 298 298 297 295 295 296 294 295 295 299 300 300 300 299 298 295 292 289 287 285 285 284 283 283 283 285 284 282 281 280 279 279 279 278 278 278 278
284 282 287 290 291 291 294 293 297 297 295 294 295 295 294 295 297 299 300 301 299 297 292 289 287 286 285 283 283 283 283 283 283 282 280 280 279 278 278 278 277 277 278 277
282 279 280 287 291 293 293 287 293 294 294 294 294 292 292 292 295 296 296 295 293 290 289 287 285 285 284 282 282 282 283 282 281 281 280 279 278 278 278 277 277 278 277 276
284 283 286 293 292 294 285 286 293 294 295 295 294 292 293 291 290 291 290 289 289 288 286 284 284 284 282 281 281 281 281 281 281 280 279 278 278 277 277 277 277 275 275 275
288 282 280 294 292 288 291 293 294 293 293 292 293 292 291 290 289 289 287 287 287 285 284 283 283 283 280 279 280 281 281 280 279 278 280 280 277 277 276 276 275 274 274 275
289 289 294 293 293 295 296 295 293 292 294 294 292 291 290 289 288 287 286 286 286 284 282 281 281 281 279 278 280 279 279 278 278 278 278 277 276 276 275 275 274 274 276 277
292 294 292 293 294 296 296 294 293 294 294 294 290 290 289 288 286 285 285 284 284 283 281 279 279 280 279 279 279 278 277 277 277 277 278 276 277 276 274 274 274 277 278 277
290 290 291 292 293 294 294 295 294 294 293 292 291 289 289 287 286 285 284 283 283 281 279 278 278 278 278 279 278 277 277 277 276 277 276 276 276 275 275 276 278 278 278 278
291 295 294 293 295 296 295 294 294 293 291 291 291 290 289 287 287 285 283 283 281 280 278 277 278 278 278 278 278 277 277 277 277 277 275 276 274 274 280 282 283 283 283 282
296 296 294 295 295 296 294 294 294 293 293 291 290 290 289 287 286 288 284 282 281 280 278 278 277 277 278 278 278 277 275 276 276 276 274 274 274 274 274 278 282 282 282 282
297 297 294 294 293 294 294 294 294 293 292 292 290 290 289 288 287 284 283 282 280 278 277 277 277 277 278 278 277 276 276 281 277 275 275 275 275 275 275 275 274 275 279 280
294 294 295 294 293 292 293 293 291 290 289 288 289 288 287 284 283 282 280 279 279 278 278 278 277 277 278 277 277 276 276 276 276 276 276 278 276 275 275 275 275 274 275 277
290 292 293 291 290 290 290 289 289 288 288 287 286 285 283 282 280 278 278 278 278 277 277 277 277 277 277 277 277 276 276 280 280 276 275 275 275 275 275 274 274 274 274 274
290 286 287 287 288 288 289 289 289 288 287 288 285 283 280 279 278 277 277 278 277 277 277 276 276 277 277 277 276 276 275 275 280 275 275 275 275 274 274 274 273 273 274 275
293 292 292 292 289 287 287 287 287 288 287 286 283 281 279 278 277 276 275 276 275 275 276 276 276 277 277 277 277 276 276 275 276 275 275 275 274 274 273 273 273 273 274 275
291 290 289 288 288 287 287 286 287 287 286 284 281 279 279 278 277 276 275 275 275 274 275 277 281 278 276 278 278 276 275 275 274 274 274 275 273 273 273 273 273 273 273 273
289 288 288 287 289 288 286 288 287 285 284 281 280 279 277 277 276 276 275 274 275 275 275 277 276 275 276 277 280 275 274 273 273 272 272 273 272 272 272 274 274 273 273 273
287 288 288 287 286 287 287 287 286 283 281 281 280 278 277 275 276 276 275 274 275 278 277 279 276 275 276 277 275 273 273 272 271 271 271 271 271 271 272 272 272 273 272 273
288 287 286 286 285 283 284 283 282 281 280 279 277 276 276 274 274 274 275 275 276 280 276 275 275 278 278 277 273 272 272 271 271 271 270 270 270 270 270 271 271 271 272 271
286 286 285 284 283 280 280 279 279 279 277 277 276 275 275 275 276 275 273 275 276 277 274 274 278 280 278 272 272 271 271 271 271 270 269 268 269 268 269 269 271 271 270 271
284 283 281 280 280 279 276 275 276 275 276 276 276 276 276 274 273 274 277 279 278 275 274 275 276 278 276 271 270 270 270 270 268 267 268 273 268 268 269 270 269 269 269 270
281 279 279 278 277 275 274 274 274 274 273 273 273 274 274 274 273 272 272 273 277 272 271 276 276 276 270 270 270 270 269 267 265 268 269 268 269 269 268 268 268 269 270 269
280 279 278 277 276 276 275 275 274 274 273 272 272 272 272 272 273 271 271 272 271 273 270 270 271 271 270 270 270 269 269 268 269 269 270 268 268 267 267 268 268 268 269 269
278 279 276 275 276 275 275 275 274 274 273 272 270 270 271 271 272 271 271 269 269 269 269 269 269 271 271 270 269 269 268 268 270 270 268 266 267 267 268 268 268 269 270 270

GFSNGP_sfc_thetae_033.txt.gz
Theta_e
287 288 289 288 286 286 284 285 282 285 285 289 293 294 296 298 298 298 299 298 297 295 292 290 288 287 286 286 285 285 284 284 283 283 283 282 283 282 282 281 281 281 280 280
285 290 289 287 289 288 289 287 288 290 288 295 296 298 296 297 298 298 298 298 297 296 291 290 289 287 286 285 285 285 284 283 283 283 283 284 283 281 280 280 280 279 279 278
284 289 289 285 290 288 290 291 289 286 292 295 294 295 296 297 299 299 299 298 297 295 293 291 289 287 286 285 285 284 283 283 283 284 284 283 282 280 280 278 278 278 278 278
286 287 281 290 296 295 292 293 295 294 296 297 298 295 296 297 299 299 299 299 297 296 293 290 288 287 285 285 284 283 282 283 284 284 283 281 279 278 278 277 277 277 277 277
286 281 287 289 293 292 290 290 296 295 297 296 295 296 294 296 298 299 300 299 298 295 291 288 286 286 285 283 282 282 282 282 283 283 280 279 278 277 277 277 277 276 277 276
286 279 279 287 291 294 294 288 297 298 296 294 294 292 295 295 296 297 298 297 293 290 288 286 285 285 284 282 282 281 281 283 282 280 279 278 277 277 277 276 277 277 276 276
284 284 286 291 293 293 284 286 293 294 294 294 294 294 291 291 290 293 293 290 289 288 287 284 284 284 282 281 280 281 281 280 279 278 278 278 277 277 276 275 276 274 275 275
288 282 279 293 292 287 291 292 292 292 293 291 290 289 289 288 288 288 287 287 286 284 283 283 284 283 281 280 280 280 280 279 278 277 279 279 276 275 275 275 274 274 274 275
288 287 293 293 293 295 295 294 292 292 293 291 289 288 287 286 285 285 285 285 285 283 282 281 281 282 280 278 279 279 278 277 277 278 277 277 275 275 274 274 274 274 276 276
291 291 291 293 294 295 295 293 293 293 293 292 288 287 285 285 285 284 284 283 284 283 281 278 279 279 279 278 279 277 276 276 276 276 277 275 277 276 274 274 274 277 277 277
289 291 293 292 293 294 293 293 293 292 293 291 290 288 286 285 284 283 283 283 283 282 280 277 278 278 278 278 278 276 276 276 276 277 275 275 275 274 274 275 278 278 277 277
291 295 294 292 295 295 294 293 293 292 290 291 291 288 287 284 284 283 282 281 280 279 278 277 277 277 277 277 277 276 276 277 277 276 274 275 274 274 280 282 283 283 283 281
297 296 294 294 295 295 294 293 293 292 291 289 288 288 286 284 283 286 281 280 279 278 277 277 276 276 277 277 277 277 275 276 276 275 274 273 273 275 274 277 281 282 282 282
295 295 293 293 292 294 294 293 293 290 290 289 288 288 287 285 284 282 281 280 278 278 277 277 276 276 277 277 277 276 276 281 276 274 274 274 275 275 274 274 274 274 278 280
293 294 295 294 293 292 293 292 290 288 288 287 287 287 285 283 282 280 279 278 278 277 277 277 277 276 277 277 277 276 276 276 276 276 275 277 275 275 274 274 274 273 274 276
290 291 292 291 290 290 290 289 288 287 287 286 285 284 282 281 279 278 277 278 278 276 276 276 276 276 277 277 276 276 276 280 279 276 275 275 275 274 274 273 272 272 273 273
290 286 287 287 288 288 289 289 289 288 286 285 284 283 280 278 277 277 277 277 277 276 276 276 276 277 277 277 276 275 275 275 279 275 274 275 274 274 273 273 273 273 273 275
292 292 292 292 289 287 286 287 288 288 287 284 283 280 279 278 276 276 275 275 275 275 275 276 276 277 277 276 276 275 275 275 275 274 274 273 273 273 272 273 272 272 273 274
291 291 290 289 289 288 287 286 286 286 285 283 280 278 277 276 276 275 275 275 274 274 274 277 281 277 275 279 277 275 274 273 273 273 273 274 272 272 272 272 272 273 272 273
287 288 288 287 288 287 286 286 286 284 283 280 279 277 276 275 275 275 275 273 274 275 276 276 275 275 275 277 279 274 273 272 271 271 271 272 271 272 272 273 273 272 272 272
286 287 287 287 285 286 285 285 284 282 280 280 279 277 276 275 275 275 274 274 275 278 277 278 275 275 275 276 274 272 272 271 270 270 270 270 270 270 271 271 271 271 271 272
286 285 285 286 284 283 284 284 282 281 279 277 277 276 275 274 274 274 275 275 276 279 275 274 275 279 277 276 272 271 271 270 270 270 269 269 269 269 269 269 269 270 271 270
286 286 285 284 283 281 281 281 280 279 277 276 276 275 275 275 275 275 273 276 275 277 274 274 279 280 277 271 271 271 270 270 270 269 268 267 268 266 267 268 269 269 268 269
284 282 282 282 282 281 277 276 276 276 276 276 276 276 275 274 274 275 277 279 279 275 274 275 277 278 275 270 270 269 269 269 267 265 267 272 266 267 268 268 268 268 268 269
281 281 281 279 277 275 274 274 274 274 274 273 273 274 274 274 273 272 273 274 276 272 271 276 276 275 270 269 269 269 268 266 264 266 267 266 267 267 267 267 267 268 270 269
281 279 278 278 276 275 275 275 273 273 273 272 271 271 271 272 273 270 271 272 271 273 269 269 270 271 270 269 269 268 268 267 268 267 269 267 267 266 266 267 267 267 268 269
278 278 275 275 275 275 275 274 274 273 273 272 270 270 270 271 272 270 271 269 269 269 269 269 268 270 270 270 268 268 267 267 269 269 267 265 265 265 267 267 268 268 269 269

GFSNGP_sfc_thetae_036.txt.gz
Theta_e
287 288 288 287 287 286 284 284 279 282 283 288 291 293 291 296 298 299 296 295 294 291 289 288 286 285 285 285 285 284 284 283 282 282 282 281 281 281 281 281 280 280 279 279
285 289 289 286 288 288 287 287 285 285 284 293 295 291 293 294 297 299 297 296 294 292 289 287 286 285 285 284 284 285 284 282 282 282 282 282 281 281 281 280 279 278 278 278
283 289 288 285 287 288 288 289 288 283 288 293 293 296 295 295 298 299 298 297 294 291 290 288 286 286 285 284 284 284 283 282 282 282 282 281 282 281 279 278 277 277 277 277
284 287 280 290 295 294 290 291 291 290 292 295 296 297 297 299 298 299 299 297 295 292 290 288 286 286 284 284 284 283 282 282 283 282 281 281 281 279 277 277 276 276 276 276
285 284 286 288 292 291 287 289 294 293 294 295 297 294 294 296 299 299 299 298 295 293 289 287 286 285 284 283 282 282 281 281 281 281 281 280 278 277 276 276 276 275 276 275
286 283 279 287 290 296 296 289 297 296 295 295 293 289 292 295 297 298 298 297 293 289 288 286 285 285 284 282 282 281 281 281 281 281 280 278 277 276 276 275 277 277 276 275
287 284 286 292 293 295 284 286 294 297 297 297 293 294 292 294 294 296 294 291 289 288 287 284 285 285 282 281 281 281 281 280 281 280 277 277 276 276 275 275 275 274 275 275
286 284 279 294 292 288 290 291 293 292 293 296 290 290 290 290 289 289 288 288 287 284 283 284 284 284 281 280 279 280 279 280 279 277 279 278 275 275 274 274 273 273 274 275
288 287 293 293 294 295 295 294 291 291 291 290 288 287 287 286 286 286 285 285 285 283 281 281 282 284 281 277 279 278 278 277 277 277 276 276 275 274 273 274 273 273 275 276
290 291 292 292 293 294 294 293 292 292 291 290 286 286 284 285 284 284 284 283 283 283 281 279 279 280 279 278 278 277 276 276 276 277 275 275 277 276 273 273 273 276 276 276
290 292 292 293 292 292 292 293 292 292 290 288 287 285 285 284 283 283 283 284 283 281 279 277 278 278 278 277 277 276 276 276 276 276 274 274 275 274 274 275 277 277 277 277
289 296 293 292 293 293 292 291 291 290 289 289 288 286 285 283 284 283 281 281 280 279 278 277 277 276 276 277 277 276 276 277 277 275 273 275 273 273 280 282 283 283 283 281
295 294 294 294 294 294 292 292 292 290 289 287 287 286 285 282 282 285 280 280 279 277 277 277 276 276 276 277 277 276 275 276 275 275 273 272 273 274 273 277 281 281 281 281
294 295 293 294 293 293 293 292 292 289 289 288 286 286 285 283 282 281 279 278 278 277 277 276 276 276 276 276 276 276 277 281 275 274 274 274 274 274 274 273 273 273 278 279
292 294 295 294 293 291 291 291 289 287 287 286 286 284 283 281 280 278 277 278 278 277 276 277 276 275 276 277 277 276 276 276 275 275 275 277 275 274 274 273 273 272 273 275
290 291 292 292 290 290 290 289 287 286 286 285 284 282 281 279 278 277 277 278 277 276 276 276 276 276 276 276 276 275 275 280 279 275 274 274 274 273 273 272 271 272 272 273
290 287 288 288 289 289 289 289 288 287 285 284 282 282 280 278 277 277 276 276 276 276 276 276 275 277 277 276 275 275 274 275 279 274 273 273 273 273 272 272 272 272 272 274
291 292 293 293 290 288 287 287 287 287 285 284 283 281 279 278 276 275 275 275 275 274 275 275 276 277 276 276 275 275 274 274 274 273 273 272 273 272 272 272 272 272 272 273
291 290 290 290 290 289 288 286 285 284 284 283 281 278 277 276 276 275 274 274 274 274 274 277 281 277 276 279 276 274 273 272 272 271 271 274 271 272 272 272 272 272 271 272
288 289 289 288 289 288 286 285 285 283 283 281 279 277 275 275 275 275 275 273 274 275 276 276 275 275 276 278 277 273 272 271 270 270 270 271 270 271 271 272 272 271 271 271
286 287 286 286 284 285 285 285 283 281 280 280 278 276 275 275 275 275 275 274 275 278 277 278 275 275 276 275 273 271 271 270 270 269 269 269 269 269 270 270 270 270 270 271
285 285 285 285 284 283 283 283 281 280 279 277 277 276 275 274 274 274 275 275 276 279 275 274 275 279 276 275 271 271 270 270 269 269 268 268 268 268 268 268 268 269 270 269
285 285 285 284 283 281 281 281 280 279 277 277 276 276 275 275 275 275 273 276 275 277 274 275 279 280 277 270 270 270 269 269 269 268 267 266 267 266 266 267 268 269 267 268
285 284 282 282 281 280 277 276 276 276 276 276 276 276 275 274 274 275 277 279 279 276 274 275 277 278 275 269 269 269 269 268 266 265 266 271 265 266 266 267 267 267 267 268
282 282 282 281 279 276 275 275 274 274 274 273 273 274 274 273 274 272 273 274 277 272 271 276 277 275 269 268 269 268 267 265 264 266 266 265 266 265 266 266 266 267 269 269
281 280 279 279 277 276 276 276 274 273 273 271 271 271 271 272 273 270 271 272 271 272 269 269 270 270 269 268 269 268 267 266 267 266 268 266 266 265 265 266 266 267 267 268
278 279 276 275 275 275 275 275 274 273 273 272 270 270 270 270 271 270 271 269 269 269 268 268 267 269 269 269 268 267 266 266 268 268 265 264 264 264 265 266 267 267 268 268

GFSNGP_sfc_thetae_039.txt.gz
Theta_e
286 287 288 286 286 286 283 284 281 284 283 287 290 292 293 296 299 298 294 293 292 291 290 289 288 288 287 286 286 287 286 286 285 285 285 285 284 284 284 284 284 284 283 282
285 289 289 286 289 288 288 287 285 286 285 292 292 295 295 296 298 298 295 293 291 290 289 288 288 287 287 286 286 287 286 284 285 284 284 284 284 284 284 283 283 282 282 281
282 288 288 286 289 288 288 289 288 284 288 292 291 293 295 297 299 300 296 293 291 289 289 288 287 287 286 286 286 286 285 284 284 284 284 283 283 283 283 282 282 281 281 281
284 287 279 290 295 295 290 291 292 291 291 293 294 296 297 298 299 300 297 294 291 291 288 287 287 287 286 286 286 285 284 284 284 284 283 283 283 282 281 281 281 281 280 280
284 284 287 289 290 292 289 290 294 292 293 293 295 296 294 298 300 300 298 295 293 291 288 287 287 287 286 285 285 284 284 283 283 283 282 282 281 281 281 280 280 280 280 279
285 283 280 287 291 296 294 288 295 294 294 295 295 291 292 295 299 299 297 295 291 289 288 287 286 286 285 284 284 283 283 283 283 283 282 281 280 280 280 280 280 280 279 280
285 284 285 292 292 295 285 289 294 297 297 297 295 293 292 295 295 296 295 292 290 289 288 286 286 286 284 284 283 282 282 282 282 282 281 280 280 279 279 279 279 278 279 280
287 284 280 293 291 288 291 294 295 295 297 298 291 291 290 290 290 290 289 289 288 286 285 286 286 286 284 282 282 282 282 281 281 281 281 279 279 278 278 278 278 278 278 280
287 287 293 294 294 295 295 294 294 293 294 295 290 289 289 288 287 287 287 286 286 285 283 284 285 285 282 281 281 281 281 280 279 279 279 279 278 278 278 278 277 278 279 279
290 292 292 294 294 294 293 293 292 292 291 290 287 287 285 285 285 285 285 284 284 284 282 281 284 283 281 281 281 280 279 279 279 279 278 278 279 278 278 278 278 279 279 279
290 293 293 293 294 292 292 293 291 290 289 287 287 285 285 283 283 283 284 284 284 282 280 279 280 280 280 280 280 278 278 279 279 278 278 277 278 278 279 279 280 280 280 279
290 295 293 292 294 294 292 291 290 289 287 288 287 284 284 283 284 283 282 282 280 280 279 278 279 278 278 279 279 279 278 279 278 278 277 278 277 277 280 282 282 282 282 281
295 293 293 293 294 294 292 290 290 288 287 285 285 285 284 282 282 284 281 281 280 278 278 278 278 277 278 278 279 278 277 278 279 277 276 276 276 277 275 278 280 280 281 281
294 294 292 294 293 293 292 291 290 288 287 286 285 285 284 282 282 280 279 279 279 278 278 278 277 277 277 278 279 279 279 280 277 277 277 277 277 276 276 275 274 275 278 279
292 294 295 294 293 291 291 290 288 286 286 285 285 283 283 281 279 278 278 279 278 278 277 277 277 276 278 278 278 277 278 278 277 277 277 278 276 275 275 275 274 273 274 276
291 292 293 291 290 290 290 289 287 285 285 284 283 281 280 279 278 278 278 279 278 276 277 277 276 277 278 277 277 277 278 281 279 276 276 275 275 274 274 273 273 273 273 274
289 288 288 288 289 289 290 290 288 286 284 283 280 280 279 278 278 277 277 277 277 276 277 277 276 277 277 277 276 276 276 276 278 275 274 274 274 274 273 273 273 273 273 274
292 293 293 293 291 288 287 287 286 285 283 282 281 280 279 279 277 276 275 276 276 275 276 276 277 277 277 277 277 276 275 275 274 273 273 273 274 273 273 273 273 272 273 273
290 291 291 290 290 288 287 286 285 284 283 282 281 278 278 277 276 275 275 275 275 274 275 278 281 278 277 279 276 275 274 273 272 272 272 274 272 273 272 272 272 272 272 272
288 288 289 288 289 287 285 285 284 283 282 280 278 277 275 275 275 275 275 274 275 276 277 277 276 276 277 278 276 273 273 272 272 271 271 272 271 272 272 272 272 271 271 271
286 287 286 286 285 285 285 284 283 281 280 280 279 277 275 275 275 276 275 275 276 278 277 278 276 276 276 275 273 272 272 271 271 270 270 270 270 270 270 270 270 270 270 271
285 285 284 284 283 282 283 283 282 280 279 277 276 276 275 274 274 274 275 275 277 280 276 275 276 278 276 275 272 272 271 271 270 270 270 269 269 269 269 269 269 269 270 270
284 284 284 283 282 280 281 280 280 279 278 277 276 276 275 275 276 275 273 276 276 278 275 276 280 279 276 271 271 271 270 270 269 269 269 268 268 268 268 268 269 270 269 269
284 284 282 281 281 279 276 277 277 277 276 276 276 276 276 274 274 275 277 279 280 277 275 276 278 277 274 270 270 270 269 269 268 267 268 271 268 267 267 268 267 268 268 269
282 282 282 281 279 277 276 276 275 274 274 274 273 274 274 275 274 273 274 276 278 273 272 277 277 274 269 269 269 269 268 267 266 268 268 267 267 267 267 267 267 267 270 270
282 282 281 280 278 277 277 277 274 274 274 272 271 272 272 274 274 271 272 272 271 272 269 269 270 270 269 269 269 268 268 268 268 267 269 268 267 266 266 266 267 267 268 268
279 280 278 277 277 276 276 275 275 274 274 273 270 270 271 271 272 271 271 269 269 268 268 268 267 270 270 270 268 268 267 267 268 268 268 266 266 265 266 266 267 267 268 268

GFSNGP_sfc_thetae_042.txt.gz
Theta_e
288 289 289 289 287 287 285 285 282 287 287 291 293 293 295 296 299 301 300 298 299 300 301 298 293 291 290 289 289 290 289 290 291 291 291 290 289 290 290 290 289 288 287 287
285 290 290 287 291 291 291 290 287 287 287 295 297 297 296 298 298 299 300 296 297 297 295 291 290 288 288 288 288 289 289 288 290 289 289 289 289 289 289 288 287 287 286 286
283 290 289 288 291 291 291 290 290 285 291 296 295 296 295 297 299 300 299 296 295 293 291 290 289 289 287 288 289 288 289 289 289 289 288 288 288 288 287 287 287 286 285 285
284 287 282 292 297 295 293 293 293 293 295 296 296 296 299 300 300 302 299 296 294 291 290 290 290 290 289 289 291 290 289 289 289 288 287 287 287 287 286 286 286 285 285 285
284 284 289 292 294 293 291 291 298 296 297 298 298 299 296 300 304 302 299 297 294 292 291 291 291 291 291 291 290 290 288 287 287 287 286 287 286 285 285 285 285 285 285 284
286 281 282 292 296 297 297 290 296 297 298 297 299 296 294 298 301 299 299 297 294 294 293 292 292 292 291 289 289 287 287 286 287 287 286 286 284 285 285 285 285 285 284 284
284 283 289 297 296 299 288 290 296 297 299 299 298 296 297 300 300 299 296 295 294 293 292 291 291 291 289 288 287 287 286 285 285 285 284 285 285 285 285 284 284 284 283 284
285 285 283 298 298 293 296 298 297 297 299 299 296 295 294 295 294 294 292 291 290 288 288 289 290 289 287 284 284 284 284 283 283 283 284 285 285 284 284 284 283 283 283 283
292 292 299 299 299 301 299 298 297 296 297 298 294 293 293 292 291 291 290 290 291 290 289 290 289 287 283 283 283 283 283 283 283 284 284 284 284 284 284 283 282 282 282 282
294 299 299 300 299 298 296 296 295 294 296 298 295 291 289 288 289 289 290 289 289 289 288 286 285 284 283 283 283 283 283 284 284 284 283 284 284 284 283 283 282 281 281 281
296 299 301 299 298 297 295 294 293 292 293 293 292 292 291 289 288 288 288 288 289 287 286 284 283 282 283 283 284 284 284 284 284 284 283 283 283 283 283 283 283 281 281 281
296 299 299 297 296 296 295 292 292 291 290 291 291 289 289 287 287 287 286 286 285 285 284 283 282 282 283 285 285 284 283 283 283 283 283 282 282 282 281 281 282 282 282 281
300 299 297 297 297 296 293 292 291 290 290 288 288 288 287 286 286 287 285 285 284 283 283 283 283 282 283 284 285 284 284 283 282 282 282 281 281 280 279 281 280 280 280 281
300 299 296 297 296 295 293 291 290 289 289 288 287 287 286 285 285 284 283 283 283 283 283 283 282 281 283 284 284 283 283 282 282 282 281 281 280 279 279 278 277 278 280 280
298 298 298 296 293 291 292 290 288 287 286 286 287 286 285 284 282 282 283 283 283 282 282 282 281 281 283 284 283 283 282 282 282 281 281 280 279 278 278 277 277 277 278 279
295 295 295 293 291 290 290 290 288 286 286 286 285 284 283 283 282 282 282 282 282 280 281 281 280 281 283 283 282 283 283 281 280 280 279 278 278 278 277 277 277 277 277 277
293 290 290 290 290 290 290 289 290 287 286 285 283 282 282 281 281 281 281 282 281 281 281 281 280 281 282 282 282 281 280 280 278 278 277 277 277 277 276 276 276 276 276 277
296 296 296 296 293 292 290 290 288 287 285 283 283 283 282 282 280 280 280 280 280 280 280 281 281 281 281 281 281 280 279 278 277 277 276 277 277 276 276 276 275 275 276 276
295 295 296 295 293 292 290 288 287 286 284 284 283 282 282 281 280 279 280 280 279 278 279 281 281 281 281 280 279 279 278 277 276 276 276 276 276 276 276 275 275 275 275 274
292 294 294 292 292 290 288 287 286 285 284 283 282 281 279 279 279 279 280 279 280 281 282 281 282 281 280 279 278 277 277 276 276 275 275 275 275 275 275 274 274 274 274 274
291 291 290 290 289 288 287 287 285 283 283 283 282 280 279 279 279 279 279 278 279 280 280 280 281 280 279 278 277 277 276 276 275 275 274 274 274 274 274 273 273 273 273 273
290 289 288 287 287 286 287 286 284 283 282 281 280 279 278 278 278 278 280 279 280 281 280 280 280 279 278 276 276 276 275 274 274 274 274 274 273 273 273 273 273 273 273 274
288 288 287 286 285 284 284 283 283 282 280 280 279 279 279 279 280 278 276 280 280 280 280 281 280 278 276 276 275 275 274 274 273 273 273 274 273 273 273 272 273 273 273 273
286 287 285 284 284 282 281 281 281 281 280 279 279 279 279 278 278 280 280 280 281 280 280 281 279 277 274 275 274 274 274 273 273 273 273 274 273 272 272 272 272 272 272 272
284 283 283 283 282 280 279 279 279 279 278 278 278 278 279 280 279 278 279 280 280 278 278 279 277 274 274 274 274 273 273 273 273 274 273 272 272 272 272 272 271 272 272 273
284 283 283 283 281 280 279 280 278 278 277 276 276 277 277 278 278 277 277 276 275 275 274 274 274 273 273 273 273 273 272 273 272 272 272 272 272 271 271 271 271 271 271 272
281 281 280 279 280 280 280 279 278 277 277 276 274 275 275 275 275 275 275 273 273 272 272 272 272 272 273 273 272 272 272 272 272 272 272 271 271 271 270 270 270 271 271 271

GFSNGP_sfc_thetae_045.txt.gz
Theta_e
289 289 290 289 289 290 286 286 282 286 287 292 295 296 297 298 298 298 301 303 302 303 304 305 305 303 299 298 297 295 295 293 291 292 292 293 292 292 291 291 290 290 288 288
285 290 291 290 292 293 292 291 290 290 288 296 298 299 297 297 297 298 299 299 299 301 301 298 295 294 293 292 291 292 292 291 291 291 292 291 291 290 290 289 289 288 287 287
283 290 290 288 293 293 292 293 291 287 293 297 295 296 296 297 298 299 300 297 297 298 295 292 290 290 289 290 290 290 290 289 290 291 290 290 290 289 288 288 288 287 287 286
285 289 282 293 299 297 294 294 296 296 296 297 298 299 299 298 301 300 298 296 295 293 292 289 289 289 290 291 289 290 289 289 289 290 289 289 289 288 287 287 287 287 286 286
284 284 288 292 296 293 292 292 296 297 299 300 300 299 297 300 302 300 298 295 293 291 290 289 289 290 291 290 289 289 288 289 290 289 288 288 287 286 286 286 286 286 285 285
286 281 280 293 297 298 299 290 299 297 299 300 302 292 294 299 300 297 293 292 290 291 290 290 291 292 291 290 290 289 289 289 289 289 288 286 286 286 286 286 285 285 285 285
283 283 288 297 299 301 289 291 298 297 298 301 296 296 299 299 297 297 293 292 292 292 291 291 292 292 291 291 289 289 289 288 287 287 286 286 286 286 286 285 285 285 284 285
287 284 282 300 300 294 298 300 299 298 298 297 298 297 296 297 295 294 293 294 295 293 293 294 294 292 289 287 287 286 285 285 284 285 286 286 285 285 284 284 284 284 284 284
291 291 300 302 301 303 302 300 300 298 299 297 295 293 294 294 293 291 289 288 289 289 289 289 288 287 283 283 284 284 283 283 284 285 285 286 285 284 284 284 283 282 282 282
295 300 301 303 305 301 299 299 298 296 299 300 295 296 294 293 291 291 293 292 291 290 288 285 285 284 283 283 284 284 283 284 285 284 284 284 284 284 284 283 282 281 281 281
297 300 303 300 300 299 297 296 295 295 297 300 294 292 291 290 290 291 291 291 291 289 285 283 283 282 283 284 285 284 284 284 284 284 284 283 283 283 283 283 282 281 281 280
295 301 301 299 299 299 297 293 294 294 294 297 296 293 292 291 291 290 290 290 286 284 282 282 282 282 284 286 286 285 283 284 284 284 283 283 283 283 283 282 282 282 282 281
301 302 300 299 299 298 295 293 293 293 293 292 292 292 291 289 289 289 288 286 284 282 282 282 283 283 285 286 286 285 284 283 283 283 283 282 281 280 279 282 283 282 281 281
304 301 299 299 298 296 293 291 292 291 291 291 290 290 289 288 288 287 285 283 283 283 283 283 283 283 285 286 285 284 283 284 283 282 282 281 280 279 279 278 277 278 281 281
301 301 300 299 296 294 292 291 289 288 288 288 288 288 287 285 284 284 284 284 283 283 283 283 282 283 285 285 284 284 283 283 282 281 281 280 279 279 278 278 277 277 278 280
298 298 297 295 292 291 290 290 288 288 288 287 287 286 285 284 283 283 283 284 282 281 282 282 282 283 284 284 284 284 282 281 281 280 279 278 278 278 277 277 277 277 277 277
295 292 292 290 290 290 290 290 289 288 287 286 284 284 283 282 283 283 283 283 282 282 282 282 282 283 283 283 283 282 281 280 279 279 278 277 277 277 277 277 276 276 276 278
300 300 297 295 293 290 290 290 290 288 286 285 284 284 283 283 281 281 281 281 281 281 282 282 282 282 282 282 281 280 280 279 278 277 277 277 277 277 276 276 276 276 276 277
297 297 297 298 296 294 290 290 289 287 286 285 285 285 284 282 281 281 281 281 280 279 280 282 283 282 281 280 280 279 278 277 277 277 276 277 277 276 276 276 275 275 275 275
295 297 298 297 297 294 291 289 287 286 286 286 283 282 281 281 281 281 282 281 281 281 282 282 283 281 280 279 279 278 277 277 276 276 276 276 276 275 275 276 275 274 274 274
293 294 294 293 292 292 290 288 287 285 284 284 283 281 280 281 281 281 279 278 280 282 282 282 281 280 279 278 278 277 277 276 276 275 275 275 275 275 274 274 274 274 274 274
292 292 291 290 289 288 288 287 286 284 284 283 282 281 280 280 280 281 282 279 281 282 281 281 280 280 278 277 277 276 276 275 275 275 274 274 274 274 274 274 274 274 274 274
291 291 290 289 288 287 287 286 285 284 282 281 281 280 280 280 281 279 277 281 281 281 281 281 280 279 277 276 276 275 275 274 274 274 274 275 274 274 274 273 273 273 273 273
289 289 288 287 286 285 283 283 283 283 282 281 281 281 281 279 280 282 282 282 282 282 281 280 279 277 276 275 275 275 274 274 274 275 274 276 274 274 273 273 272 273 273 273
287 285 285 284 284 283 282 281 281 280 280 280 280 281 281 282 280 280 281 281 282 280 279 280 278 275 275 274 274 274 274 274 274 274 274 273 273 273 273 272 272 272 272 273
285 285 285 285 282 282 281 282 280 280 279 278 278 279 279 280 280 280 279 279 278 278 275 275 275 274 274 274 274 273 273 274 273 273 273 273 273 272 272 272 271 271 272 272
284 283 282 281 281 282 282 281 279 279 279 278 276 278 278 278 278 277 277 275 274 273 273 273 273 273 273 273 273 273 273 273 274 273 273 272 271 271 271 271 271 271 271 271

GFSNGP_sfc_thetae_048.txt.gz
Theta_e
287 288 288 287 286 287 285 285 282 284 286 291 294 295 295 297 298 298 298 300 299 299 301 304 304 302 298 296 293 292 291 292 291 291 291 291 290 290 289 290 288 287 285 286
281 288 288 285 288 289 289 290 289 290 290 296 298 296 296 297 298 298 298 298 298 299 301 298 296 295 295 292 291 291 292 292 291 290 290 290 289 289 288 286 286 286 285 285
281 288 288 284 289 290 292 294 293 288 293 297 295 297 296 297 298 299 298 298 299 298 293 291 292 291 291 290 292 292 291 290 290 289 289 289 288 287 286 285 285 285 284 283
280 284 278 289 297 296 292 295 296 295 297 299 298 297 297 299 299 297 298 298 297 293 290 290 290 290 290 290 291 290 290 289 289 289 288 287 287 286 285 285 284 283 284 284
282 282 286 290 294 291 291 292 297 295 298 299 299 299 295 298 296 296 294 293 291 290 289 289 289 290 290 290 289 289 288 288 288 288 287 286 285 284 283 282 284 284 284 283
283 279 277 288 294 297 297 288 298 297 297 298 296 293 293 295 292 291 290 290 288 289 289 290 290 290 289 288 288 287 288 288 288 288 286 284 282 283 285 284 283 283 282 281
283 282 284 292 297 299 288 289 297 298 297 295 292 296 297 294 292 291 291 290 291 291 290 291 292 292 290 289 288 289 289 288 286 285 284 284 285 284 284 282 281 280 280 280
284 282 278 296 296 292 296 298 300 298 298 296 295 295 294 293 291 291 291 291 291 290 290 293 293 291 287 286 286 285 284 284 284 285 286 285 283 281 281 280 279 279 279 279
287 286 294 297 297 299 299 297 297 296 297 297 294 293 292 290 289 288 288 289 290 288 286 287 287 285 281 281 283 284 283 283 284 284 283 282 281 280 280 280 279 278 278 277
291 295 295 297 299 297 296 295 295 294 297 298 295 294 291 292 291 289 289 288 288 287 285 284 284 284 283 283 284 284 283 282 282 281 281 280 281 280 279 278 277 277 276 276
292 295 296 297 296 296 295 294 294 293 296 298 295 292 291 290 291 291 290 289 287 284 282 281 282 282 283 284 285 283 282 281 281 281 280 279 279 278 277 278 278 277 276 276
291 297 296 293 295 296 294 292 293 293 294 294 293 291 291 290 290 289 287 284 283 282 282 282 282 283 284 285 284 282 281 280 280 279 279 278 277 277 283 282 282 282 282 280
296 297 296 296 295 294 292 291 292 292 292 292 292 291 291 289 287 288 284 283 282 282 282 283 283 283 285 284 282 281 279 278 279 279 277 276 276 275 274 277 283 283 283 282
299 298 295 295 292 291 291 290 291 291 290 289 289 289 288 287 286 284 283 282 282 282 282 283 283 282 283 283 281 280 280 284 277 277 276 276 275 274 274 274 273 274 279 281
298 298 297 294 292 290 289 289 287 286 286 286 288 287 286 284 281 282 283 283 283 282 282 282 281 280 282 282 280 279 278 277 276 276 276 276 275 275 274 274 273 273 274 277
295 295 293 291 289 289 288 289 287 286 285 286 285 284 283 282 282 282 282 283 281 279 280 280 279 280 281 281 279 278 278 282 279 275 275 274 274 274 274 273 273 273 273 274
292 288 288 287 288 288 289 289 288 287 286 285 283 282 282 281 281 280 280 281 280 279 279 279 278 279 280 279 278 277 276 276 279 275 274 274 274 274 274 273 273 273 273 275
296 294 294 293 291 290 289 289 288 287 284 283 283 282 281 280 279 278 279 279 279 278 278 278 279 279 278 278 277 276 275 274 274 273 274 274 274 274 273 274 273 273 273 275
294 296 296 295 293 292 290 289 287 285 284 284 283 282 281 280 279 279 279 278 277 277 277 279 283 278 276 279 277 275 274 274 273 273 274 275 273 273 273 273 273 273 272 274
294 296 297 295 294 291 289 288 285 284 284 284 282 280 279 279 279 279 279 277 277 278 279 280 278 276 276 277 278 274 273 273 273 272 273 272 272 272 272 274 274 273 273 273
292 293 293 292 291 290 287 286 285 284 283 283 281 280 279 279 279 279 277 277 278 281 280 281 277 275 275 276 275 273 273 272 272 271 271 271 272 272 272 272 273 273 273 273
290 290 290 289 288 287 286 285 284 283 282 281 280 279 279 278 278 277 278 277 278 283 278 276 276 278 276 278 273 273 272 272 271 271 270 271 271 270 269 269 269 271 272 270
289 289 288 287 285 285 285 284 284 283 281 280 279 279 279 279 278 276 275 278 278 281 277 276 280 280 279 272 272 272 272 271 271 271 269 267 268 266 267 268 269 269 268 269
287 287 286 285 284 283 282 281 281 281 281 280 280 280 279 278 277 278 280 282 283 280 277 277 278 278 277 272 271 271 271 271 268 267 269 274 266 266 267 267 267 268 269 270
281 280 280 280 280 280 280 280 279 279 278 278 278 279 279 279 277 277 278 279 283 278 276 280 278 277 271 271 271 270 269 267 264 266 267 266 266 266 266 267 267 268 269 268
282 282 281 281 279 280 280 280 278 279 278 277 278 278 278 279 279 278 278 278 277 278 274 273 272 272 271 271 271 270 269 268 269 268 269 266 266 266 266 267 267 268 269 268
279 281 278 279 279 279 280 280 279 279 279 278 277 277 278 277 277 276 277 274 272 272 271 271 271 272 271 271 270 269 268 268 271 269 266 265 265 265 267 267 267 269 269 269

GFSNGP_sfc_thetae_051.txt.gz
Theta_e
285 287 287 285 284 285 280 284 281 284 284 288 292 295 297 299 297 299 300 300 301 300 298 299 296 296 294 294 293 293 292 293 292 293 293 292 291 291 290 290 289 288 287 287
279 286 287 284 286 286 287 287 287 287 287 295 298 298 298 297 298 298 299 299 299 298 296 294 293 293 293 294 294 294 291 291 292 291 291 290 289 289 288 287 286 286 286 285
277 286 285 280 286 287 287 290 291 287 293 298 298 297 295 296 297 297 298 299 298 290 289 289 291 292 291 292 293 291 290 290 289 289 289 288 288 287 286 285 285 284 284 283
277 282 277 287 293 294 290 293 296 296 297 298 298 297 296 294 295 293 293 295 291 289 288 289 289 290 291 291 290 289 289 289 289 288 288 287 287 286 285 285 284 284 284 284
280 280 283 290 293 291 289 290 298 296 297 299 297 298 294 291 290 289 288 288 288 288 288 289 289 290 289 288 288 288 287 287 287 288 287 286 285 284 284 284 284 284 284 283
282 276 276 289 293 295 296 288 297 298 297 296 294 293 292 291 289 288 288 288 288 289 289 289 289 289 288 288 287 286 287 286 287 287 286 285 285 285 285 284 284 283 282 281
282 279 283 290 294 297 285 286 296 298 299 295 293 294 291 292 290 290 290 290 291 291 289 289 290 289 288 287 286 287 289 288 288 287 286 285 285 284 284 283 282 280 279 279
284 281 276 293 294 290 294 295 297 297 297 294 294 292 291 291 290 290 289 289 289 288 287 290 291 290 287 286 286 287 287 286 285 285 285 285 283 281 281 280 278 278 279 278
285 284 291 293 295 295 296 294 293 296 296 295 293 290 289 289 290 290 290 289 289 288 289 290 289 289 286 285 285 285 284 284 284 284 283 281 279 279 278 279 278 277 277 276
290 294 294 295 294 295 294 292 292 294 296 297 293 292 290 289 288 288 288 286 287 286 284 283 283 284 283 284 284 284 283 283 282 280 279 279 280 279 278 277 276 276 276 275
291 294 293 294 295 293 292 292 292 292 295 297 294 292 291 290 289 288 288 287 287 285 283 282 283 283 284 285 284 283 281 280 280 280 279 278 278 277 277 277 277 276 276 276
290 297 296 293 293 293 291 291 291 293 292 295 293 291 292 291 291 289 287 285 284 283 282 282 283 283 284 285 284 281 279 279 279 278 277 276 276 276 283 283 283 283 282 280
295 296 295 294 292 292 290 290 291 292 292 291 292 292 291 287 285 287 284 283 282 282 282 283 283 283 284 284 282 280 278 278 279 277 275 275 274 274 273 276 282 283 283 283
299 297 293 292 291 290 290 290 291 289 290 289 289 290 289 286 285 284 283 282 283 283 283 283 283 282 281 282 280 279 279 282 277 276 275 274 274 274 273 273 272 273 278 281
296 296 295 292 289 288 288 287 286 286 286 286 287 287 285 284 283 282 283 283 283 283 282 282 281 280 281 281 279 278 277 276 275 275 275 276 274 274 273 273 273 272 273 276
293 292 291 289 287 287 286 286 285 285 285 284 284 283 282 282 282 282 282 282 281 280 281 280 279 279 280 279 278 277 278 281 277 274 274 274 274 274 273 273 272 272 272 273
294 290 287 285 286 287 287 287 287 286 285 284 282 282 282 282 281 281 281 281 281 279 278 279 278 279 279 278 277 276 275 276 279 274 273 274 274 273 273 273 272 272 272 275
294 296 294 291 289 288 288 288 288 286 284 283 282 282 280 280 279 279 279 279 278 277 278 277 278 277 277 277 276 275 274 274 274 273 273 274 274 273 273 273 272 272 272 274
295 295 294 293 291 290 289 287 286 284 283 283 282 280 280 279 279 278 279 278 277 276 276 279 282 278 276 278 275 274 273 273 273 272 273 275 272 272 272 272 272 272 272 273
293 296 295 293 293 291 289 287 285 283 283 283 281 279 279 279 279 278 278 276 277 278 279 278 276 275 276 278 278 273 273 272 272 272 272 271 271 272 271 273 273 273 272 273
291 293 294 292 290 290 288 286 284 283 283 282 281 279 279 279 278 278 277 276 277 280 278 279 275 274 275 276 274 272 272 271 271 270 271 270 271 271 271 271 272 272 272 272
290 290 290 288 287 285 285 285 285 283 282 281 280 280 278 278 277 276 277 277 278 283 277 275 275 277 277 277 272 272 271 271 271 270 270 270 270 269 267 267 267 270 271 269
288 288 287 286 285 284 284 283 283 282 280 280 279 279 279 279 278 277 275 277 278 280 275 275 280 281 279 272 272 271 271 271 270 270 268 266 267 265 265 266 267 268 267 268
286 286 285 284 283 282 281 282 282 282 281 280 280 280 279 278 277 278 279 282 282 280 276 278 279 280 276 271 271 270 270 270 267 265 267 273 264 264 265 266 266 267 267 268
281 279 279 280 280 279 279 279 280 280 279 279 278 279 279 279 278 278 279 280 283 279 277 281 280 278 271 271 270 270 268 265 263 264 266 264 264 263 264 266 266 267 267 266
282 281 281 281 280 279 279 280 279 279 279 278 278 278 278 279 279 279 279 280 278 279 275 274 272 272 271 270 270 269 268 267 268 267 268 265 264 264 265 266 266 266 267 267
278 281 277 279 279 279 280 280 279 279 280 279 277 278 278 278 278 278 279 277 275 273 272 272 272 272 270 270 269 269 267 266 270 268 265 263 263 263 265 266 266 266 267 268

GFSNGP_sfc_thetae_054.txt.gz
Theta_e
283 286 286 285 283 283 281 283 276 281 282 287 291 293 296 300 298 299 300 301 301 301 302 299 293 290 290 291 292 294 293 293 292 293 294 292 292 291 291 290 289 288 287 288
279 285 285 283 286 285 285 285 284 285 284 292 295 300 299 296 296 296 296 297 300 298 296 292 287 289 291 292 294 294 294 292 292 292 291 291 290 289 288 288 288 287 287 286
276 284 283 278 284 286 285 287 288 284 289 296 297 298 295 291 292 292 290 297 293 289 288 289 287 290 289 290 292 291 291 290 291 290 288 288 288 288 287 286 286 286 285 285
277 280 275 285 291 291 287 289 292 294 297 298 298 295 291 290 289 288 288 288 288 288 288 289 290 290 290 290 289 289 288 288 289 289 288 288 287 286 286 286 286 286 285 285
281 278 281 288 291 290 289 289 295 296 298 298 298 294 291 292 289 287 287 288 288 289 289 289 289 289 288 288 288 287 287 288 288 288 287 286 285 285 285 284 284 284 284 283
283 274 275 286 291 295 295 286 296 298 297 296 295 293 293 291 289 287 288 288 288 289 289 289 289 289 287 287 287 286 287 287 287 286 285 285 285 286 286 285 284 285 283 281
282 280 281 289 291 296 282 285 295 296 296 293 292 294 292 291 289 289 290 290 290 289 288 289 290 290 288 287 285 285 287 286 286 287 287 286 285 285 284 283 282 280 279 278
283 280 276 292 293 289 292 295 295 295 297 293 292 291 291 291 289 289 289 289 289 288 287 290 290 289 286 284 285 286 287 287 287 287 288 286 284 283 281 280 277 277 277 276
284 283 290 291 293 297 295 294 293 292 294 293 290 290 290 290 290 289 288 288 289 288 288 288 290 288 285 285 287 286 286 285 285 285 283 282 280 278 277 277 277 276 277 275
288 293 291 294 294 294 293 292 292 292 294 294 291 290 289 288 290 290 289 289 290 289 286 285 286 288 286 286 286 285 284 283 281 279 279 279 279 279 277 276 275 276 276 274
289 294 294 293 294 293 292 291 292 292 295 294 292 290 289 288 288 287 287 287 286 283 283 282 283 284 284 284 286 285 281 279 279 279 278 277 277 277 276 276 277 276 275 276
288 296 297 296 293 293 291 290 291 292 293 296 294 291 290 289 289 288 287 287 285 283 282 283 283 283 284 284 283 280 278 278 278 277 276 276 275 275 284 283 283 283 283 280
293 296 295 293 292 291 290 289 290 292 293 291 293 293 292 290 289 288 285 284 283 282 282 283 283 283 283 282 281 280 278 278 278 276 274 273 273 273 273 276 281 282 283 282
299 297 293 293 292 290 290 290 291 290 292 292 292 292 288 288 288 284 284 283 283 283 283 283 282 281 281 281 279 278 278 282 275 274 273 273 273 273 273 273 272 272 277 280
294 294 293 290 288 287 287 287 287 286 286 287 289 288 287 285 285 284 283 283 283 283 283 282 280 279 280 280 279 277 276 275 274 274 274 275 274 274 273 273 272 271 272 275
295 293 290 288 287 286 286 285 285 284 284 284 284 285 286 285 283 282 283 283 282 281 281 281 280 279 279 278 277 276 276 279 276 274 274 274 273 273 273 272 271 272 271 272
291 292 290 288 286 286 285 285 286 285 283 283 282 283 283 282 282 281 282 283 282 281 281 280 278 279 278 277 276 276 275 276 278 273 273 273 273 272 272 272 272 271 271 274
290 292 294 294 289 288 287 288 287 286 284 283 283 283 282 281 280 280 280 280 280 279 279 278 278 278 277 276 275 274 274 273 273 272 273 273 272 272 272 272 272 271 271 273
291 292 295 295 292 290 289 287 287 285 283 283 282 281 282 281 280 280 280 279 278 277 276 278 282 277 275 277 275 273 273 273 272 272 273 274 272 272 271 272 271 271 271 272
290 294 294 292 292 290 288 286 285 284 284 283 281 280 279 279 279 279 279 278 278 278 278 279 277 276 276 278 278 273 272 272 271 271 272 270 271 271 271 273 273 272 271 272
291 292 294 292 290 289 288 286 285 283 283 282 280 279 278 279 279 279 277 276 276 280 278 279 275 275 275 277 274 272 271 271 271 270 270 270 270 270 270 270 270 271 271 272
289 289 291 290 289 287 286 286 284 282 281 280 280 279 278 277 277 277 278 277 278 283 277 275 274 278 276 278 272 271 271 271 270 270 269 269 270 268 266 266 266 269 269 268
287 288 288 287 286 284 285 284 283 282 281 280 279 279 279 279 279 278 276 278 280 280 275 274 278 281 280 272 272 271 271 270 270 270 267 265 266 264 264 264 266 267 266 267
284 284 285 284 283 282 281 282 283 282 281 280 280 280 279 278 277 278 280 282 282 281 275 277 281 282 277 271 271 270 270 270 267 264 266 272 263 263 263 264 265 266 266 268
282 281 279 279 280 280 280 280 281 280 279 279 279 279 280 279 279 278 280 280 283 279 277 283 282 280 271 271 270 269 268 265 262 263 265 263 263 262 263 264 264 265 266 266
280 281 281 281 280 279 279 280 279 279 279 278 278 278 278 278 279 279 279 281 279 279 276 276 274 272 271 271 270 269 268 266 267 267 267 265 263 263 263 265 265 265 267 266
280 284 281 280 279 279 279 279 278 279 280 279 278 278 278 279 279 279 280 278 277 275 273 273 273 272 271 271 270 269 266 266 269 267 264 262 262 262 264 265 265 265 266 267

GFSNGP_sfc_thetae_057.txt.gz
Theta_e
283 285 285 283 283 283 280 281 275 278 281 285 289 291 293 297 297 296 297 294 295 299 300 293 292 292 291 292 292 293 293 294 295 295 295 294 293 292 291 290 288 288 288 288
278 284 285 282 285 284 284 285 284 285 284 292 294 295 298 295 293 293 292 290 296 292 291 289 289 288 289 289 291 292 292 291 292 291 291 289 289 288 288 288 288 288 288 289
274 283 283 278 283 284 285 285 287 283 288 294 295 298 297 292 291 290 290 289 287 287 288 289 289 288 287 288 290 290 289 289 289 289 288 289 289 288 288 287 288 287 287 287
278 280 276 283 288 289 287 288 289 291 293 294 298 297 292 291 288 288 287 288 288 288 289 290 290 290 290 290 289 289 288 288 289 289 288 288 287 286 286 286 286 285 285 285
280 278 280 286 290 287 286 288 292 291 294 298 298 293 293 292 288 287 287 288 288 289 289 289 289 289 289 288 289 288 287 287 288 288 287 287 285 285 285 285 285 285 285 285
282 276 274 283 290 294 294 286 295 297 297 293 293 291 293 289 287 287 288 288 288 289 289 288 288 289 288 287 287 287 287 287 287 287 286 285 285 285 285 285 285 285 283 283
282 280 280 287 290 295 283 285 296 294 295 297 294 293 290 289 287 288 290 289 289 289 289 289 290 289 287 286 284 286 287 287 287 287 286 286 285 285 285 285 284 281 279 279
284 280 275 290 292 288 293 296 297 295 296 296 293 292 291 289 289 289 289 288 289 288 288 289 289 288 285 284 285 285 286 286 286 286 288 287 285 284 282 279 278 278 278 277
283 282 289 292 293 296 297 295 294 293 294 293 291 291 291 290 290 288 288 288 289 288 288 289 289 287 285 285 288 287 286 286 286 286 285 281 278 277 276 277 276 275 277 275
287 291 291 293 293 293 295 292 291 292 295 292 291 291 290 290 289 288 288 288 289 288 286 286 288 287 287 288 288 286 284 283 279 278 277 277 278 277 276 275 275 276 276 275
289 291 294 295 295 296 294 291 290 291 294 292 291 290 290 289 288 288 289 289 286 285 284 285 287 286 286 286 286 283 279 278 278 277 276 276 276 275 275 275 277 276 275 276
285 292 294 294 296 295 292 291 291 292 293 293 293 291 290 289 288 287 285 285 283 284 283 283 284 284 284 285 283 279 278 277 277 276 276 276 276 276 284 284 284 284 283 280
292 293 295 295 294 292 291 290 290 292 294 293 293 292 291 289 288 289 287 285 283 283 283 283 283 281 281 281 280 279 277 277 277 275 273 272 272 273 273 276 282 283 282 282
297 297 294 292 292 290 289 290 292 290 292 292 293 292 291 289 289 285 284 284 283 282 283 282 281 280 280 280 279 278 278 281 275 273 273 272 273 273 273 272 271 272 277 279
294 293 292 290 287 287 287 287 287 287 288 288 291 289 290 288 285 285 284 283 283 283 283 282 279 278 279 279 278 277 276 274 274 273 273 275 274 273 272 272 271 271 272 275
292 293 293 291 289 286 285 285 285 284 285 285 286 287 287 287 285 283 283 283 282 281 282 281 279 279 279 278 277 276 276 279 277 274 274 273 273 272 272 271 271 271 271 271
288 288 292 290 290 289 285 286 286 284 284 283 283 285 285 284 283 282 282 283 283 282 281 281 279 279 278 277 276 276 276 276 278 273 273 273 272 272 272 271 271 271 271 273
288 289 290 291 292 291 288 288 286 285 285 284 284 283 283 283 281 281 281 280 280 280 280 280 278 278 277 277 276 275 275 273 273 272 273 273 272 272 271 271 271 270 271 272
291 291 290 291 293 293 290 288 287 286 284 284 283 283 283 283 282 280 280 280 279 279 278 278 282 278 275 277 275 273 273 272 272 272 272 274 271 271 271 271 271 271 270 272
290 291 292 291 291 289 288 287 285 284 284 284 283 282 281 281 281 280 280 279 280 280 278 279 276 275 275 278 278 272 272 271 271 271 271 270 271 271 271 272 272 271 271 271
288 289 293 292 289 288 286 285 285 283 284 284 282 281 280 280 280 280 278 277 277 280 278 280 275 275 275 277 274 272 271 271 270 270 270 270 270 270 270 270 270 271 271 271
287 287 289 289 289 287 287 286 285 284 283 281 280 279 278 278 278 277 278 278 278 283 278 276 275 278 276 279 272 271 271 270 270 269 269 269 269 268 266 266 266 269 269 267
285 285 287 288 287 286 286 285 282 281 279 280 279 278 278 278 278 277 276 278 280 281 276 275 278 282 282 272 271 271 271 270 270 269 267 265 266 264 264 264 265 267 265 266
283 283 282 283 284 284 283 283 283 283 281 280 279 279 279 277 277 278 280 282 282 281 275 276 280 283 281 271 271 270 270 269 267 265 266 272 263 263 263 264 265 265 265 267
281 281 280 280 281 281 280 280 281 281 280 280 279 279 279 280 279 278 279 280 283 279 276 282 283 283 271 270 270 270 268 265 262 264 265 264 263 262 264 264 264 265 265 265
280 281 280 281 280 280 280 280 279 279 279 279 279 279 279 279 279 280 280 281 280 279 277 278 277 274 271 270 270 270 269 267 268 267 267 265 263 263 264 265 265 265 266 265
281 283 280 280 281 280 279 279 278 278 280 279 278 279 279 279 280 279 281 280 278 277 276 275 276 274 271 271 270 269 268 267 270 267 266 263 262 262 264 265 265 265 265 266

GFSNGP_sfc_thetae_060.txt.gz
Theta_e
282 284 284 283 283 282 278 279 275 278 279 284 287 290 291 295 295 293 292 289 288 289 288 288 289 291 291 290 290 292 291 292 294 295 295 294 292 292 292 292 291 289 289 289
278 284 284 282 284 283 283 284 282 283 283 292 293 294 293 295 292 290 289 289 289 287 289 288 289 287 287 287 288 288 289 289 290 290 290 291 290 290 290 289 289 290 289 290
274 282 282 278 283 284 283 284 285 280 288 293 293 294 297 292 290 288 288 288 288 287 289 289 289 289 288 288 290 289 289 289 289 289 289 289 289 289 288 288 288 288 289 289
279 279 275 283 287 288 286 287 287 289 291 293 294 297 292 290 287 286 287 287 288 288 289 290 290 289 290 290 290 289 289 289 289 289 288 288 288 287 287 287 287 287 287 287
279 278 280 285 288 286 285 287 290 289 292 294 297 295 291 289 288 285 285 288 288 288 288 289 289 289 289 289 289 288 288 288 288 288 287 287 286 285 286 286 285 285 285 285
281 276 274 282 289 292 292 288 295 294 293 295 295 291 292 289 287 286 287 288 288 288 288 288 288 289 288 287 287 286 287 287 288 287 286 285 285 285 285 285 284 284 284 285
280 280 279 286 290 293 285 285 295 296 294 297 293 293 291 289 287 288 289 288 290 289 289 289 289 288 286 286 285 286 288 288 287 287 286 286 285 285 285 284 283 281 280 280
283 279 275 288 292 289 293 295 295 293 294 296 291 291 290 289 288 287 288 289 289 288 288 289 289 287 286 284 286 287 287 286 285 286 287 286 285 284 282 280 278 277 277 276
283 282 288 292 294 296 296 295 293 291 292 295 292 291 291 288 289 286 287 288 289 289 288 288 288 287 285 286 288 287 287 286 286 286 284 281 278 277 276 276 276 275 276 274
285 290 289 292 293 293 294 293 292 290 293 292 292 291 291 289 287 287 287 287 288 288 287 286 288 288 288 288 288 287 284 281 278 277 276 276 277 276 275 275 274 275 275 274
287 289 292 293 296 296 295 293 291 291 293 293 292 291 291 290 288 288 288 289 288 287 287 286 287 287 287 287 285 281 278 278 277 276 275 275 275 274 274 274 276 275 274 275
284 290 291 292 296 296 294 292 291 290 292 292 293 291 291 289 289 287 286 283 285 285 285 286 285 284 285 285 281 278 277 277 276 276 276 276 276 276 285 284 285 284 283 280
292 291 293 294 294 292 291 291 290 290 292 292 293 292 291 289 288 288 286 283 285 285 285 284 284 283 284 281 280 278 276 276 276 274 272 272 272 273 272 276 282 282 282 282
294 295 294 294 291 291 290 289 291 289 291 292 291 292 291 289 290 287 285 285 282 283 284 283 281 279 280 280 279 278 277 280 274 272 272 272 272 272 272 272 271 271 277 279
290 292 292 291 289 287 287 287 287 288 288 288 290 290 290 288 287 286 285 284 282 282 281 281 279 279 279 279 279 277 276 274 273 273 273 274 273 272 272 272 271 270 271 274
290 291 292 291 291 290 288 287 286 286 286 286 286 288 289 289 286 285 284 284 282 281 281 280 279 279 279 278 277 276 276 278 276 274 273 273 272 272 272 271 270 270 270 271
287 288 289 289 291 291 288 288 288 286 285 285 285 285 286 285 284 283 283 284 284 283 282 281 279 279 278 278 277 276 276 276 278 273 272 272 272 271 271 271 270 270 270 272
289 289 288 288 288 289 292 290 288 287 286 286 286 286 284 284 284 283 282 282 281 281 281 281 279 278 278 277 277 275 275 273 273 272 272 272 271 271 271 271 271 270 270 272
290 290 291 291 290 290 291 291 288 287 285 285 285 284 285 285 283 282 282 282 281 279 279 280 282 279 277 278 276 274 273 272 271 272 272 274 271 271 271 271 271 270 270 271
289 289 290 292 289 289 288 287 286 284 283 284 284 283 283 282 282 281 282 281 282 282 279 281 278 277 276 279 279 273 272 271 271 271 271 270 270 270 270 272 272 271 270 271
287 288 288 290 289 287 286 286 285 284 284 284 283 283 282 282 282 281 280 280 279 281 280 282 277 276 276 278 274 271 271 270 270 270 271 269 270 270 270 270 270 270 270 271
286 285 286 288 288 287 286 286 285 284 283 283 283 282 281 280 280 280 279 280 279 284 281 277 277 278 277 280 271 271 270 270 270 269 269 269 269 268 266 266 266 268 269 267
284 284 284 285 286 285 286 285 284 284 282 282 281 280 280 279 279 278 277 278 280 282 277 276 279 282 283 271 271 271 270 270 270 269 267 265 266 264 264 264 265 266 265 266
282 282 282 282 284 285 284 284 282 282 281 279 279 279 278 277 277 278 280 282 283 282 276 277 281 283 282 271 270 270 270 269 267 265 266 272 264 263 263 265 265 266 265 267
281 281 282 281 280 280 279 281 282 282 281 280 279 279 279 279 279 278 279 281 284 280 276 282 284 284 272 270 270 269 268 266 264 266 266 264 263 263 264 265 264 265 265 265
280 281 280 281 280 280 280 280 279 279 280 280 280 280 280 280 279 279 279 281 281 279 276 279 279 277 272 271 270 270 269 268 270 269 268 266 265 265 265 265 265 265 266 265
278 282 280 280 281 280 280 279 279 279 280 279 279 279 279 279 280 280 281 280 279 277 277 278 279 276 272 272 271 271 270 269 271 269 266 265 265 265 265 265 264 265 265 266

GFSNGP_sfc_thetae_063.txt.gz
Theta_e
283 285 285 283 284 282 278 280 278 280 280 284 287 289 291 293 295 294 291 290 290 289 289 290 290 289 289 290 290 291 291 292 292 293 293 292 291 291 291 291 290 290 290 290
279 284 284 283 284 284 283 284 282 283 283 291 293 294 294 295 293 292 290 290 289 289 289 289 289 288 288 289 289 290 290 290 291 291 290 290 290 290 290 291 291 291 292 291
276 282 283 279 283 284 284 285 286 282 287 292 292 294 296 294 292 290 288 289 288 289 289 289 289 290 289 290 291 290 290 289 290 290 289 289 290 290 289 288 289 289 290 290
278 280 275 283 287 288 286 286 288 288 291 293 293 296 292 291 290 287 287 287 288 289 289 289 290 290 290 290 290 290 289 289 289 289 288 289 288 286 285 286 287 286 285 286
279 277 280 286 287 286 286 287 290 289 292 293 295 296 293 290 288 286 286 287 288 289 289 289 290 290 290 289 289 288 288 288 288 288 288 287 286 286 287 286 285 285 286 286
278 274 274 282 291 292 292 288 296 293 294 294 296 293 294 289 287 287 288 289 288 289 289 289 289 289 288 287 287 286 287 287 288 288 287 286 286 285 285 285 285 285 285 286
279 276 280 286 290 291 284 288 296 296 296 296 294 295 291 289 288 289 289 289 290 290 288 289 289 288 287 287 286 287 288 288 287 287 286 286 285 285 285 284 283 281 281 281
283 277 275 288 291 289 295 294 295 294 295 296 294 291 289 289 288 288 288 289 289 288 288 288 289 287 286 285 287 287 287 286 286 286 287 287 285 283 282 281 280 279 278 278
283 282 289 292 292 296 295 293 293 293 293 295 292 291 290 288 287 287 287 288 289 289 288 288 288 288 286 287 289 288 287 287 286 284 283 281 280 279 279 279 278 278 278 277
286 290 288 292 294 294 295 295 292 292 292 293 293 292 290 289 287 287 288 288 288 288 287 286 288 288 288 288 289 287 284 280 279 279 278 279 279 279 278 277 277 277 277 277
286 289 291 293 294 296 297 295 293 292 293 294 292 291 291 289 288 288 288 289 289 288 287 286 288 288 289 288 286 281 280 279 279 278 277 277 278 278 278 277 279 278 277 278
284 290 290 291 294 297 296 295 294 291 291 293 293 292 292 290 289 289 289 288 287 288 287 287 287 287 286 285 282 280 278 278 278 278 279 279 280 280 285 285 285 284 283 281
291 294 292 293 293 293 293 292 291 291 292 292 292 292 292 290 289 290 286 286 286 286 287 286 285 285 284 282 281 280 278 278 279 277 277 277 276 277 277 279 282 282 282 282
291 292 291 293 292 292 290 290 292 291 291 292 291 292 291 290 290 288 286 286 287 286 286 285 284 282 282 281 280 279 279 281 276 275 275 275 275 275 275 274 274 274 277 280
288 289 290 290 291 291 288 288 288 289 289 289 290 290 291 289 288 287 287 286 286 286 284 284 281 280 281 281 280 279 278 276 275 275 275 276 275 274 274 274 273 273 274 275
287 289 291 291 292 292 289 289 287 288 287 287 288 288 290 290 289 287 286 285 283 283 283 282 281 280 280 280 279 278 278 279 277 276 276 274 274 274 274 273 273 273 273 273
286 287 288 287 289 290 291 290 289 289 288 288 288 287 289 288 287 285 284 284 285 284 283 282 281 280 280 279 278 278 278 279 278 275 274 274 274 273 273 273 273 273 272 274
288 289 290 289 288 287 288 291 292 290 288 288 288 288 287 286 286 285 284 284 283 282 282 282 281 280 279 278 278 278 277 276 274 274 274 273 273 273 273 273 273 272 273 273
289 289 289 290 291 291 290 289 290 290 288 287 286 286 286 286 286 284 284 283 282 281 280 281 283 281 279 279 278 277 276 274 273 273 274 276 274 273 273 273 273 272 272 272
288 289 289 290 291 288 286 288 288 286 285 286 285 284 284 284 284 283 283 283 284 284 281 281 282 279 278 281 280 276 274 273 273 273 273 272 272 272 272 273 274 273 272 272
286 286 287 288 289 287 286 285 283 284 284 285 284 284 283 283 283 283 282 281 282 284 282 283 279 278 279 281 277 274 273 272 272 272 272 272 271 272 272 272 272 272 271 272
284 284 284 286 286 287 287 286 285 284 284 283 284 283 282 281 281 281 283 283 281 285 283 280 279 280 279 282 274 273 272 272 271 271 271 271 271 271 271 271 270 271 271 270
283 283 283 283 283 285 286 285 285 285 283 283 282 282 282 282 282 280 279 280 282 284 280 278 280 283 284 273 273 272 272 271 271 271 270 270 270 270 270 270 269 269 269 269
282 282 282 283 283 283 282 283 283 282 282 282 282 282 281 279 279 280 281 283 283 284 278 279 282 284 283 273 272 272 271 271 270 270 270 273 269 269 268 268 268 269 268 269
280 281 281 281 281 280 280 280 282 282 282 281 280 279 279 280 279 279 280 281 284 282 278 283 285 285 274 273 272 272 271 270 269 269 269 270 270 269 268 268 268 268 268 268
279 280 280 280 280 280 280 280 279 280 280 281 281 281 280 280 280 280 280 281 282 280 277 281 282 280 275 273 272 272 271 271 273 273 271 270 270 269 268 268 268 268 268 268
276 278 277 277 278 279 280 281 279 279 280 279 279 280 280 280 280 280 281 280 281 278 277 279 281 278 275 274 273 272 272 272 273 272 272 271 270 269 269 268 267 267 267 267

GFSNGP_sfc_thetae_066.txt.gz
Theta_e
286 287 287 287 287 286 284 287 286 286 286 291 293 295 298 300 300 299 296 296 295 294 296 296 295 295 295 295 295 297 297 297 296 295 295 293 293 292 293 292 291 291 291 291
284 287 287 285 287 288 287 288 287 287 287 295 298 297 297 300 298 296 293 293 293 292 293 294 294 294 294 294 294 295 295 294 294 293 293 292 292 291 292 292 292 292 292 292
282 285 285 283 286 287 288 289 289 286 292 296 295 295 297 298 296 293 292 293 292 292 292 293 294 294 293 294 294 293 292 293 292 293 292 291 291 290 288 288 288 288 289 291
284 284 278 286 291 291 289 290 292 292 293 295 295 297 296 295 295 292 290 292 292 292 291 293 294 294 294 294 293 292 291 292 291 291 290 289 289 287 286 286 286 285 285 285
283 282 285 289 289 289 289 292 294 293 294 295 297 297 297 294 292 290 291 292 292 292 291 292 292 293 292 292 292 291 290 290 290 290 289 288 287 286 287 287 286 285 286 286
284 278 278 288 294 296 295 289 297 295 296 296 298 295 300 293 289 289 291 292 291 291 291 291 291 292 291 290 289 288 289 289 289 288 288 287 287 286 285 286 286 287 286 288
284 282 285 291 292 295 287 291 299 298 298 298 297 297 295 290 290 292 292 291 291 291 291 291 291 290 288 288 287 288 289 289 289 289 288 287 286 286 286 286 286 286 286 286
285 281 279 293 294 291 297 299 297 298 299 299 298 292 291 291 291 291 291 291 291 290 290 291 291 289 288 286 288 288 288 287 287 288 288 288 286 286 285 285 284 283 283 283
288 288 293 295 297 299 299 296 297 298 299 299 296 292 291 290 291 290 291 290 290 290 289 289 289 290 287 288 289 289 289 288 288 288 287 285 284 284 283 283 283 282 281 281
290 294 294 296 299 299 299 299 298 298 298 298 297 296 292 291 290 289 290 290 290 289 288 287 289 290 289 290 290 290 288 287 285 284 284 284 284 284 283 283 282 281 281 281
291 295 297 297 299 300 300 299 298 297 297 298 298 295 293 291 291 291 290 290 290 290 288 288 289 289 290 291 291 288 285 284 284 283 282 282 283 283 282 283 283 281 282 282
289 296 296 297 299 298 298 299 299 297 296 298 298 297 294 291 292 291 291 291 290 291 289 289 290 291 291 289 289 285 283 283 283 283 283 284 284 285 286 286 285 284 283 283
295 297 297 299 299 297 296 297 296 296 297 298 298 298 296 292 290 292 292 291 291 291 291 291 291 290 290 289 286 284 283 283 283 283 283 283 283 282 282 282 283 282 282 282
296 296 296 297 296 296 296 295 294 295 296 297 298 297 297 294 292 291 289 291 292 292 291 290 290 290 289 287 285 283 283 283 282 282 282 281 280 280 280 279 278 278 278 280
293 293 293 294 295 295 295 292 292 293 295 295 296 295 295 294 292 290 290 290 290 291 291 290 289 288 286 285 284 283 283 282 281 281 280 280 279 279 279 278 278 278 278 278
291 291 291 292 293 293 294 293 290 291 292 294 294 294 295 295 293 290 289 287 288 288 289 289 288 288 286 284 283 283 282 281 281 280 280 279 278 278 278 277 277 277 277 277
287 289 290 289 291 292 292 293 294 293 291 291 292 293 293 293 291 288 287 287 288 288 288 289 288 286 285 284 283 283 282 282 281 280 279 279 278 278 278 277 277 277 276 277
288 290 290 290 290 290 291 293 293 294 292 292 292 291 291 289 288 287 286 286 285 284 285 285 286 284 284 284 283 282 282 282 280 279 278 278 278 278 277 277 276 276 277 276
290 289 290 290 290 290 291 292 294 294 295 294 291 290 290 289 289 288 286 284 284 283 283 283 285 284 283 283 283 282 281 279 278 278 278 278 278 277 276 276 276 276 276 276
287 288 288 289 290 289 286 287 289 292 294 291 290 289 288 288 287 286 285 284 285 286 284 283 284 282 282 283 283 281 280 278 278 278 278 278 278 277 276 276 276 276 276 275
286 287 286 286 287 289 288 287 287 287 287 288 288 287 286 286 285 285 283 283 284 285 284 284 282 282 282 283 282 280 279 278 277 277 277 278 276 276 276 276 275 275 275 275
285 285 285 285 285 286 287 286 286 285 285 285 285 285 284 283 283 284 284 285 284 287 285 284 282 282 282 284 279 278 277 277 277 277 277 277 276 275 276 276 276 276 275 275
284 284 285 284 284 285 286 286 284 285 284 283 283 283 283 283 283 282 281 283 284 286 284 283 283 284 284 282 278 277 276 276 276 275 276 277 276 277 276 276 276 275 275 275
283 283 283 284 284 283 282 282 284 283 282 283 283 283 283 281 281 283 282 285 285 286 282 282 284 285 285 278 277 277 276 276 276 277 276 277 276 276 275 275 275 275 274 274
281 282 282 282 282 281 282 282 283 283 283 282 282 281 282 282 282 282 281 283 286 285 281 284 285 285 283 277 276 276 276 277 278 277 276 276 276 275 275 275 274 274 274 274
279 280 279 279 281 281 282 283 282 282 282 282 282 282 281 281 281 282 282 283 284 284 280 282 284 284 279 277 276 276 276 276 276 276 276 276 275 275 275 274 273 273 273 273
278 279 278 278 279 279 281 282 281 281 282 281 281 282 282 282 281 281 281 281 282 282 280 282 284 283 280 277 276 276 276 276 277 277 277 276 275 275 274 274 274 273 273 273

GFSNGP_sfc_thetae_069.txt.gz
Theta_e
289 289 289 288 288 288 284 288 287 288 288 291 294 296 298 301 302 303 301 299 299 299 299 299 298 298 298 297 298 299 299 298 297 297 296 295 294 294 293 293 293 293 292 292
285 288 288 286 289 289 288 289 289 289 289 296 298 300 299 301 302 300 298 297 297 296 297 297 297 297 297 296 296 297 296 296 296 296 295 294 294 294 293 293 293 293 293 293
284 287 287 284 288 289 290 291 291 286 292 297 296 297 298 300 300 298 296 296 296 296 296 296 296 297 296 296 296 295 294 294 294 294 293 292 292 291 290 289 289 288 288 288
285 286 279 288 293 293 291 292 293 293 295 296 297 299 299 300 300 297 295 294 295 295 295 295 297 297 296 296 295 294 293 293 293 292 290 290 289 288 287 287 287 286 285 286
283 283 287 289 291 290 290 291 295 293 295 298 299 298 298 299 298 295 293 295 295 296 295 294 295 295 294 294 294 293 291 290 291 290 289 288 287 287 288 287 286 286 287 286
285 280 279 290 295 298 297 289 298 297 297 297 299 295 299 296 293 291 294 295 294 293 293 293 293 294 292 292 291 290 290 290 290 289 288 287 287 286 286 287 286 287 288 289
285 283 286 293 294 296 287 290 298 298 299 298 298 299 298 293 291 294 295 293 293 292 292 292 292 292 290 289 287 289 290 289 289 289 287 287 286 287 287 287 287 287 287 288
285 282 280 297 295 290 297 300 300 300 300 300 300 295 293 292 292 293 293 292 292 291 291 292 292 290 288 287 288 289 289 288 288 289 289 289 288 288 286 286 285 284 284 283
289 288 296 297 298 299 300 299 299 300 301 300 299 294 293 292 293 293 293 292 292 290 291 290 290 289 288 288 289 289 289 289 290 290 288 287 286 285 284 284 283 282 281 282
291 295 295 297 300 302 300 300 300 300 299 299 299 298 295 293 293 293 293 292 292 291 289 288 289 290 290 290 291 291 290 290 287 285 285 285 285 285 284 283 282 281 281 281
293 296 297 299 300 302 300 301 299 299 300 299 300 299 295 294 293 293 292 292 291 290 289 288 289 289 291 292 292 290 288 285 285 285 284 283 283 284 283 283 284 282 282 281
290 296 297 298 301 300 299 299 299 299 300 300 300 300 297 294 294 294 292 292 290 291 289 289 290 291 292 293 292 287 285 284 284 283 284 285 284 284 286 285 285 284 284 283
295 299 299 300 301 300 298 299 299 297 299 299 300 301 299 295 294 294 294 293 292 291 291 291 291 291 292 292 290 286 284 284 283 284 284 284 284 284 281 282 283 283 282 282
299 298 297 299 298 298 298 298 298 297 298 298 300 300 300 296 294 293 292 293 294 293 292 293 292 292 292 291 287 285 285 285 283 284 284 283 282 281 280 280 278 279 279 280
297 296 296 296 297 297 298 297 295 295 296 297 299 299 299 297 294 294 292 292 293 293 293 292 292 292 291 289 285 284 284 283 283 282 282 281 280 280 279 279 278 278 278 279
295 295 294 293 294 295 295 295 295 295 295 295 296 297 298 298 297 294 291 290 290 290 292 292 292 291 289 287 285 284 284 284 283 281 281 280 279 279 278 278 278 277 277 277
289 290 291 291 292 293 293 295 295 295 296 294 293 295 296 296 295 292 290 289 290 290 291 291 291 289 287 286 284 284 283 282 283 281 280 280 279 278 278 278 277 277 277 278
289 290 291 292 291 291 292 294 294 295 295 297 295 293 293 292 292 290 289 288 288 287 288 289 291 287 286 285 284 284 283 282 281 280 280 278 278 278 278 277 277 277 277 277
291 290 290 290 291 290 290 291 291 292 294 296 296 293 292 293 292 291 289 286 286 286 286 286 288 286 285 285 285 283 283 282 280 279 279 279 279 278 277 277 277 277 277 277
288 288 288 288 289 289 289 288 287 287 290 294 296 294 292 293 291 289 288 286 287 289 286 285 285 283 284 285 285 283 282 281 279 278 278 278 278 277 277 277 277 277 277 276
286 286 287 286 287 288 288 288 287 287 288 289 290 291 290 290 290 288 285 285 286 287 285 286 285 284 284 284 284 281 280 280 279 278 277 278 277 277 276 276 276 276 276 276
285 286 286 286 286 286 287 287 286 286 285 285 286 287 287 286 286 286 287 286 285 288 286 285 285 285 283 286 283 280 279 279 278 278 277 278 276 276 276 276 276 277 276 276
285 285 286 285 285 285 286 285 285 284 283 284 284 284 284 284 284 283 282 284 285 287 285 284 285 287 286 284 280 279 278 278 277 277 277 278 278 278 277 277 277 277 276 276
283 284 284 285 285 285 283 283 284 284 283 283 283 283 283 282 282 284 284 285 286 287 285 285 286 288 287 283 280 278 278 277 277 278 277 279 278 277 276 276 275 276 275 275
281 282 282 281 283 282 283 283 284 284 284 284 283 283 282 283 283 282 283 283 286 286 284 287 288 288 284 281 279 278 277 278 278 278 277 278 277 276 276 275 275 275 275 275
280 280 279 279 280 280 282 283 282 283 283 282 283 283 282 281 281 282 281 282 283 285 282 284 285 285 283 281 279 277 277 277 278 278 278 277 277 276 276 275 275 275 274 274
279 279 280 279 279 279 280 281 281 281 282 282 282 283 283 283 282 282 281 281 282 284 281 281 284 285 283 280 278 277 277 277 278 278 278 277 276 276 275 275 275 274 274 273

GFSNGP_sfc_thetae_072.txt.gz
Theta_e
287 288 288 287 286 286 279 284 278 284 285 288 292 292 293 297 298 299 298 297 297 296 295 295 294 293 294 293 294 295 294 293 292 293 292 291 291 292 291 291 291 292 292 292
281 288 287 284 288 288 287 286 286 287 286 292 294 294 296 295 299 299 298 296 295 295 294 293 292 293 293 293 293 293 293 292 293 292 292 292 292 291 291 291 291 291 291 292
277 285 285 280 286 287 288 288 288 283 288 293 293 295 295 296 298 298 296 296 295 294 293 293 293 293 292 292 292 292 291 292 292 291 291 290 290 289 288 287 287 287 287 288
279 281 275 285 290 292 289 291 291 291 292 294 293 294 294 296 296 295 294 295 295 295 292 292 294 293 293 292 291 291 290 291 292 290 289 289 288 287 287 287 286 285 285 286
278 279 284 287 289 288 287 288 292 291 292 294 296 294 293 297 295 294 293 294 294 293 292 292 294 294 291 291 291 290 289 290 290 289 288 288 287 286 287 285 285 285 286 286
283 277 277 288 293 295 295 288 293 293 293 295 296 290 293 292 291 292 294 293 291 290 293 292 293 293 292 291 290 289 289 289 289 289 288 286 287 285 286 287 286 287 285 284
282 279 283 293 294 294 286 288 297 296 296 296 294 295 293 291 291 292 293 291 290 290 291 291 292 292 290 289 287 289 290 289 288 288 287 287 286 285 284 282 280 279 282 282
284 280 276 294 292 288 295 298 298 298 297 297 295 294 292 292 291 293 290 290 290 290 290 292 292 290 288 286 288 289 289 288 288 288 288 287 284 282 283 282 280 279 279 278
284 284 292 295 295 296 296 296 296 297 297 297 296 294 293 291 292 292 290 289 290 290 290 290 290 290 287 287 289 289 289 288 288 287 287 286 281 280 279 279 278 277 277 276
287 291 292 294 297 297 297 296 297 298 296 297 296 295 293 293 292 292 291 289 289 288 288 287 289 289 289 289 290 290 289 289 286 281 280 280 281 280 279 278 277 277 277 276
288 291 292 294 296 297 297 297 296 298 297 297 298 296 294 293 292 292 290 290 289 288 288 287 289 289 290 290 291 290 286 282 280 281 279 278 281 279 278 279 280 277 277 277
286 292 292 294 296 298 296 295 295 295 296 297 298 297 294 293 293 293 290 289 289 290 289 288 289 289 291 292 291 285 281 280 279 278 278 280 280 280 286 285 285 285 284 281
291 295 295 296 297 296 295 294 295 294 295 295 298 298 296 293 292 294 292 290 289 290 289 289 290 290 291 292 288 283 280 279 279 280 280 280 280 279 277 280 283 283 282 282
296 295 293 295 293 294 294 295 295 294 294 295 296 298 297 293 292 291 290 291 292 290 290 289 290 290 292 289 285 281 280 285 279 279 280 279 278 278 277 277 275 275 280 280
294 294 293 292 293 293 294 294 292 292 292 293 295 296 296 293 291 290 292 292 293 291 290 290 290 290 290 287 282 280 279 279 279 279 278 278 276 276 275 275 274 274 274 278
293 292 291 291 291 292 292 292 291 291 292 292 292 294 295 295 293 291 291 292 291 290 291 291 290 289 288 284 281 279 279 283 281 278 277 276 276 275 275 274 274 274 274 274
287 286 288 290 291 291 289 290 291 291 291 293 292 292 295 295 294 292 290 291 292 292 292 292 290 287 286 283 281 280 279 280 283 277 276 276 275 275 275 274 274 274 274 276
289 289 290 290 290 290 289 291 292 292 292 293 293 292 291 292 292 291 290 289 289 289 290 291 290 287 286 283 282 281 280 279 279 277 277 276 275 275 274 275 274 274 274 276
290 289 289 289 289 289 289 290 290 289 288 289 289 290 290 291 291 291 289 287 287 287 288 289 289 287 285 284 284 281 280 279 279 277 277 278 277 275 275 275 274 274 274 275
287 288 288 287 288 288 287 289 288 287 288 288 290 292 292 289 290 289 288 285 287 289 289 288 288 285 285 285 286 282 281 280 278 277 276 275 275 275 274 276 275 275 274 275
286 286 286 286 286 288 288 288 287 286 287 286 287 288 288 289 287 285 282 284 286 288 286 287 287 285 285 285 286 281 280 279 278 277 277 276 276 275 274 274 274 275 275 275
285 285 285 286 286 286 286 285 285 285 285 285 284 285 285 285 283 282 282 283 283 289 287 286 286 286 285 287 284 281 280 279 278 277 276 276 276 275 273 272 273 274 274 273
284 284 285 284 284 284 286 285 284 284 283 283 283 283 283 284 284 283 282 285 285 288 286 285 287 288 288 285 283 281 280 279 277 277 277 276 276 275 274 273 273 274 273 273
282 282 282 282 283 284 281 282 283 284 284 284 283 283 283 282 282 283 284 286 287 287 285 285 287 288 289 283 281 280 279 278 277 277 276 279 276 275 274 273 274 274 273 274
279 279 278 277 278 278 279 281 282 283 283 282 283 283 283 283 282 282 282 283 285 286 284 287 288 288 285 282 281 280 279 278 278 277 276 277 277 275 274 274 273 273 271 271
277 277 277 277 277 277 278 279 279 281 282 281 282 282 282 282 282 282 281 282 283 284 283 284 285 286 284 281 280 280 279 278 279 278 277 277 276 275 274 274 273 273 272 271
274 278 274 275 276 276 277 278 277 277 278 279 280 283 282 281 281 282 283 281 282 283 282 282 284 285 283 281 280 279 278 278 279 278 277 277 276 276 275 274 274 273 272 270

GFSNGP_sfc_thetae_075.txt.gz
Theta_e
285 287 287 285 285 284 278 283 278 284 284 288 290 290 290 292 295 297 297 297 296 295 293 293 292 292 292 293 294 294 293 292 291 291 291 290 290 290 291 290 291 291 291 291
278 286 286 283 286 286 285 286 285 285 285 291 294 293 292 293 296 297 296 296 296 295 293 292 291 292 292 292 292 293 292 291 291 291 292 291 291 290 290 290 290 291 291 291
275 284 283 278 284 285 286 287 286 282 287 291 291 293 294 295 297 297 296 295 294 293 292 292 292 292 290 291 291 291 290 290 290 291 290 289 290 288 288 287 287 287 289 290
277 279 273 283 289 290 288 289 289 289 290 293 293 294 295 296 297 296 295 294 294 294 293 293 292 291 291 291 290 290 289 290 291 290 289 289 287 287 286 286 285 286 286 286
277 276 281 285 287 287 286 286 291 290 291 293 295 294 293 295 294 294 293 293 293 294 292 291 292 293 292 289 288 288 288 289 290 289 288 288 286 286 286 285 285 285 284 282
281 274 276 286 289 292 292 286 292 292 291 292 294 288 292 290 290 291 292 293 292 291 291 291 292 293 291 289 289 289 288 289 289 289 288 287 286 286 286 286 285 282 279 281
279 276 282 290 292 293 286 285 294 294 294 295 293 293 293 290 289 291 291 291 290 290 290 292 293 292 289 289 288 289 289 288 288 288 287 287 286 286 284 278 278 277 280 280
283 280 275 292 291 288 293 296 298 297 295 295 294 291 290 290 291 292 290 290 289 289 290 292 292 290 288 287 289 289 288 287 287 287 288 287 284 281 281 280 278 278 278 278
283 282 290 294 293 295 297 295 295 296 296 297 295 293 292 291 292 291 290 289 289 288 290 290 290 290 287 288 289 289 288 287 288 288 285 284 281 280 279 278 277 276 276 276
286 289 289 293 295 296 296 295 296 296 296 297 296 294 292 292 292 291 290 288 288 288 286 286 288 289 289 289 290 289 288 288 285 284 283 282 280 279 277 276 275 276 277 276
286 289 290 292 295 296 296 296 295 296 296 296 296 294 292 292 291 292 290 288 288 287 286 287 288 289 290 290 290 289 289 286 282 280 278 278 279 276 276 278 278 276 276 277
285 291 292 292 294 295 295 294 294 293 294 297 297 297 294 291 292 292 290 289 287 287 287 288 289 289 290 291 291 288 284 279 279 278 276 278 279 279 286 285 286 286 284 280
291 294 294 295 295 295 294 293 293 293 293 293 295 297 295 292 291 293 291 290 288 288 288 288 289 289 291 291 291 285 280 278 279 278 277 277 277 278 277 280 284 284 283 283
295 295 292 293 292 293 294 293 294 292 293 293 294 296 295 293 292 291 289 290 290 290 289 289 290 290 291 292 288 282 280 284 278 277 278 278 278 279 277 277 275 275 281 281
292 293 293 293 292 293 292 292 290 290 291 291 293 294 295 293 291 290 290 291 291 290 289 289 290 289 291 290 284 280 279 279 278 278 278 279 277 276 276 276 274 273 274 279
290 290 290 290 290 290 290 290 288 289 290 290 290 291 294 294 292 291 291 292 290 289 290 289 290 290 290 288 282 279 279 283 281 278 278 277 276 276 275 274 273 273 273 274
288 285 286 287 288 289 290 290 290 289 289 289 290 291 291 293 294 292 291 292 292 292 291 291 290 291 289 287 282 280 279 280 284 277 276 276 276 275 275 274 274 273 273 276
289 289 289 288 289 289 290 290 290 291 291 292 291 290 290 291 291 292 291 290 290 290 291 292 292 290 289 286 283 281 280 280 281 277 276 276 275 275 274 274 274 273 273 275
289 288 288 288 287 287 288 289 290 289 289 288 286 285 286 288 289 291 291 289 288 288 290 290 291 289 287 286 285 282 281 280 280 278 277 279 278 275 275 274 274 274 274 275
286 287 287 287 288 288 287 288 288 288 288 287 287 287 288 291 290 288 287 288 288 288 289 288 289 288 287 285 288 283 281 280 280 279 277 277 277 276 275 277 275 275 274 275
286 286 286 286 286 287 287 286 285 285 286 287 285 285 285 287 289 288 285 283 286 286 285 288 289 288 287 286 287 283 282 280 280 279 278 278 277 277 276 275 275 275 275 275
286 284 284 285 285 285 286 285 284 284 284 284 284 284 284 284 285 284 285 284 282 289 284 285 288 288 287 288 286 283 282 282 281 279 278 278 277 277 276 276 275 275 275 274
284 284 284 283 282 283 284 284 283 283 282 283 283 282 282 283 284 282 282 284 282 285 282 284 287 289 289 287 285 283 283 282 281 280 279 278 278 278 277 276 276 275 274 274
281 281 281 280 280 280 279 280 280 281 281 283 283 283 282 282 282 283 284 286 287 287 285 285 287 289 290 286 284 283 282 282 281 280 279 280 278 278 277 276 276 274 274 276
278 277 276 275 277 277 277 278 279 279 279 280 281 283 283 283 282 282 282 282 284 285 284 287 288 288 287 285 283 282 282 281 281 279 278 279 278 277 277 276 276 275 275 274
276 276 276 277 276 276 277 278 277 278 278 277 279 281 281 281 282 282 282 283 282 283 283 283 284 285 284 282 282 281 281 280 280 280 279 278 278 278 277 276 275 276 275 274
274 277 272 274 275 275 275 278 277 276 277 276 278 279 279 279 279 281 283 282 282 282 282 282 283 285 283 282 281 280 280 280 281 280 279 278 278 277 276 276 275 274 274 273

GFSNGP_sfc_thetae_078.txt.gz
Theta_e
284 287 286 284 284 284 279 282 278 282 283 288 290 290 292 293 296 296 296 297 296 294 293 292 292 291 292 292 293 292 291 291 290 290 290 290 290 290 290 290 290 290 290 289
278 285 284 282 285 285 284 285 284 284 284 292 293 292 290 290 293 296 296 296 296 295 293 291 290 291 291 291 292 292 291 290 291 292 291 291 290 290 290 290 290 291 291 290
275 282 282 278 283 284 285 286 286 282 287 289 291 292 292 292 294 296 296 296 295 295 293 291 291 291 290 290 291 291 290 290 290 291 290 290 289 289 288 287 288 288 289 290
276 278 273 282 287 289 287 288 288 288 289 291 292 293 293 295 295 296 296 295 294 293 292 292 293 292 291 291 290 290 289 289 291 290 289 288 288 287 286 286 286 287 286 287
277 276 279 283 286 286 285 285 290 289 290 292 293 293 292 295 295 297 296 294 293 293 293 293 291 291 290 290 290 289 288 290 290 289 288 287 286 286 286 286 285 285 285 283
277 274 275 283 288 290 291 283 291 291 290 292 293 286 290 291 291 292 292 293 293 293 292 291 290 291 290 289 288 287 289 289 289 289 288 287 286 286 285 282 280 280 279 280
278 275 280 286 291 293 283 283 292 291 291 292 291 292 293 290 289 291 291 291 291 291 290 290 292 292 290 289 288 289 289 289 289 289 288 287 286 286 284 277 278 276 279 279
280 278 273 291 289 289 291 296 296 294 294 294 293 291 290 290 290 290 290 291 290 288 289 291 292 291 289 288 289 289 289 288 288 287 288 287 286 280 280 279 278 277 278 278
282 281 288 292 292 294 298 295 295 297 296 296 293 292 291 290 291 291 290 290 289 288 288 290 291 291 288 288 289 288 288 287 288 288 287 286 281 280 279 278 277 276 277 276
286 287 289 292 293 295 295 295 295 296 296 298 296 295 292 292 291 291 290 289 288 288 286 286 288 290 290 289 289 289 287 287 288 286 284 281 281 280 277 276 275 276 276 276
285 288 289 291 293 295 295 295 295 296 295 295 296 295 293 292 291 291 290 289 288 287 286 285 286 287 290 290 290 289 288 287 285 283 282 279 278 276 275 275 277 275 276 276
285 290 290 291 293 295 295 294 293 293 293 296 297 296 294 292 291 291 289 288 288 287 286 286 287 289 290 290 290 289 288 284 282 279 276 278 277 277 284 285 286 285 284 280
290 292 293 294 294 294 294 293 293 292 292 291 293 295 293 292 291 292 290 289 289 288 287 287 288 289 290 291 290 289 287 281 279 278 277 277 277 278 277 281 285 285 285 285
293 294 292 293 292 292 293 293 293 290 291 292 292 294 294 292 292 291 289 290 290 289 289 288 289 288 290 291 290 286 282 285 279 277 277 277 278 278 277 277 276 275 282 282
291 292 292 292 292 291 290 291 288 289 289 290 291 292 293 292 291 292 291 290 290 289 289 289 289 289 290 291 290 284 281 280 278 278 278 279 278 278 277 277 276 274 274 279
290 290 290 290 290 289 288 288 286 287 288 288 289 289 290 291 291 291 291 291 289 288 289 289 289 290 290 290 287 282 280 283 282 279 278 278 277 277 276 275 274 273 273 273
287 285 286 286 287 286 286 289 290 290 288 288 288 289 289 290 290 290 291 291 291 291 291 290 290 291 290 289 286 283 280 281 285 279 278 278 277 276 275 274 274 273 273 275
288 289 290 289 289 289 289 290 290 291 290 289 289 288 286 286 287 289 290 291 290 290 291 291 291 291 290 290 288 284 282 281 282 280 278 278 277 276 275 275 274 273 273 275
288 288 287 287 287 287 288 288 289 289 289 289 287 286 284 284 285 287 289 288 288 288 290 290 291 291 290 290 288 285 283 281 281 281 279 280 279 277 276 275 275 274 274 274
285 286 287 287 288 287 287 287 287 286 287 287 287 286 286 286 288 289 289 286 288 289 290 290 291 290 290 289 290 286 284 282 281 281 279 278 278 277 276 278 276 276 275 275
286 286 286 286 286 286 285 285 284 284 285 285 285 285 284 285 286 286 285 286 287 287 285 288 289 289 289 288 289 286 284 282 281 280 279 280 278 278 277 276 276 276 275 275
285 284 284 284 283 283 284 285 282 282 283 283 283 283 283 283 284 284 285 285 285 288 286 280 283 287 287 289 287 286 284 283 283 282 280 280 279 278 277 277 277 277 276 276
284 284 284 282 281 280 282 282 282 282 282 282 282 282 281 282 283 282 282 285 285 286 285 281 285 289 291 288 286 286 284 283 283 282 281 281 280 279 278 278 278 278 277 276
281 280 280 279 280 279 277 278 278 280 280 281 281 281 281 281 281 283 283 284 285 285 285 285 287 289 290 287 286 285 284 283 283 282 282 283 280 280 279 278 278 278 277 277
278 276 275 275 276 276 276 277 278 278 277 277 278 280 281 282 281 282 283 283 284 284 283 286 288 288 286 286 285 284 283 283 283 282 281 281 280 279 280 280 278 278 277 276
277 276 276 276 276 276 275 277 276 277 277 276 277 278 279 279 279 280 281 283 283 283 282 283 284 284 284 284 283 283 282 282 283 283 281 280 280 280 280 279 278 278 277 276
275 278 272 274 274 274 274 275 276 275 276 275 276 278 277 278 278 279 280 279 280 281 282 282 283 283 284 283 282 282 281 281 282 281 280 280 280 280 280 279 278 277 275 275

GFSNGP_sfc_thetae_081.txt.gz
Theta_e
283 286 285 284 284 286 284 284 279 281 281 286 287 289 291 294 296 296 296 296 295 293 293 292 292 291 292 293 292 292 291 290 289 289 289 289 289 289 289 289 289 289 289 289
279 285 285 283 285 286 287 286 284 284 283 289 291 290 291 292 295 295 296 297 296 294 292 291 291 290 291 292 291 291 290 290 290 291 291 290 290 290 290 290 290 289 289 290
273 282 282 277 282 284 285 285 286 282 287 289 289 291 291 291 294 296 296 296 297 295 294 291 291 291 290 291 291 290 289 289 290 291 290 290 289 289 288 288 289 289 290 290
276 277 272 280 286 287 287 287 287 287 289 290 290 292 292 292 293 294 296 295 295 294 292 292 291 291 290 290 290 290 288 289 290 290 289 289 288 287 287 287 287 287 286 287
276 275 278 281 285 285 284 284 289 289 289 291 291 292 291 295 295 295 297 296 295 293 292 291 291 291 291 289 289 289 288 288 290 290 288 287 286 286 286 286 286 285 285 283
276 273 273 281 287 289 289 281 290 290 290 291 291 286 289 294 292 293 293 293 293 292 291 291 290 291 289 289 289 289 289 289 290 289 288 287 286 286 285 285 284 282 280 280
278 274 279 285 290 290 279 281 291 290 290 291 290 290 292 291 290 290 291 291 291 291 291 291 291 289 288 288 288 289 290 290 289 289 288 287 286 286 282 280 279 276 279 278
280 279 273 289 289 285 289 294 293 291 291 292 292 291 290 290 290 291 290 291 290 290 290 290 290 290 289 288 289 289 289 289 288 288 288 287 286 284 280 279 278 277 277 278
281 280 287 289 290 291 297 296 294 296 295 295 292 292 291 290 290 290 291 290 290 290 289 289 290 291 289 289 289 288 288 288 287 288 287 287 283 280 278 278 277 276 278 277
285 286 287 290 292 294 294 295 294 295 296 298 296 295 293 292 291 291 290 289 289 289 286 286 288 290 290 289 289 288 287 287 288 286 286 284 282 280 278 276 275 276 276 276
285 288 288 290 292 294 294 295 295 295 295 295 296 296 295 292 291 291 289 290 289 288 286 286 286 288 290 290 290 288 288 287 287 286 285 282 280 278 276 276 277 275 275 276
284 290 289 289 292 295 294 293 293 293 293 294 295 296 295 293 292 290 289 289 288 287 286 286 286 287 289 290 290 289 287 287 286 285 282 279 277 275 283 283 285 285 284 279
290 291 292 293 294 294 293 293 293 292 292 291 292 293 293 293 291 292 290 289 289 289 288 287 287 287 290 291 290 289 287 286 286 282 277 276 275 276 277 281 286 286 286 285
291 294 292 293 292 293 293 292 293 290 291 291 291 293 293 292 291 290 289 290 289 290 289 288 288 288 290 291 290 289 287 288 282 278 277 276 277 277 277 277 277 276 283 284
291 290 291 291 291 291 290 291 288 288 288 289 289 289 290 290 290 291 292 290 290 289 288 289 288 288 290 291 289 288 286 285 280 278 277 279 278 278 278 277 276 274 274 279
289 290 290 289 290 289 288 287 285 286 287 287 287 288 288 289 289 289 290 290 289 288 289 289 289 290 290 290 289 287 285 285 282 278 277 278 277 278 277 277 276 275 274 274
286 284 286 285 287 286 286 287 288 289 289 289 289 287 288 287 287 288 289 289 290 290 291 290 289 291 290 290 289 288 285 283 286 279 278 278 278 277 277 277 276 275 274 275
289 289 289 289 289 288 289 289 290 290 289 289 288 287 286 285 283 284 286 288 288 288 289 291 291 290 290 290 289 288 284 283 283 280 279 278 278 278 276 276 276 275 274 275
288 287 287 287 287 287 288 288 288 288 288 288 287 286 286 286 285 284 285 286 286 285 288 290 291 290 290 290 290 289 285 283 282 282 280 281 280 278 278 277 276 275 275 275
286 287 287 287 287 287 286 286 285 286 286 286 286 286 286 286 286 285 286 287 288 288 287 289 290 290 289 290 292 288 286 285 284 283 282 280 279 279 278 279 277 276 275 275
286 286 284 284 284 285 285 285 283 283 282 284 284 284 284 284 285 284 283 284 286 287 287 288 286 288 289 290 291 289 286 285 285 284 282 282 280 279 278 277 277 277 276 276
285 284 283 282 281 281 282 282 281 281 281 281 281 282 282 282 282 283 284 283 285 288 286 285 285 288 288 291 288 288 286 285 285 284 283 282 281 280 279 278 278 277 277 277
284 284 283 282 280 280 281 280 279 278 279 279 280 280 280 281 281 281 281 283 285 286 286 285 287 288 289 289 287 287 286 285 284 284 284 282 282 281 281 280 279 279 278 277
281 280 280 279 278 278 274 275 276 277 278 279 278 279 278 279 280 281 282 284 285 285 285 285 287 289 290 286 286 286 286 285 284 284 283 285 283 282 282 281 281 279 279 279
280 277 275 274 275 276 275 276 276 276 277 275 276 278 279 278 277 279 280 281 284 284 283 285 287 287 285 285 285 285 285 285 284 284 283 283 282 282 282 281 281 281 280 279
278 277 276 276 275 275 275 275 275 276 277 276 276 277 278 278 278 278 278 280 280 282 281 282 283 284 284 284 284 284 284 284 284 284 283 282 282 281 281 281 281 282 282 280
277 279 275 275 274 274 273 274 274 274 275 274 274 277 276 277 277 277 278 278 278 278 279 280 281 282 283 283 283 283 283 282 283 282 283 282 281 281 281 281 281 280 280 279

GFSNGP_sfc_thetae_084.txt.gz
Theta_e
283 285 285 283 284 285 281 283 278 279 281 286 287 287 289 293 295 295 294 295 294 293 292 291 291 291 293 292 291 291 290 289 288 289 288 288 289 288 289 289 288 288 288 288
279 284 283 282 284 285 286 286 283 284 282 288 289 287 289 292 294 295 296 296 295 294 292 290 290 290 292 291 291 291 289 289 289 289 289 289 290 290 289 289 289 289 289 290
274 282 281 278 282 284 285 286 287 282 288 290 287 289 290 291 295 296 296 297 296 295 293 291 290 290 291 291 291 290 290 290 290 291 291 290 290 290 289 289 290 290 290 290
277 278 272 281 285 287 286 286 288 287 287 289 289 290 291 292 294 295 296 296 297 296 293 292 291 290 290 291 290 289 288 289 290 290 289 289 289 288 288 288 288 288 287 287
276 275 278 282 284 284 284 284 289 288 290 289 290 289 290 293 293 294 295 296 297 296 294 292 292 291 289 289 289 289 288 289 289 290 289 288 287 287 287 287 286 286 286 285
276 273 273 280 287 288 288 280 289 289 289 289 290 285 288 293 293 294 295 296 294 293 292 291 290 290 289 288 289 287 288 290 290 290 288 287 287 286 285 286 285 284 281 282
281 276 278 284 287 289 279 281 291 289 289 289 289 289 290 290 291 291 292 291 292 291 291 291 290 290 289 289 288 289 290 290 290 289 288 287 286 286 285 284 281 278 280 279
282 279 273 286 287 284 288 294 294 290 288 290 290 290 289 289 290 290 290 291 291 290 289 289 289 289 287 287 289 290 290 289 288 288 288 287 286 284 283 281 279 278 278 279
281 280 286 287 290 291 296 296 294 296 292 293 291 290 290 289 289 290 290 290 290 289 289 289 289 289 287 288 290 289 289 288 288 288 287 287 284 282 280 279 278 277 279 278
284 286 286 288 290 292 293 295 293 294 296 296 294 293 293 292 290 290 290 288 289 288 289 288 288 289 289 289 290 289 288 288 287 286 286 285 284 282 279 278 277 278 278 277
284 287 287 289 291 292 293 295 294 294 294 295 296 296 295 294 293 291 290 289 288 289 288 288 287 287 288 290 290 288 288 287 287 286 286 284 282 280 278 278 279 277 276 276
284 289 288 288 290 293 294 293 292 293 293 294 294 294 295 294 293 291 290 289 288 289 288 287 286 288 290 290 290 288 287 286 286 286 284 284 280 278 285 284 285 285 284 279
289 290 291 290 292 293 293 292 292 291 292 291 292 292 293 292 291 292 290 289 288 289 289 288 288 287 289 290 290 289 287 287 287 286 284 282 278 276 276 281 287 288 287 286
290 292 291 291 290 292 292 291 292 290 290 290 290 291 291 291 291 290 289 289 289 290 290 289 288 288 289 290 290 289 288 289 286 285 283 279 277 277 277 278 277 277 283 285
290 290 290 291 291 290 290 291 288 288 287 288 289 289 289 288 288 289 290 291 290 289 289 289 288 288 290 290 289 288 287 287 285 282 282 281 278 277 277 277 276 275 274 279
288 288 289 289 289 288 288 287 286 286 286 286 286 287 287 287 287 287 288 289 287 288 290 289 289 290 290 290 289 288 287 287 285 282 280 279 277 277 277 276 276 275 275 275
285 284 285 285 287 286 286 287 287 287 288 289 288 288 287 286 285 285 285 286 288 288 290 290 290 290 290 290 289 288 287 287 288 282 279 279 278 277 277 277 277 276 276 277
287 288 289 289 288 288 288 288 289 289 288 289 288 287 285 283 283 283 284 285 285 286 289 290 290 290 290 290 289 289 287 286 286 283 281 279 278 278 278 278 278 277 276 276
288 287 287 287 287 287 288 287 286 286 287 286 285 285 287 286 286 286 285 283 283 283 286 289 291 290 289 289 290 289 287 285 284 284 282 282 281 279 278 278 278 277 277 276
286 287 287 287 287 286 286 285 283 283 283 283 285 285 284 285 285 285 285 283 285 287 287 288 288 288 287 289 292 289 287 286 285 285 283 282 281 280 279 280 278 278 277 276
285 285 284 283 283 284 283 284 282 282 281 281 280 282 282 283 284 283 283 283 284 285 286 287 287 287 288 289 290 289 287 286 285 285 284 284 283 283 281 279 279 278 277 277
285 284 284 282 280 281 281 280 278 279 279 279 279 279 279 279 279 281 282 283 284 286 286 285 285 287 287 290 289 289 288 287 286 286 285 285 284 283 282 281 280 280 278 278
284 284 283 281 278 277 278 278 277 277 277 277 277 279 279 278 278 279 279 281 283 284 285 284 286 288 289 288 287 287 287 286 286 285 285 285 285 284 283 282 281 281 280 279
282 280 279 279 278 278 276 275 276 277 277 277 276 276 276 276 277 277 278 281 283 284 284 284 286 287 288 286 286 286 286 286 285 285 285 286 284 284 283 283 282 281 281 281
280 278 277 276 276 275 275 275 275 276 276 275 275 276 277 276 275 277 278 278 281 281 279 283 285 286 284 284 284 284 285 285 285 285 284 284 284 283 283 283 283 283 282 281
278 277 276 276 276 275 275 274 273 275 276 275 275 276 276 276 276 276 276 278 278 280 278 278 280 282 282 282 283 284 284 284 285 285 285 283 283 283 283 282 282 282 283 282
275 280 276 275 275 274 274 274 273 273 274 274 273 275 274 274 275 276 276 275 276 277 277 278 277 279 279 280 280 281 282 283 284 283 283 283 282 282 282 282 282 282 282 282

GFSNGP_sfc_thetae_090.txt.gz
Theta_e
288 288 289 288 289 288 286 289 286 288 287 293 296 296 297 298 300 301 301 303 303 304 304 304 303 303 303 303 302 301 300 299 298 297 297 297 297 297 297 298 297 297 297 297
284 288 288 287 289 290 290 290 289 288 288 294 297 299 297 298 299 300 301 302 304 304 304 303 303 303 302 302 301 300 299 298 297 297 296 296 297 296 296 296 296 297 296 296
282 286 286 283 286 288 289 290 291 286 292 296 294 295 297 299 299 301 302 303 303 304 304 304 303 303 301 301 300 299 299 297 296 296 296 296 296 296 295 295 296 295 295 295
283 284 277 285 290 290 289 290 293 293 294 296 296 299 299 299 299 301 303 304 305 306 306 305 304 302 302 301 299 298 298 297 297 297 296 295 294 293 292 293 293 292 290 292
282 281 284 287 290 289 288 288 293 293 295 296 297 297 298 300 299 300 304 306 307 308 307 306 304 302 300 299 298 297 297 296 296 296 295 294 292 291 291 290 289 289 291 292
284 279 277 287 292 294 293 287 295 295 295 294 294 290 295 298 299 298 301 305 306 307 306 305 304 302 299 298 297 296 297 297 297 296 294 293 292 290 288 289 288 288 288 290
284 281 284 290 292 294 285 288 296 296 295 293 293 296 296 297 297 298 299 299 300 302 302 303 302 299 298 298 296 297 296 296 295 294 293 292 289 288 288 287 287 286 287 289
285 281 278 291 293 288 294 297 299 298 295 295 296 296 296 296 296 297 297 297 298 299 298 298 299 298 297 295 296 296 296 295 294 294 292 290 288 287 287 286 285 285 286 287
287 286 292 293 296 297 297 298 299 299 297 297 297 297 296 296 296 296 296 296 297 297 296 296 297 297 295 296 295 295 294 294 293 292 290 289 288 286 285 285 284 284 286 285
288 291 292 294 296 296 298 300 299 300 300 299 298 298 297 298 297 297 297 296 296 296 295 295 296 296 297 295 295 294 294 293 292 290 289 288 287 286 285 284 283 285 285 284
290 292 295 295 296 297 299 299 299 299 299 299 300 298 299 297 296 296 295 294 294 296 296 296 295 294 294 295 295 293 293 292 290 289 289 287 286 286 285 286 286 286 285 285
289 293 293 294 297 298 298 298 298 298 297 297 298 297 298 297 297 297 296 295 294 293 294 295 293 293 293 293 294 294 292 291 290 288 288 286 285 284 289 289 289 288 287 286
292 295 295 296 297 298 297 296 296 296 296 295 295 296 296 296 296 295 296 295 294 294 295 295 294 292 292 292 292 293 293 291 290 289 287 285 285 284 283 287 288 288 288 287
295 294 294 296 296 295 296 295 294 294 294 294 294 294 294 294 294 293 293 294 295 294 294 294 293 292 291 292 291 291 291 291 290 290 287 286 285 285 286 285 284 285 288 288
292 294 294 294 294 293 294 294 292 292 292 292 292 292 292 291 291 291 292 292 293 294 294 294 293 291 292 291 291 290 289 289 290 289 287 287 285 285 285 285 284 284 284 285
290 292 293 293 292 292 292 291 291 290 291 290 290 291 291 291 290 290 290 290 289 290 292 293 293 293 292 291 290 290 290 289 289 287 286 286 285 284 283 283 283 283 282 283
288 290 290 290 291 290 290 291 291 290 290 289 289 289 289 289 289 289 289 289 289 289 291 291 292 294 292 291 291 289 289 288 290 287 285 285 284 284 284 284 284 283 282 283
290 289 289 291 291 290 290 289 289 288 287 287 287 288 287 287 286 286 286 287 287 288 289 290 291 291 293 292 291 290 290 288 288 287 285 284 285 285 285 284 284 284 283 283
288 288 289 289 290 289 288 287 286 286 286 286 286 285 286 286 285 285 285 285 285 285 286 288 288 289 290 291 291 290 288 288 287 288 286 286 285 284 284 284 284 284 283 282
287 287 288 287 287 287 285 285 284 284 284 284 284 283 283 283 283 283 285 285 283 284 286 287 287 287 287 288 290 290 289 288 288 287 287 285 285 284 284 284 283 283 283 282
286 285 283 283 283 285 284 283 282 282 283 282 282 281 281 282 282 282 282 283 284 284 285 286 286 286 287 288 289 288 288 288 287 287 286 286 285 285 284 284 283 283 283 283
286 286 284 283 281 282 282 281 281 282 281 280 280 281 281 281 280 281 283 282 283 283 284 284 284 285 286 288 287 287 287 287 287 287 286 286 285 285 285 285 284 284 284 283
285 285 284 283 281 281 281 281 280 280 280 280 279 279 280 280 280 280 280 282 282 282 283 283 284 285 285 286 285 285 285 285 286 287 286 286 286 286 286 285 285 285 284 284
286 285 284 283 281 280 280 281 280 280 280 280 280 279 279 279 279 281 281 280 280 281 281 282 282 283 284 282 282 282 283 283 284 285 285 288 286 286 286 286 286 286 286 286
286 285 283 280 279 279 279 279 279 279 279 279 279 279 279 280 278 279 279 279 279 279 280 280 281 281 281 281 281 281 281 282 283 283 284 285 285 285 286 286 286 286 286 286
284 283 282 280 280 280 279 278 277 278 278 278 278 279 279 279 278 278 278 279 278 278 278 278 279 279 279 279 280 281 281 281 281 281 282 283 284 285 285 285 286 286 286 286
281 281 280 279 281 280 279 278 277 277 277 276 276 278 278 278 277 278 278 277 277 277 277 277 278 278 278 278 279 279 279 280 280 280 281 281 281 283 283 284 285 285 286 285

GFSNGP_sfc_thetae_093.txt.gz
Theta_e
289 291 291 290 290 291 287 290 288 289 289 293 296 297 298 300 301 302 303 304 305 305 306 307 307 307 307 306 305 304 303 302 301 301 300 300 299 299 299 299 299 299 299 299
286 290 290 288 290 291 291 291 291 291 290 297 299 299 299 299 300 300 302 304 305 306 306 306 306 306 306 304 304 304 302 301 300 299 299 299 298 298 298 298 298 298 298 298
284 288 288 284 289 290 291 292 292 287 293 297 296 297 298 299 300 300 302 304 305 306 306 306 307 306 305 304 303 302 302 301 300 299 299 299 298 297 297 297 297 296 296 296
285 285 278 287 292 292 291 292 293 293 295 296 297 299 300 301 300 301 303 305 306 307 307 308 308 306 306 304 302 301 301 300 299 299 298 298 297 296 295 295 295 294 292 293
283 283 285 288 291 290 289 290 295 294 296 297 298 299 298 301 301 301 302 307 307 309 309 309 307 306 304 303 302 301 300 299 299 299 298 297 295 294 294 292 290 290 291 292
285 280 277 288 292 295 295 287 297 297 296 296 296 291 295 299 300 300 302 307 308 309 310 309 308 306 303 301 301 299 300 299 299 299 298 296 295 293 289 291 289 290 289 291
285 283 285 291 294 296 285 288 298 299 297 296 295 296 298 299 299 300 301 301 303 307 307 308 308 305 302 302 300 301 300 299 298 298 296 296 294 291 289 288 288 287 287 289
286 282 279 294 294 289 295 299 300 300 297 297 299 299 299 299 299 299 299 300 301 302 302 303 303 302 301 300 300 299 299 297 296 296 295 293 291 289 288 287 286 286 286 287
287 287 293 295 295 298 299 298 301 301 299 299 299 299 299 299 299 298 299 299 300 300 299 300 300 301 300 299 298 297 296 296 295 295 294 292 290 288 286 286 285 284 284 285
289 292 294 296 298 298 298 301 300 302 301 301 299 300 300 300 299 299 299 298 299 298 298 297 298 298 300 299 298 297 296 295 295 293 291 291 289 288 286 285 284 284 284 285
291 294 296 297 298 298 300 301 300 301 301 302 300 298 300 298 298 297 296 297 297 297 298 298 298 297 297 297 296 295 295 295 294 292 291 289 288 287 287 287 286 285 285 285
288 293 293 295 297 300 299 299 300 300 298 299 300 299 300 299 299 299 298 297 297 296 296 296 295 295 295 295 295 294 293 294 293 291 290 288 287 286 290 289 290 290 290 288
292 295 295 296 298 299 299 298 298 298 298 297 297 298 298 297 296 297 297 297 297 296 297 297 297 295 295 294 293 293 292 292 292 291 290 287 286 285 284 287 291 291 291 288
296 295 295 297 296 297 298 296 296 296 296 296 296 296 295 295 295 294 293 294 295 296 296 296 296 295 295 294 293 291 291 293 290 290 290 288 286 285 285 285 284 285 289 289
293 294 295 296 296 295 296 295 294 293 294 293 294 293 293 292 292 292 293 292 292 294 295 295 295 295 295 293 292 291 290 289 289 289 288 288 286 285 285 285 286 286 286 287
291 292 294 294 295 294 294 294 293 292 292 292 292 291 291 292 291 291 291 291 290 290 291 292 293 294 295 293 292 290 290 290 290 288 286 286 285 285 284 285 285 284 284 283
287 290 291 292 293 293 293 293 292 292 291 290 289 290 290 290 290 289 289 290 290 290 291 292 291 292 293 293 292 290 290 289 291 288 286 285 285 284 284 284 284 284 284 284
289 290 291 291 291 292 291 291 291 290 288 288 289 289 288 287 286 287 287 287 288 288 288 288 289 289 292 292 292 291 289 288 288 289 286 285 285 285 285 284 284 284 285 284
289 288 289 289 290 291 290 288 288 287 287 286 286 286 286 286 286 285 286 286 285 285 285 287 287 288 288 289 290 291 289 288 287 287 287 287 286 285 285 285 285 285 285 285
287 288 287 286 287 288 286 285 285 285 285 285 285 284 284 284 284 283 284 284 284 284 285 286 286 286 287 287 289 289 289 288 287 287 287 286 286 285 285 285 285 285 285 285
286 286 285 284 284 285 285 283 283 283 283 283 282 282 281 282 283 282 282 283 284 284 284 285 284 284 285 287 288 287 287 287 287 287 286 286 286 286 285 285 284 284 284 284
286 286 286 285 284 284 285 283 282 282 282 282 281 281 281 281 281 281 283 283 283 283 283 284 284 284 284 285 285 285 285 285 286 286 286 286 286 286 286 286 285 285 284 284
286 286 286 284 283 282 283 282 282 281 281 281 281 280 280 280 281 279 280 282 282 282 282 283 283 283 284 284 283 282 282 283 283 284 285 286 286 286 286 286 286 286 285 285
287 286 286 285 284 282 281 284 282 282 281 281 281 281 279 279 280 282 282 281 281 281 281 281 282 283 283 282 281 281 281 281 281 282 283 285 284 285 285 286 285 286 286 286
286 286 286 284 282 280 281 282 281 280 280 281 281 281 280 281 279 280 279 280 280 280 279 281 281 281 281 280 280 280 281 281 281 281 281 281 282 283 284 284 285 285 286 286
285 286 286 286 283 282 281 280 279 279 279 278 279 280 280 280 280 279 279 280 279 279 279 279 279 279 279 279 279 279 280 280 280 280 280 280 280 280 281 282 284 285 285 285
283 284 283 282 281 281 281 281 279 278 279 278 277 278 279 279 279 279 279 278 278 277 277 278 278 279 278 278 278 278 278 279 279 278 278 279 279 279 279 280 281 282 283 284

GFSNGP_sfc_thetae_099.txt.gz
Theta_e
287 288 288 286 286 288 284 287 283 286 286 289 289 289 290 293 296 297 298 298 298 298 298 299 299 299 298 298 298 298 297 296 295 295 295 295 294 295 295 295 296 295 295 295
280 288 288 285 288 288 289 288 287 288 286 290 291 293 294 292 296 297 298 299 299 299 298 298 298 298 298 297 298 298 296 295 295 295 294 294 294 293 293 293 293 294 293 294
277 284 286 281 286 288 289 290 290 284 288 291 292 294 294 294 295 296 299 299 300 299 299 299 299 299 297 297 297 297 295 295 295 294 294 293 293 293 292 291 291 290 290 291
277 280 275 283 288 290 290 290 290 289 290 292 292 293 294 295 295 294 295 300 300 300 299 299 299 299 298 297 296 296 295 295 295 294 294 293 292 291 290 289 289 290 289 288
277 276 280 283 287 287 286 286 292 290 292 292 293 292 291 295 295 294 294 298 301 301 300 300 299 299 298 296 296 295 294 294 295 295 293 292 290 289 290 291 290 290 290 287
279 275 274 283 288 291 290 282 293 293 291 291 291 286 289 294 295 295 296 297 298 301 302 300 299 298 297 295 294 294 294 294 295 294 293 291 290 289 289 291 289 289 287 288
279 277 280 287 289 291 279 284 296 293 291 291 290 290 293 294 295 295 295 296 298 299 299 300 299 298 296 295 294 295 296 295 294 294 292 291 289 288 290 289 288 288 288 290
279 278 275 291 290 285 290 293 296 293 291 293 293 294 294 294 294 294 294 295 297 295 295 296 297 297 295 294 295 295 295 294 293 292 292 290 288 289 289 288 287 287 287 287
282 282 289 290 289 292 293 292 295 294 294 294 294 293 294 293 293 294 293 293 294 294 294 294 295 296 294 293 294 293 293 292 291 291 290 289 289 288 287 287 287 286 285 285
285 288 289 291 293 294 295 295 296 297 297 296 295 296 294 294 293 293 293 293 293 293 292 292 293 294 294 294 294 293 291 290 290 289 290 290 290 289 288 286 286 285 285 284
286 287 288 291 292 294 295 296 296 296 297 297 298 297 296 295 295 294 293 293 292 291 291 291 292 292 293 293 293 291 291 291 292 292 292 289 289 288 288 288 287 286 285 285
283 288 288 290 292 296 295 295 296 296 294 295 296 295 294 293 293 293 292 293 292 292 291 291 291 291 291 292 292 292 291 292 292 291 290 288 287 287 291 291 291 292 291 288
287 291 292 292 293 294 294 294 294 295 295 293 293 294 293 292 291 293 290 289 289 290 291 291 291 291 291 291 291 290 290 292 291 291 288 288 287 286 285 287 292 292 292 292
289 290 290 291 289 292 293 293 294 293 294 294 293 293 293 291 290 289 288 287 288 288 289 289 289 289 290 290 289 288 288 292 289 290 289 289 287 286 285 285 284 285 291 291
286 288 289 291 292 292 292 292 291 290 291 291 292 291 290 289 288 288 288 288 288 288 288 289 288 288 289 289 289 288 288 289 289 288 288 288 286 285 285 285 285 285 285 287
288 287 288 288 289 291 290 289 289 289 290 290 289 289 288 288 288 287 286 286 285 285 287 287 287 287 288 289 290 289 290 291 291 287 287 287 286 285 285 284 284 285 285 285
286 285 286 286 288 290 291 291 291 290 289 288 287 287 287 286 286 285 284 285 286 287 287 286 286 287 288 289 288 289 289 289 291 288 286 286 286 285 285 284 284 284 285 286
289 288 289 289 289 289 290 289 288 288 287 285 286 285 284 283 282 282 282 284 286 285 283 283 285 286 287 287 288 288 288 287 287 286 286 285 285 286 285 285 284 284 285 285
287 287 287 288 288 289 288 287 286 286 285 284 283 282 282 282 281 281 281 282 282 280 280 281 285 285 284 284 286 286 286 286 286 286 286 287 287 286 285 285 285 285 285 285
287 287 286 285 285 286 284 285 285 284 283 283 282 281 280 280 280 280 280 280 281 280 281 281 282 281 281 282 285 282 284 284 284 285 285 286 285 285 285 286 285 285 285 285
286 285 285 284 282 282 281 281 281 281 281 282 280 280 280 281 281 280 279 278 279 280 281 281 279 280 281 282 282 280 280 280 281 282 283 284 284 285 285 285 285 285 285 285
285 284 284 284 283 283 282 281 281 281 281 282 282 281 280 280 280 279 279 278 278 282 279 277 278 280 281 284 278 278 278 278 278 278 280 281 281 282 282 284 285 285 285 285
285 285 285 284 281 280 279 278 280 281 281 281 280 280 279 279 278 277 276 278 277 279 278 276 280 283 284 277 275 276 276 276 276 278 279 279 279 279 280 281 282 282 284 285
285 285 284 284 284 282 280 280 282 281 281 281 280 280 279 278 277 278 277 280 281 280 279 279 280 283 283 275 274 274 274 274 272 276 279 280 279 278 278 278 279 280 281 281
279 281 284 283 282 282 280 281 280 279 279 279 278 279 280 279 278 277 276 277 280 279 276 280 281 281 276 274 273 274 274 274 274 274 274 274 277 277 277 277 278 278 279 279
279 280 281 284 284 284 283 280 276 276 276 276 276 277 278 277 276 278 276 278 276 278 274 275 275 276 275 274 274 274 274 273 273 272 274 272 271 271 273 275 277 277 277 278
274 279 274 278 279 279 278 277 276 276 278 277 276 276 276 276 276 277 278 276 275 275 274 274 273 275 274 273 273 273 272 272 274 274 271 269 269 270 272 273 273 273 275 277

GFSNGP_sfc_thetae_102.txt.gz
Theta_e
287 287 286 284 284 287 279 285 283 285 285 286 287 287 290 291 295 295 296 297 297 298 299 299 300 299 299 298 298 298 297 297 295 295 295 294 294 294 294 294 294 294 294 294
280 286 287 284 287 287 287 287 288 288 287 291 291 291 291 291 295 296 297 297 298 298 298 298 298 298 298 297 297 297 296 295 294 294 294 293 293 293 293 292 292 293 292 293
277 283 284 278 286 287 288 288 288 284 288 291 291 293 292 292 293 295 297 298 298 298 299 299 299 299 297 297 296 295 295 294 294 294 293 293 292 292 291 290 291 290 289 290
276 279 273 283 288 291 289 289 289 289 290 292 292 293 294 295 294 293 294 298 299 299 299 299 299 298 297 296 296 295 294 294 294 293 293 292 291 290 289 289 288 288 290 289
276 275 279 284 288 287 285 286 291 290 291 291 293 292 292 295 295 294 295 298 298 300 300 299 299 298 297 295 295 294 294 293 294 294 292 291 290 289 288 288 288 290 290 289
278 274 274 282 288 291 289 283 292 292 290 289 290 285 289 293 294 294 295 297 298 301 301 300 298 297 296 295 294 293 294 294 294 293 292 291 289 288 286 288 290 289 288 287
278 278 279 285 288 290 278 283 296 293 290 291 289 290 292 294 295 294 295 296 297 298 299 299 299 298 296 295 294 295 295 295 294 293 292 291 288 289 287 288 289 288 287 288
278 276 274 289 289 285 288 291 294 292 291 292 292 293 293 293 293 293 293 294 296 294 294 296 297 297 295 294 295 295 295 294 293 292 292 290 288 288 287 289 288 288 288 287
281 281 287 289 289 292 292 291 293 292 292 294 293 292 293 292 292 292 292 292 293 293 294 293 295 296 294 294 294 294 293 292 291 290 290 290 290 287 288 288 287 287 286 286
284 287 287 290 291 293 294 294 295 296 295 295 293 295 294 293 292 292 292 291 292 292 291 291 292 293 294 294 293 292 291 290 289 288 288 289 290 289 288 287 287 286 285 285
284 285 287 289 290 293 294 295 295 296 296 297 297 296 296 294 293 293 293 292 292 291 291 291 291 291 293 293 292 291 290 290 291 291 292 290 289 289 288 289 288 286 286 286
282 287 287 289 291 293 293 293 294 294 293 295 297 294 293 292 292 291 290 290 290 290 290 290 290 290 291 291 291 290 291 291 291 291 291 289 288 288 292 292 292 292 292 290
287 288 290 292 292 292 292 293 293 294 294 293 294 295 294 292 291 292 288 288 287 288 290 290 290 289 289 289 290 289 289 289 289 291 290 289 287 287 286 288 292 293 293 293
286 287 287 289 287 290 291 292 293 292 293 295 293 293 292 292 291 288 287 286 287 288 288 288 288 286 287 288 288 287 287 291 288 287 287 289 288 287 286 285 285 286 290 292
285 286 285 288 289 290 291 292 290 290 290 290 291 291 290 289 287 287 286 286 286 286 287 287 286 286 287 287 288 287 286 287 289 288 288 288 287 286 286 285 285 285 285 287
286 289 287 286 287 290 290 289 289 289 290 290 289 289 289 289 286 285 285 285 284 284 285 285 286 285 287 289 288 289 289 290 291 288 287 287 286 286 285 285 285 285 285 285
286 285 286 286 287 288 290 290 290 290 288 287 287 288 287 286 285 283 284 285 286 286 284 284 284 285 288 287 288 288 288 288 290 288 287 286 286 286 285 285 285 285 285 286
289 288 288 288 288 288 290 289 289 288 286 286 286 286 284 283 281 281 281 283 284 283 281 281 283 285 286 284 286 285 287 286 286 285 286 286 286 286 285 285 285 285 285 286
287 287 287 287 287 288 288 287 286 286 285 285 284 283 283 282 281 280 280 281 281 280 280 281 284 283 282 282 284 282 282 283 285 285 285 287 286 286 285 285 285 285 285 285
287 287 286 286 286 286 285 285 285 284 283 282 282 282 281 281 281 280 280 280 281 280 280 281 281 281 281 281 284 280 280 280 280 281 283 284 284 285 285 286 285 285 285 285
286 286 285 284 284 282 280 280 281 281 280 281 280 280 280 281 281 281 279 279 281 281 281 281 279 279 280 282 281 279 279 278 278 278 278 279 281 281 282 283 284 285 285 285
286 285 285 284 284 283 284 281 279 280 281 280 281 282 282 281 280 280 280 279 279 282 279 278 278 280 281 283 278 278 278 278 277 277 276 277 279 279 279 279 280 281 281 283
285 285 285 284 283 281 282 281 281 282 281 281 280 280 280 280 279 277 277 279 279 280 279 278 281 283 284 277 276 276 276 276 276 276 277 279 279 278 278 278 278 279 278 280
283 284 285 285 285 282 277 276 279 282 281 281 281 281 280 279 279 279 279 281 282 281 279 279 280 282 282 277 274 274 275 274 272 270 271 279 276 278 278 278 277 275 277 279
279 277 276 281 283 283 283 282 280 280 280 278 278 278 278 279 279 277 277 277 280 279 277 280 280 280 276 275 272 271 272 269 267 268 269 269 269 271 272 272 273 274 276 278
278 279 279 280 282 284 284 283 281 280 277 276 276 276 276 277 277 279 277 278 276 278 274 274 274 275 274 273 272 272 272 272 272 271 273 270 269 269 271 271 272 273 273 273
272 279 273 277 278 279 278 278 277 276 278 277 276 277 276 276 276 277 278 276 276 274 273 273 273 274 274 273 273 272 271 270 272 271 268 267 268 267 269 270 270 271 271 272

GFSNGP_sfc_thetae_105.txt.gz
Theta_e
287 287 284 283 283 284 277 280 276 283 283 284 286 287 289 290 294 295 295 295 297 297 296 297 299 299 299 298 299 298 298 297 296 295 295 294 294 294 294 294 294 294 293 293
279 285 285 283 284 285 286 286 286 286 283 289 290 289 290 290 294 295 296 296 296 296 296 297 297 298 298 297 297 297 296 296 295 294 293 293 293 292 292 292 292 292 291 292
275 281 283 278 283 284 286 287 287 284 288 290 290 291 290 291 292 292 293 296 296 297 298 298 298 298 297 297 296 296 295 294 294 293 293 292 292 291 290 290 290 289 288 289
276 278 273 282 287 289 287 288 288 288 289 290 290 291 292 292 291 292 293 296 297 297 297 298 299 298 297 297 296 295 294 294 293 293 292 291 291 290 289 288 288 287 290 290
276 275 278 282 287 287 286 285 291 289 289 290 291 291 289 293 293 293 294 295 296 298 298 298 298 298 297 295 295 295 294 293 293 293 292 291 289 288 288 288 287 287 290 290
277 274 274 281 286 289 289 282 292 291 289 289 290 285 288 292 293 293 294 296 296 298 299 299 298 297 296 295 294 294 293 294 293 293 292 290 289 288 286 287 287 289 289 289
277 275 278 284 288 290 278 281 293 292 289 290 288 289 291 293 293 293 294 295 296 297 298 298 298 297 296 294 294 295 295 294 293 292 292 290 288 288 288 285 286 289 288 289
277 275 272 287 288 283 287 291 293 291 290 291 290 291 292 292 292 292 292 293 294 294 294 295 297 297 295 294 295 295 295 294 293 292 292 290 288 288 286 288 289 288 288 287
280 280 286 288 288 290 292 290 292 291 291 292 292 291 291 291 291 291 291 291 292 293 293 293 294 296 294 294 294 293 293 292 291 290 290 288 287 288 289 289 288 288 287 287
283 284 284 287 289 291 292 292 293 294 294 294 291 294 291 292 291 291 291 291 291 291 291 291 293 294 294 294 294 293 291 290 290 289 288 288 289 289 289 288 287 286 286 286
282 283 284 287 289 290 292 294 294 295 295 296 296 296 295 293 291 291 291 292 291 291 291 290 290 290 292 293 293 291 291 290 289 289 290 288 290 290 288 289 289 287 287 287
284 286 286 288 289 292 291 291 292 293 293 296 298 296 293 291 291 290 289 289 289 290 289 289 288 288 289 290 291 290 290 290 290 290 289 289 288 288 293 292 292 293 293 291
286 285 288 289 290 289 289 291 292 292 292 294 295 295 293 291 291 292 288 287 287 288 288 288 287 286 287 287 288 288 287 287 287 290 290 290 289 287 284 289 293 293 293 294
283 285 285 286 284 288 289 290 292 290 291 293 294 294 293 291 291 289 287 287 287 287 287 286 285 284 285 286 286 286 285 290 286 285 285 288 287 285 286 286 286 286 290 292
283 284 284 285 286 287 288 289 288 288 289 289 291 291 291 289 288 287 286 286 286 286 285 286 285 284 286 287 288 288 287 285 285 285 286 287 286 287 286 286 286 286 286 288
285 285 286 285 285 287 288 290 290 289 290 290 289 289 289 289 288 286 286 285 284 284 284 284 286 284 287 288 286 287 289 290 290 288 287 287 287 286 286 285 285 286 285 285
282 281 284 286 287 287 287 290 289 289 288 287 287 287 287 287 286 284 283 284 285 285 283 282 282 283 287 284 286 286 287 286 289 286 286 286 286 286 286 285 285 285 286 286
286 288 288 288 287 287 288 289 289 288 287 286 287 286 284 283 282 282 281 282 283 281 280 280 282 283 283 282 283 281 281 285 285 285 285 285 285 286 285 285 285 285 285 286
285 287 287 287 287 287 288 288 287 286 286 285 284 283 283 283 282 281 281 281 281 280 280 280 283 282 280 281 284 280 280 280 280 282 283 285 285 285 284 284 285 285 285 285
286 287 287 286 286 285 285 286 286 284 284 283 281 281 280 280 280 281 280 280 281 280 281 281 280 280 281 281 284 280 279 279 278 278 279 280 280 282 282 284 284 284 284 285
287 287 286 285 284 284 281 279 280 282 281 279 278 278 278 279 280 281 281 280 282 282 282 282 280 279 280 282 281 279 279 278 278 277 277 277 278 278 278 279 280 281 281 281
286 285 285 285 284 284 284 282 278 278 280 279 279 279 279 280 279 279 281 279 280 283 280 279 279 280 282 283 279 278 278 278 278 277 277 277 277 278 278 279 278 279 279 279
285 285 285 285 284 283 283 283 281 280 281 279 280 279 279 278 278 276 276 280 280 281 280 279 280 283 284 278 277 277 277 276 276 276 275 274 275 275 278 278 278 278 277 275
280 283 283 285 285 283 281 281 280 282 282 280 279 280 279 278 278 279 280 282 283 282 280 280 281 283 283 277 276 275 275 275 273 271 272 276 269 269 270 273 272 272 273 274
279 277 275 275 280 282 283 283 282 281 280 279 279 279 278 278 277 275 274 277 282 281 277 280 281 281 276 275 273 273 273 271 268 269 269 268 268 268 270 270 270 271 272 273
278 278 279 280 280 280 282 283 282 282 281 279 277 277 276 276 276 278 275 277 277 278 277 275 275 275 274 273 273 273 272 271 271 271 272 270 269 269 269 270 270 270 271 271
272 278 272 276 277 278 278 279 278 278 279 278 277 277 277 275 275 276 277 275 276 276 274 274 274 274 273 273 273 272 271 270 273 272 270 269 268 268 269 269 269 270 270 270

GFSNGP_sfc_thetae_108.txt.gz
Theta_e
286 287 284 283 283 284 276 279 275 281 282 284 286 287 288 290 294 295 295 296 296 296 296 297 298 299 299 299 299 298 298 297 296 295 294 294 294 294 294 294 293 294 293 292
279 283 285 283 284 283 284 284 285 283 283 288 289 289 289 289 291 292 294 295 296 298 296 296 296 299 298 298 298 298 296 295 294 294 293 293 292 292 292 291 292 292 291 291
275 280 282 277 281 284 286 285 286 284 286 289 289 290 290 290 291 290 291 295 296 296 297 297 297 298 297 296 297 296 295 294 293 293 292 292 291 291 290 290 290 289 288 289
275 276 272 280 286 287 286 287 287 288 289 291 291 292 291 292 291 291 292 293 294 295 296 297 297 297 296 296 295 295 293 293 293 292 291 291 291 290 288 289 288 289 290 290
275 274 276 282 285 288 286 285 289 287 288 289 290 290 290 293 292 291 292 293 295 297 297 297 297 296 295 294 294 294 292 292 293 292 291 290 289 288 288 288 287 286 289 290
277 273 273 279 285 287 290 282 290 290 288 287 289 284 286 292 293 293 293 294 295 296 298 297 297 296 295 293 293 293 293 293 293 293 291 291 289 288 287 288 287 287 289 290
277 274 277 282 287 289 277 279 292 291 288 290 287 288 290 291 292 292 293 293 294 295 294 296 296 296 295 294 293 294 294 293 293 292 292 291 288 288 289 286 286 288 289 289
277 274 272 286 286 281 285 289 291 290 289 290 289 291 291 291 291 291 291 292 293 292 292 293 295 296 294 294 295 295 294 293 292 291 292 290 288 289 286 286 286 288 288 287
279 279 285 286 286 288 290 289 290 289 290 291 291 290 290 290 290 290 290 290 291 291 291 292 294 296 294 293 294 294 293 293 292 291 291 289 288 288 287 287 288 288 287 286
282 283 283 285 287 288 290 290 291 292 292 292 290 292 290 291 290 289 290 290 290 290 291 291 293 294 294 294 294 293 292 291 290 289 288 287 288 288 288 288 288 287 286 286
281 282 283 285 286 288 290 291 292 293 293 292 293 295 294 292 291 290 289 289 290 290 290 289 289 290 291 292 294 293 292 291 290 290 290 288 288 288 288 289 288 285 286 287
281 285 285 286 288 289 289 289 290 291 292 294 297 296 294 291 290 288 287 287 288 288 288 288 287 286 287 289 290 290 290 290 290 290 289 289 287 289 293 293 293 293 293 290
285 285 287 287 289 287 287 288 289 290 291 294 295 295 292 290 289 291 287 286 286 286 287 287 286 285 286 286 287 287 286 287 287 289 290 290 289 288 287 289 293 294 294 294
283 285 284 285 284 286 288 289 290 288 289 290 293 294 293 291 290 289 287 287 287 287 286 286 285 284 285 286 286 286 285 289 285 284 284 285 285 285 287 286 286 287 291 292
283 284 284 283 284 285 287 288 286 287 287 288 289 290 291 290 288 287 287 287 287 286 285 286 285 283 286 288 287 287 288 288 287 285 283 285 285 286 286 286 286 286 286 288
284 284 284 283 283 285 285 286 286 289 290 290 289 288 288 288 287 286 286 286 286 285 285 284 284 283 287 286 286 287 288 289 289 286 287 287 286 286 286 286 286 286 286 286
282 281 282 282 286 287 288 288 288 288 288 288 287 288 288 287 286 285 284 285 285 284 282 282 281 283 286 283 284 284 283 285 287 285 285 285 285 285 285 285 285 285 285 286
285 286 286 287 287 287 287 289 289 288 287 287 287 286 285 284 282 282 282 282 283 283 282 281 281 283 282 281 282 281 280 281 281 282 284 284 285 285 285 285 285 284 285 286
285 285 285 287 288 287 287 288 287 287 286 285 284 283 283 281 281 281 279 279 281 281 281 281 283 282 281 281 283 280 279 279 279 279 279 281 281 283 284 284 284 284 285 285
284 285 286 286 286 286 285 286 286 285 284 284 283 282 279 279 279 279 278 277 279 282 281 281 281 279 280 281 283 280 279 279 278 278 278 278 278 279 279 280 281 281 281 283
284 284 285 286 285 284 284 281 279 281 281 281 279 278 278 278 279 278 277 276 279 282 282 282 280 279 280 282 282 279 279 278 278 277 277 277 277 278 278 278 278 278 279 279
280 281 285 285 284 284 284 283 280 278 278 279 279 278 278 279 278 277 279 278 278 284 279 279 280 280 281 284 280 279 278 278 277 278 277 277 277 277 276 277 276 278 279 278
278 280 284 285 284 284 284 283 283 282 278 280 279 279 279 279 278 276 275 277 277 281 280 279 281 282 284 279 278 277 277 276 276 276 275 274 275 275 275 275 276 276 275 274
277 279 279 283 285 283 282 283 282 282 282 282 279 279 278 277 277 278 278 282 283 282 280 279 280 283 283 277 276 276 276 275 274 272 272 276 270 271 272 273 272 273 272 272
278 276 274 276 281 282 279 282 282 282 282 280 278 279 280 280 279 276 273 274 281 280 275 281 282 282 278 276 275 273 273 271 269 269 270 270 270 270 270 270 270 271 270 270
278 278 279 279 280 280 279 280 279 281 282 281 281 280 278 276 275 278 274 276 275 278 274 273 274 276 275 274 273 273 273 273 272 271 272 270 269 269 270 270 270 269 270 269
271 278 274 275 276 277 277 278 277 278 280 278 278 278 277 277 275 276 278 275 275 274 272 272 272 274 274 274 273 272 271 270 273 271 269 267 267 267 268 269 269 269 270 270

GFSNGP_sfc_thetae_114.txt.gz
Theta_e
288 289 288 288 288 289 285 286 285 286 287 290 292 294 295 296 298 298 297 299 301 302 303 305 306 306 308 309 310 312 313 312 311 310 310 309 309 309 307 307 305 304 303 303
285 288 289 287 288 290 289 289 289 290 288 294 296 298 297 296 297 296 296 298 299 301 304 304 304 305 306 306 308 310 309 308 306 305 305 305 304 304 304 303 302 302 301 302
281 285 286 284 286 289 290 290 291 287 290 295 294 294 294 296 296 296 296 297 297 301 302 304 305 306 305 305 306 306 304 304 303 303 302 302 301 301 300 300 300 300 300 301
283 284 277 286 292 291 291 291 293 292 293 294 294 295 297 297 296 296 297 298 300 300 302 303 305 305 305 305 305 303 302 302 301 302 300 300 300 299 299 299 298 298 297 299
283 281 283 286 289 290 289 289 294 292 293 294 295 296 296 297 297 297 297 299 300 302 303 304 304 304 304 304 303 303 302 301 301 301 299 299 298 298 298 297 295 296 296 297
284 279 277 286 290 293 293 286 295 294 294 294 295 291 294 297 297 297 298 299 299 301 303 304 303 304 303 303 303 303 301 301 301 301 300 299 299 298 297 298 295 297 296 297
284 281 284 289 291 293 283 287 296 295 295 295 294 295 296 297 297 297 297 298 300 300 300 301 303 303 302 302 301 301 301 301 301 300 300 300 298 297 296 296 295 294 295 296
284 282 278 291 291 287 292 295 297 296 296 296 296 296 296 297 296 296 296 297 298 299 298 300 302 303 301 300 300 300 300 300 299 300 298 298 297 295 297 297 297 295 295 295
285 285 290 293 293 295 296 297 297 298 297 297 296 296 296 296 296 296 295 295 296 297 297 296 296 299 299 298 300 300 300 299 299 299 298 298 298 296 296 297 297 295 293 294
287 289 291 292 294 296 297 297 298 299 298 298 297 297 296 295 296 296 295 295 296 296 295 292 292 292 292 294 297 298 297 297 298 298 297 297 297 297 297 296 296 295 293 293
287 289 291 292 294 295 295 296 296 297 299 298 298 298 297 296 295 294 295 295 295 294 294 293 293 293 292 292 294 294 294 293 293 293 294 294 294 295 296 297 296 295 294 295
288 293 293 293 295 295 294 294 295 296 297 298 299 299 298 295 294 294 293 293 293 293 293 292 292 291 291 292 293 293 293 293 292 293 292 291 291 291 294 294 294 294 294 293
293 294 294 295 294 294 294 294 294 295 295 296 297 298 296 293 292 292 292 292 292 291 292 291 291 290 291 291 291 291 291 292 292 292 293 294 292 289 288 291 294 294 294 295
293 293 291 292 292 293 293 293 294 294 294 295 296 296 296 294 293 291 290 290 291 291 290 290 288 286 288 289 290 290 290 290 290 290 290 291 291 291 291 291 291 292 293 294
292 290 293 293 292 291 292 292 292 292 293 293 294 294 294 293 292 291 289 289 289 289 288 288 286 286 288 288 288 288 288 289 289 289 289 289 289 289 289 290 290 291 292 291
289 290 290 290 290 290 290 290 290 290 292 293 292 291 291 292 291 289 288 288 288 287 287 286 286 285 287 287 286 286 286 286 288 287 287 287 287 287 287 287 287 288 287 287
287 286 287 288 289 289 289 291 291 290 290 290 289 290 290 289 288 286 286 287 287 288 287 285 284 285 286 285 285 285 283 284 284 284 284 285 286 286 286 285 285 285 286 287
291 292 291 291 289 289 289 290 291 290 290 289 289 288 287 287 287 287 286 284 284 286 286 286 285 285 285 284 285 285 283 282 282 282 282 282 284 284 285 285 285 285 285 285
290 290 290 290 290 290 290 290 290 290 289 288 287 286 287 287 286 285 284 282 282 282 285 286 283 283 284 284 284 285 283 282 281 281 281 282 281 282 282 282 283 283 283 283
288 289 289 289 290 289 289 289 289 288 288 287 286 286 285 285 284 283 282 281 282 283 285 285 284 283 283 283 283 285 283 282 281 281 280 281 280 280 281 280 281 280 281 281
288 288 288 288 287 288 288 288 287 286 286 285 284 284 283 284 282 282 281 282 285 285 285 284 285 284 283 282 284 284 283 282 281 280 280 280 279 280 280 280 280 280 279 280
286 286 286 286 286 286 287 287 285 283 282 282 283 282 281 281 282 282 283 284 286 284 284 285 285 284 283 283 285 284 282 281 280 280 280 279 278 278 278 279 279 279 279 280
285 285 286 285 285 286 287 286 286 285 284 283 282 281 282 283 284 282 282 284 283 282 283 284 284 284 284 284 284 283 281 280 280 279 279 279 278 277 278 277 277 277 278 277
285 286 286 287 286 284 284 285 285 286 285 285 284 284 284 283 284 284 284 285 286 285 285 284 284 284 285 284 283 282 281 280 279 279 278 278 278 277 276 276 276 276 276 276
285 285 284 283 283 284 284 284 283 283 284 284 285 285 285 285 284 286 285 285 284 283 283 284 285 285 284 284 283 282 280 279 279 278 277 277 276 275 275 275 275 275 275 276
284 284 285 285 285 285 284 283 282 284 284 283 285 285 285 285 284 284 284 282 281 281 282 282 283 283 282 282 281 280 279 278 278 278 277 276 276 275 275 274 274 274 274 274
281 283 282 281 282 282 282 282 281 282 283 283 283 284 283 283 282 282 281 280 280 280 280 280 281 281 281 280 279 279 278 278 278 277 276 275 275 274 273 273 274 274 273 273

GFSNGP_sfc_thetae_117.txt.gz
Theta_e
289 290 290 289 289 290 287 289 285 286 287 291 294 295 295 297 298 297 298 299 301 303 304 306 307 310 311 311 313 315 315 315 314 314 314 312 311 312 312 313 312 309 307 306
286 290 290 287 290 290 290 291 290 290 289 295 297 297 296 296 296 296 297 299 301 302 304 305 305 306 308 309 310 313 312 310 310 310 310 309 308 307 307 305 304 304 303 303
283 288 287 284 287 289 291 292 292 287 291 296 294 295 295 296 297 296 297 299 300 301 303 305 306 306 305 307 309 308 307 306 306 307 306 306 306 305 305 304 303 302 302 302
285 286 279 287 294 294 292 292 294 293 294 295 295 297 297 298 297 297 298 299 301 302 303 305 306 306 306 306 305 306 305 305 306 305 304 304 303 302 301 301 301 300 300 302
284 283 285 287 291 291 290 289 294 293 295 295 296 299 296 298 299 298 300 300 301 303 304 305 305 306 306 305 305 304 303 303 303 302 301 301 300 300 300 299 299 298 299 299
286 280 279 287 292 295 295 285 295 296 295 295 297 291 293 298 298 299 300 300 301 303 305 305 305 306 305 304 304 303 303 302 303 303 302 301 301 300 299 298 296 298 297 299
285 283 285 291 293 295 284 287 296 297 297 296 294 295 297 299 298 299 299 299 302 302 301 303 305 306 304 303 301 302 303 302 302 302 301 301 300 298 298 297 296 296 296 297
285 283 280 294 293 288 294 299 298 298 298 297 298 298 299 298 298 298 298 298 300 299 298 299 301 304 300 299 302 302 302 301 301 301 300 299 298 297 297 296 296 295 296 296
287 286 293 295 295 297 298 298 298 299 299 299 298 298 299 298 298 298 298 298 299 298 296 295 295 295 294 294 298 300 301 301 300 300 299 299 298 297 297 297 297 296 295 295
289 291 293 295 297 298 299 299 300 300 300 300 298 299 298 298 298 297 297 297 298 297 296 294 294 293 292 293 297 296 295 296 296 298 299 299 298 298 298 297 297 297 294 293
289 292 293 295 297 298 298 299 299 300 301 299 300 299 299 298 297 296 296 296 297 296 295 294 295 294 295 295 295 294 294 293 293 293 294 293 293 294 295 297 296 296 296 295
289 294 295 295 297 298 297 296 297 298 298 300 301 300 300 298 297 296 295 295 295 295 295 294 293 293 293 294 294 295 294 294 293 293 293 291 291 292 294 295 295 295 295 294
294 297 297 298 297 298 296 296 296 297 298 298 299 300 299 297 295 294 294 294 294 293 293 292 292 291 291 291 292 292 291 291 292 293 293 293 293 290 288 291 295 295 295 295
297 296 293 295 294 296 296 296 296 296 296 297 297 298 298 297 295 294 293 292 292 292 292 292 290 289 290 290 290 290 290 290 290 290 290 290 290 289 290 290 290 290 294 295
295 294 297 297 296 295 296 295 294 294 295 295 296 296 296 295 295 294 292 291 291 291 290 290 289 288 289 289 289 289 289 289 289 289 289 288 288 287 288 288 289 289 291 292
295 293 294 294 294 293 293 293 292 293 293 294 294 293 293 293 293 292 291 290 289 289 289 288 287 287 287 288 286 287 287 285 286 287 286 286 286 286 286 286 286 287 287 287
290 289 291 291 292 292 292 293 293 293 292 292 292 292 291 291 290 289 289 289 289 289 289 288 287 287 287 286 285 286 285 284 284 284 284 284 284 285 285 285 285 285 285 286
295 295 294 294 292 292 291 292 292 292 291 292 291 290 289 289 288 289 289 288 285 285 287 287 287 286 286 285 285 285 284 284 283 282 282 282 283 283 283 284 284 285 285 285
294 294 294 293 293 293 292 291 291 292 291 290 289 288 289 288 288 288 287 285 284 283 285 287 286 284 284 285 284 285 284 283 282 282 282 282 282 282 282 282 282 282 283 283
292 292 292 292 292 292 291 291 291 291 291 289 288 287 287 288 287 286 285 283 284 284 286 286 284 284 284 284 284 284 284 283 282 281 281 281 281 281 281 281 281 281 281 281
290 290 290 290 290 290 290 290 289 288 288 287 286 286 286 286 286 284 282 281 285 286 286 286 285 285 285 284 283 283 284 283 282 281 281 280 280 280 280 280 280 280 280 280
289 289 289 289 289 288 289 289 288 287 285 284 284 284 284 283 283 283 283 283 287 287 285 285 285 286 285 284 283 284 284 283 281 281 280 280 280 279 279 279 279 279 279 280
286 287 288 287 286 287 288 288 287 286 285 285 284 283 283 283 284 284 283 287 286 285 284 284 285 285 285 284 283 284 283 282 281 280 280 280 279 279 278 278 278 278 278 278
288 288 288 289 288 286 285 286 286 286 286 286 285 285 284 284 284 286 286 287 287 286 284 285 286 285 285 284 283 283 283 282 281 280 279 280 278 278 278 277 277 277 277 277
287 287 286 285 285 286 286 286 285 284 284 285 286 286 286 287 285 287 287 286 286 286 285 285 285 286 284 284 283 283 282 282 280 279 279 278 277 277 277 276 276 276 276 276
287 287 287 287 287 287 287 286 284 285 285 284 285 286 287 287 286 286 285 285 284 284 283 284 283 283 284 284 283 282 281 280 279 278 279 278 277 276 276 275 275 275 275 275
286 287 286 285 285 285 285 284 283 283 284 284 283 285 285 285 284 284 284 283 282 281 281 282 282 282 282 281 280 280 279 279 279 277 277 276 275 275 275 274 274 274 274 274

GFSNGP_sfc_thetae_120.txt.gz
Theta_e
289 290 289 287 288 288 285 286 281 285 286 288 291 292 292 294 295 296 297 298 301 302 302 304 306 308 309 311 313 315 314 314 313 314 313 314 313 312 313 312 312 311 309 308
284 288 288 286 288 289 289 289 288 289 286 292 293 294 293 293 294 294 296 297 299 301 302 303 303 305 307 309 310 310 308 307 309 309 308 308 309 308 307 306 306 305 304 304
277 285 285 280 287 288 289 290 289 284 289 293 291 292 292 293 294 295 296 297 298 300 301 302 303 304 304 306 306 306 305 305 306 305 305 304 304 304 303 303 305 304 304 301
278 281 274 286 293 293 290 290 292 291 291 293 292 293 294 295 294 295 296 297 298 300 301 302 303 302 302 303 304 304 304 305 306 304 303 302 302 301 302 302 301 302 301 300
278 277 282 285 289 290 289 288 292 290 291 293 294 294 292 295 296 296 296 298 299 301 302 301 301 302 302 302 301 301 300 301 302 303 302 300 299 298 299 298 295 296 298 299
280 277 276 284 289 292 292 283 292 293 292 292 292 286 289 294 295 295 296 298 298 299 301 301 301 302 301 299 299 299 299 300 300 301 301 300 299 298 297 298 296 297 295 296
280 277 281 287 290 292 280 285 293 294 293 292 289 290 293 295 295 295 296 297 297 297 296 296 300 300 298 298 297 299 299 299 299 299 300 299 298 297 297 295 295 293 294 294
280 277 274 290 289 285 291 294 295 294 294 293 294 295 295 295 294 295 294 295 296 293 293 293 296 297 294 293 297 299 299 298 297 296 297 296 294 293 294 293 292 292 292 292
282 282 290 292 292 294 296 294 295 294 295 296 295 295 295 294 294 294 294 294 295 293 291 291 291 292 291 292 296 297 296 296 296 296 296 296 294 293 293 293 292 291 291 291
285 287 289 292 293 295 296 296 297 297 296 296 295 296 294 294 293 293 293 293 294 292 291 290 291 291 290 291 294 295 294 292 293 294 294 294 294 294 293 292 292 293 291 290
285 288 290 292 294 295 295 296 296 297 297 296 297 296 296 294 293 292 292 292 292 291 290 289 290 290 290 291 292 292 292 292 291 292 293 293 293 293 294 294 294 293 293 293
283 289 289 290 294 296 294 294 295 295 295 297 297 297 296 294 293 292 291 292 291 291 290 289 289 289 289 290 291 290 291 290 290 290 290 291 291 292 295 295 296 296 296 295
289 292 292 293 295 296 293 293 294 294 295 295 295 296 296 293 291 293 291 291 290 289 290 291 291 288 288 288 289 289 288 289 290 290 289 288 290 288 287 291 295 295 295 295
292 292 290 291 290 293 294 294 295 293 293 294 294 295 295 293 292 291 290 289 290 290 291 290 287 286 287 287 287 287 287 290 288 287 287 288 288 287 287 287 287 288 293 295
291 290 291 292 292 292 293 292 291 291 291 292 293 292 293 292 291 290 289 288 289 288 288 287 287 286 286 287 286 285 285 286 286 287 286 286 286 286 286 286 286 287 288 290
291 291 292 290 290 290 290 290 289 290 290 291 291 290 290 290 289 288 287 287 286 285 286 285 285 285 285 285 283 283 283 285 284 282 282 282 284 285 285 285 285 285 286 286
287 286 288 288 289 289 289 290 290 290 290 289 289 289 289 290 288 288 289 288 287 286 286 286 284 284 285 284 282 282 281 281 284 280 280 280 280 280 282 283 284 284 285 286
290 291 291 290 289 289 289 289 289 289 288 288 288 288 289 288 288 288 288 285 283 282 282 284 284 284 284 283 282 281 281 280 280 280 280 280 279 280 280 280 280 281 283 284
291 290 290 291 290 289 289 288 288 289 288 287 286 285 287 287 286 286 284 281 280 279 281 283 287 283 281 282 283 281 281 280 280 279 279 281 278 279 278 278 278 279 279 280
289 290 289 289 289 289 288 288 288 287 287 287 285 284 284 286 286 283 282 280 280 281 282 282 282 280 280 281 284 280 279 280 279 279 279 278 278 278 277 279 278 278 278 279
287 288 288 287 287 288 287 287 286 285 285 284 283 282 282 285 284 281 278 276 279 283 283 284 280 280 281 283 282 279 279 280 279 278 278 277 277 277 276 276 277 278 278 279
285 285 285 286 285 284 285 285 284 283 282 281 281 280 283 282 280 278 280 279 279 287 280 278 279 283 282 286 279 278 279 280 279 277 276 276 276 275 273 273 273 276 276 276
283 284 285 283 282 281 283 281 281 280 279 280 280 280 281 281 280 278 279 282 281 283 282 278 282 286 286 281 277 278 278 278 277 276 274 272 273 271 271 271 273 275 273 274
284 284 284 285 284 281 278 278 278 280 282 280 280 280 279 278 279 280 280 286 288 285 281 280 283 287 287 277 277 277 277 277 274 272 272 279 269 269 270 272 272 273 274 275
282 281 281 280 281 281 279 279 279 279 278 277 279 280 281 281 281 279 278 280 286 286 284 286 288 288 284 279 277 277 277 274 271 270 270 269 269 269 270 270 272 273 273 274
283 283 282 282 282 282 282 282 280 280 281 281 281 281 282 282 281 282 279 282 281 282 278 277 277 279 277 277 278 278 276 275 276 274 272 271 271 269 269 270 272 272 272 272
279 284 278 281 281 281 281 281 280 279 281 280 280 281 281 281 281 281 282 280 279 278 277 277 276 278 275 275 275 274 273 272 275 271 270 269 269 268 270 270 270 271 271 272

GFSNGP_sfc_thetae_123.txt.gz
Theta_e
288 289 288 287 287 287 284 285 281 284 284 287 289 290 291 294 295 296 297 299 300 300 302 305 307 308 310 310 312 314 314 314 313 314 314 314 314 314 316 319 317 318 317 317
282 287 287 285 287 288 288 287 286 286 285 291 291 292 292 293 294 294 296 298 299 300 301 302 303 305 306 306 307 309 308 307 308 309 310 310 309 308 307 307 306 307 306 306
276 284 282 279 287 287 287 287 287 282 287 290 290 290 291 293 294 294 296 298 299 299 301 301 302 303 303 304 305 305 305 305 305 305 304 304 305 305 305 304 304 303 302 302
276 279 273 285 293 292 288 290 290 289 290 290 291 292 293 294 293 294 295 297 298 299 300 301 302 301 301 302 303 304 304 304 304 303 302 302 302 301 301 301 302 302 301 300
277 275 280 284 287 289 287 286 290 289 290 292 292 292 292 294 294 295 295 297 298 299 300 300 300 300 300 299 299 299 299 301 302 301 300 300 299 298 298 298 298 298 300 300
279 275 275 282 288 291 290 283 291 291 290 290 290 285 289 293 294 294 296 296 295 296 297 298 298 299 298 297 298 297 298 298 299 301 300 299 299 298 297 297 297 298 298 299
278 275 279 287 289 290 279 283 291 291 291 290 288 288 291 293 293 293 294 294 294 293 292 294 296 296 295 295 295 297 298 297 297 298 299 299 297 298 296 295 294 294 295 295
278 275 273 289 288 284 290 292 293 292 291 292 292 293 293 293 292 293 292 293 293 291 291 292 293 294 293 293 295 297 297 296 295 295 296 294 293 294 295 295 294 294 294 294
281 280 288 289 290 292 294 293 292 293 293 294 293 292 293 292 292 292 292 292 292 290 290 290 290 291 291 291 294 294 294 293 293 294 294 294 292 291 291 291 290 290 291 291
283 285 287 290 292 294 295 294 295 295 295 295 293 293 291 292 292 291 291 291 291 290 289 288 288 289 289 290 292 292 291 291 291 292 292 293 294 294 292 291 290 291 290 289
283 284 287 290 292 293 294 295 296 296 295 295 294 294 293 292 291 291 291 291 290 289 288 288 288 288 288 289 289 289 289 289 289 289 290 292 293 293 293 294 295 293 293 292
281 288 288 289 292 294 293 293 294 295 294 295 296 295 294 291 291 290 290 290 289 289 288 288 288 287 287 288 288 288 288 288 288 287 286 287 288 289 294 295 295 296 296 295
288 290 290 291 293 294 293 293 294 294 294 294 294 295 293 291 289 292 289 289 289 288 290 291 290 286 286 287 287 287 285 286 286 286 285 285 285 285 285 288 293 294 295 295
290 292 289 291 290 292 292 293 295 292 292 293 293 294 293 291 291 289 288 288 288 288 290 289 287 284 285 286 286 285 285 289 287 287 286 286 286 285 286 286 286 287 291 293
289 289 291 291 291 291 291 291 290 289 290 290 291 291 291 290 289 288 287 287 288 287 286 286 285 284 285 285 285 283 284 283 282 281 283 284 282 284 285 285 285 286 287 289
289 290 290 289 289 289 289 289 288 289 289 289 289 289 288 288 287 286 286 286 285 284 284 284 284 284 284 284 282 282 282 285 284 280 279 280 280 280 280 282 283 283 284 285
287 286 287 287 289 288 288 289 289 289 288 288 288 288 287 287 286 286 288 288 288 285 285 284 284 283 284 283 281 281 281 280 284 279 279 279 279 279 280 279 280 281 282 284
288 290 290 290 289 288 288 289 288 288 287 287 287 287 286 285 285 285 285 285 282 281 281 282 283 283 283 282 281 280 280 280 280 279 279 279 278 279 279 279 279 278 279 280
289 289 289 290 290 289 288 287 287 287 287 286 285 284 284 284 284 284 284 281 280 279 281 281 285 284 281 281 282 280 279 279 279 278 278 280 277 278 278 278 278 278 278 279
288 289 289 289 288 288 287 287 287 286 286 285 284 283 283 283 283 283 284 280 280 280 281 281 282 281 280 280 284 279 279 278 279 278 278 277 277 277 277 279 278 277 277 278
287 287 287 287 286 287 287 286 286 284 284 284 283 282 282 282 282 282 277 276 280 281 282 283 280 280 280 281 282 279 278 277 278 278 277 277 277 277 275 275 275 276 277 277
285 286 285 285 285 284 285 284 284 283 282 281 281 279 278 279 281 280 279 279 278 285 279 278 279 283 281 285 281 279 278 278 279 278 276 276 275 274 273 272 272 274 275 273
284 285 285 284 284 282 282 281 281 280 279 280 280 280 280 280 280 278 279 281 279 282 281 279 282 286 286 283 280 280 278 278 277 277 276 274 273 271 271 271 271 273 271 272
283 284 283 283 282 281 280 278 278 280 281 280 279 279 278 277 278 279 280 284 286 286 282 280 282 286 287 281 280 278 278 277 275 275 274 279 269 269 269 271 270 271 271 273
283 281 281 280 281 281 280 279 278 278 277 276 277 278 279 279 281 279 277 278 284 284 279 285 288 288 286 284 281 280 278 274 275 272 271 270 269 268 269 270 270 270 270 270
282 283 283 283 283 282 281 281 280 280 280 280 280 280 280 281 280 281 278 280 278 281 277 276 276 277 277 275 275 275 276 277 277 275 273 271 269 269 269 270 269 269 270 269
279 283 280 281 281 282 281 281 280 280 281 280 280 280 280 280 280 281 282 279 279 277 275 275 274 276 274 274 274 274 273 272 275 271 269 267 268 267 268 269 269 269 268 269

GFSNGP_sfc_thetae_126.txt.gz
Theta_e
288 288 287 285 285 286 283 285 280 283 283 287 288 289 291 292 293 295 297 298 300 301 304 306 307 308 308 310 312 317 314 314 314 315 316 316 316 318 319 319 319 320 319 319
282 286 286 284 286 286 286 285 285 285 285 290 291 292 291 292 293 294 296 297 299 300 301 302 304 305 305 306 307 309 308 307 309 309 309 309 310 309 310 310 311 313 315 315
277 282 281 279 285 285 286 287 285 283 287 290 289 290 290 291 293 294 295 296 297 298 299 300 300 302 303 305 306 305 305 305 305 305 305 305 305 305 305 304 305 303 303 304
276 278 272 282 291 289 287 288 289 288 290 290 290 291 292 293 293 293 294 295 295 297 298 299 299 300 301 301 302 303 303 302 303 302 302 302 302 301 301 301 301 301 300 301
276 275 279 283 286 288 285 284 289 288 289 291 292 292 291 293 294 293 294 294 294 296 297 297 297 299 299 298 298 299 299 300 301 301 300 300 299 298 299 299 298 299 299 299
278 275 274 281 287 290 289 280 289 289 289 289 290 285 288 292 292 292 293 293 293 294 295 295 295 297 296 296 296 295 296 297 298 299 298 298 298 296 297 297 297 298 298 298
278 274 279 285 288 289 278 280 290 290 289 289 287 287 289 292 291 292 292 292 292 292 292 292 294 295 294 294 294 296 296 296 296 296 296 296 296 296 294 294 294 294 295 296
277 275 273 288 288 283 287 289 291 290 290 290 290 291 291 291 290 291 290 290 291 290 289 290 292 294 292 292 293 294 294 294 293 293 294 293 292 292 292 292 293 293 294 294
279 279 286 288 288 290 292 291 291 291 291 292 291 290 291 290 290 290 290 289 290 288 288 288 289 289 289 290 293 293 292 292 292 292 292 292 291 290 290 290 290 289 290 290
282 283 286 288 289 291 292 293 293 293 293 294 291 292 291 290 290 289 289 289 289 288 287 287 287 287 287 288 290 290 288 289 290 291 291 291 292 292 290 290 290 290 289 288
282 283 285 289 291 292 293 294 294 293 293 294 293 292 292 291 290 289 289 289 288 288 287 286 287 286 287 287 288 288 287 287 287 287 287 287 289 292 293 293 294 293 293 293
280 286 287 288 292 293 293 293 294 294 293 293 294 293 292 291 290 289 289 289 288 288 287 287 286 286 286 287 287 286 286 286 287 285 284 285 285 285 291 292 293 295 295 295
286 288 289 289 293 293 293 293 293 293 293 293 293 294 291 289 289 291 289 289 288 288 288 288 287 285 285 285 285 285 284 284 284 284 287 286 286 285 284 288 291 292 293 293
288 290 287 289 290 292 293 293 295 292 292 292 292 293 292 290 289 288 288 288 288 290 291 289 286 285 285 285 284 284 283 287 283 282 282 282 283 283 284 284 284 285 290 290
289 289 290 291 291 290 290 290 289 289 289 289 291 291 291 289 288 287 287 286 288 288 286 285 285 284 285 284 284 282 283 282 281 280 280 281 280 280 280 280 282 283 284 286
288 289 289 290 291 289 289 288 288 288 288 288 288 288 288 288 287 286 285 285 284 284 285 284 283 284 284 283 282 281 281 284 284 279 279 279 279 279 279 279 279 279 281 281
286 285 286 286 289 289 290 291 290 289 288 287 287 287 286 286 285 284 286 287 288 288 285 284 283 284 283 282 281 280 280 280 283 279 278 278 278 278 278 278 278 278 278 281
287 290 290 291 290 290 288 289 289 288 287 287 286 285 285 284 283 284 284 284 282 281 281 282 282 283 282 282 281 279 280 279 280 279 279 278 278 278 278 278 278 277 278 279
288 289 289 289 290 290 289 288 287 287 287 286 285 284 284 284 283 283 282 281 280 280 281 281 284 285 281 281 282 279 279 279 279 279 278 280 277 277 276 277 277 277 277 278
288 289 289 289 289 289 288 287 286 285 285 285 284 283 282 283 283 282 281 281 281 281 281 281 281 281 281 281 284 279 279 278 278 278 278 278 277 277 277 278 278 276 276 278
288 288 288 288 288 288 288 287 286 285 284 284 283 282 282 282 282 281 277 276 280 282 281 283 280 280 280 281 282 279 278 278 277 277 278 277 277 276 275 275 275 275 276 276
285 285 285 286 286 285 286 285 285 283 283 282 282 280 279 279 280 278 280 280 278 284 279 278 278 283 281 285 280 279 279 278 278 278 278 277 275 274 275 273 272 274 274 272
281 283 284 284 285 284 283 283 283 282 281 281 281 280 280 280 280 279 279 281 279 281 281 279 282 285 287 283 280 279 279 279 278 277 277 275 275 274 272 271 271 272 271 271
281 283 284 283 282 282 281 279 280 281 282 280 280 280 279 278 278 278 279 284 286 285 282 281 282 287 287 279 280 280 281 280 278 276 276 280 274 271 269 270 270 271 270 272
280 279 280 281 282 283 281 281 279 279 279 279 278 279 280 280 281 278 277 278 284 284 279 284 287 288 285 283 283 283 282 280 280 276 274 273 272 269 269 269 269 270 270 270
281 282 282 283 284 282 282 282 282 282 282 281 281 281 281 280 280 281 278 280 278 281 275 275 275 276 275 274 274 274 275 274 279 279 276 272 270 268 269 269 269 268 269 268
279 283 280 281 282 282 281 282 281 281 283 281 281 281 281 280 280 280 282 279 279 276 274 273 272 274 272 272 272 272 274 275 277 271 269 267 266 266 268 269 269 269 267 268

GFSNGP_sfc_thetae_129.txt.gz
Theta_e
287 288 286 285 284 285 283 284 280 283 284 286 287 288 287 289 293 295 295 297 298 299 301 304 305 307 308 310 312 312 312 311 312 313 315 317 318 318 319 320 320 320 319 319
280 285 285 283 285 286 286 285 285 285 285 290 291 291 289 290 292 293 294 295 296 297 298 299 301 304 305 306 306 308 307 307 308 307 307 307 308 308 309 310 312 317 316 316
275 281 281 277 284 284 286 287 286 283 287 290 289 289 290 291 292 292 293 294 295 296 296 298 299 300 301 303 305 304 304 304 305 305 305 305 305 305 304 304 304 303 303 304
275 277 272 281 289 289 287 288 289 288 289 290 290 291 292 292 291 291 292 293 294 295 296 297 298 299 300 301 301 302 301 302 303 302 301 302 302 302 301 302 301 301 300 301
276 274 278 281 286 286 284 284 289 288 288 290 292 291 291 292 293 292 292 292 293 294 295 295 296 297 297 297 298 298 298 299 300 300 299 298 297 297 298 298 299 299 299 299
277 274 274 280 286 289 288 280 289 288 289 289 290 284 286 290 291 291 291 292 291 293 294 294 294 296 295 294 294 294 295 296 297 297 297 296 295 295 295 296 296 297 296 297
277 274 278 283 287 288 277 280 290 290 287 288 286 287 288 290 290 290 290 290 291 291 290 290 293 294 292 292 291 293 294 294 294 294 294 294 293 293 293 293 293 293 294 294
276 274 272 287 286 283 285 289 290 290 289 288 289 289 288 289 289 289 288 289 289 288 288 289 290 293 292 291 292 293 293 292 292 292 292 292 290 290 291 291 291 290 291 292
279 279 284 287 286 288 291 290 290 290 291 291 290 289 290 288 287 288 288 288 288 287 287 287 287 288 288 287 290 290 290 290 290 291 291 291 290 289 289 289 289 288 288 288
282 280 284 288 288 290 291 291 292 292 292 292 291 291 290 289 288 288 288 287 287 287 286 285 285 286 286 286 288 287 287 286 287 288 288 289 292 292 291 292 292 291 289 290
280 282 284 288 289 291 292 292 292 292 292 293 292 290 290 289 288 288 288 288 287 287 286 285 286 285 285 286 287 286 285 286 285 285 285 285 286 288 289 291 292 292 292 293
279 284 285 286 291 292 292 292 293 292 291 292 293 292 291 289 289 288 287 287 286 286 285 285 285 284 285 285 286 285 284 284 285 283 286 286 286 286 290 290 292 292 293 293
285 285 287 288 291 292 292 292 292 292 292 292 292 293 291 290 288 290 288 287 287 287 287 286 286 284 284 284 284 283 282 283 282 283 282 281 282 281 281 284 289 289 291 291
285 289 286 287 289 291 292 293 295 290 291 292 291 292 291 290 288 288 287 287 287 287 288 287 285 284 283 283 283 282 282 286 281 279 280 280 280 280 280 279 279 280 286 288
286 288 288 289 289 290 290 290 290 289 289 289 290 291 290 289 288 288 286 285 286 286 286 285 284 284 284 283 283 281 281 281 280 279 279 280 279 279 279 279 279 278 279 282
286 287 286 289 289 290 289 288 288 288 288 288 289 288 289 288 287 286 285 284 284 284 286 286 284 284 284 283 282 281 280 284 283 279 278 278 278 278 278 278 277 277 278 279
285 284 285 286 288 289 290 291 291 290 288 288 288 287 286 286 284 284 284 285 285 286 287 287 284 284 283 282 281 280 279 280 283 279 278 278 278 277 278 278 277 277 278 279
288 288 289 287 289 289 288 288 288 288 288 288 287 285 284 283 284 284 283 283 283 282 282 283 282 282 282 282 281 279 279 279 279 278 279 278 277 278 278 277 277 276 277 278
288 288 288 289 289 290 289 288 288 288 287 286 285 284 284 284 283 283 282 281 281 280 281 282 284 284 281 282 282 279 279 278 278 279 279 280 277 277 276 276 276 276 277 278
287 288 288 288 288 289 288 288 287 287 286 285 285 284 283 283 282 282 281 280 281 281 281 281 281 281 281 281 285 280 278 278 278 278 278 277 277 277 276 278 277 276 275 277
286 287 288 288 287 288 289 288 287 286 285 285 285 284 283 283 282 282 277 278 282 282 282 283 280 280 280 281 282 279 278 278 278 277 277 277 277 277 275 275 275 275 275 275
284 285 285 286 286 285 286 285 285 284 284 283 283 282 281 281 281 279 281 282 280 286 280 278 279 283 281 285 280 279 279 278 278 278 277 277 277 275 274 273 272 273 273 271
278 281 284 283 284 284 283 283 283 284 283 283 282 282 282 282 282 280 280 282 280 282 281 279 282 285 287 282 278 279 279 279 278 278 278 275 275 273 273 272 271 272 270 270
280 284 284 284 282 281 281 280 281 282 283 282 281 281 280 279 279 281 281 284 286 285 283 282 284 287 288 277 279 280 280 281 281 281 279 280 272 271 269 270 269 270 269 271
284 283 281 281 283 284 282 280 279 279 279 277 279 281 280 281 282 281 280 280 284 284 281 285 287 288 285 283 283 283 282 282 281 280 277 276 273 272 270 268 268 269 269 269
282 283 284 284 285 285 284 282 283 281 281 280 281 282 282 282 281 282 280 281 279 282 280 277 276 278 278 278 275 274 273 274 275 278 279 277 274 270 268 268 268 268 269 268
279 285 282 282 282 283 283 283 282 282 283 281 281 281 282 281 281 281 282 280 280 278 276 275 273 274 272 272 271 271 270 275 279 276 271 267 265 265 266 267 267 268 268 267